GFSSGP_850_rhum_000.txt.gz
RH
9 6 9 11 10 11 12 12 11 11 11 24 33 30 36 41 42 44 85 87 79 94 98 70 50 46 42 40 47 63 62 68 68 85 80 81 85 87 94 83 80 80 83 81 79 77 78 78 74
11 9 10 9 12 13 12 11 12 10 8 12 28 38 33 46 57 70 73 96 99 99 100 98 58 53 48 36 25 27 53 62 31 64 88 83 96 86 60 97 87 87 82 78 77 71 75 78 73
8 8 7 8 12 13 14 12 9 7 9 12 31 40 44 56 71 78 97 93 93 95 98 72 68 62 58 46 38 29 16 19 42 68 75 88 84 88 77 84 87 91 86 81 78 81 77 77 71
11 7 7 8 10 10 10 9 9 7 15 23 31 44 72 91 96 95 99 98 96 100 100 80 71 65 61 54 49 47 38 23 20 26 56 85 80 78 86 85 85 90 92 88 86 95 99 93 72
8 7 7 9 10 8 8 10 11 12 23 29 32 44 67 97 99 96 100 100 100 99 100 92 69 67 61 56 52 58 56 48 37 26 19 21 50 64 76 85 94 91 90 91 87 75 68 67 80
7 8 8 10 10 8 8 10 14 20 24 33 38 44 61 96 98 100 99 98 97 96 97 95 68 61 53 49 53 54 54 62 62 53 41 26 29 63 71 66 68 70 63 64 64 58 54 54 82
7 7 9 9 10 9 9 10 16 15 22 33 39 35 62 83 89 82 93 81 53 44 52 53 58 60 52 48 54 56 59 63 68 74 69 60 42 39 37 30 26 28 44 79 83 67 58 54 52
8 7 9 8 9 10 10 13 19 20 23 32 37 31 46 83 98 86 78 76 73 64 54 46 46 50 57 62 60 60 59 61 65 73 80 79 81 71 62 76 72 52 48 68 79 79 70 62 51
9 7 9 10 9 9 9 9 23 30 26 36 41 45 63 85 82 84 94 80 74 56 50 51 56 55 57 65 58 57 64 66 69 71 71 80 85 84 89 97 98 98 87 70 64 69 75 69 62
7 8 12 14 12 9 9 11 16 19 23 35 46 56 71 78 73 70 60 57 44 39 39 41 54 71 69 69 51 52 81 89 79 81 71 64 63 61 76 87 97 98 99 100 93 71 73 72 79
13 13 12 16 18 17 10 12 20 15 15 23 31 46 52 53 51 48 43 41 40 33 34 35 47 71 87 70 72 83 54 68 76 69 59 55 50 52 52 55 63 71 77 88 84 99 94 87 88
16 20 20 21 20 16 14 18 16 18 20 30 36 42 43 40 38 35 36 38 42 38 39 45 54 70 67 59 61 66 65 60 55 52 52 52 46 54 64 65 96 86 81 85 75 81 74 86 68
18 21 25 24 22 22 22 19 20 19 28 33 34 35 32 30 31 34 34 33 33 38 40 48 55 64 64 62 57 52 45 36 26 21 16 13 10 11 20 43 39 44 66 62 54 59 66 76 68
26 26 27 26 24 24 23 20 22 22 29 30 31 29 28 30 30 32 34 37 37 35 40 49 53 57 56 51 42 30 20 16 14 11 9 7 6 6 8 17 41 64 60 52 53 74 58 70 80
26 22 24 23 23 22 23 20 19 20 28 27 28 28 28 29 31 30 32 35 35 31 33 36 31 24 22 18 16 14 13 11 10 11 13 13 12 8 10 11 22 44 60 71 79 79 88 83 94
23 20 17 18 20 23 21 12 15 19 23 22 24 26 28 28 29 29 28 32 28 29 26 21 16 14 14 14 13 12 12 14 19 20 20 20 19 17 20 16 12 17 25 41 79 96 99 97 100
17 16 19 16 19 19 18 16 10 19 22 19 17 21 25 27 29 30 32 30 28 26 21 14 13 12 12 12 14 14 16 27 24 26 29 24 22 20 19 22 22 16 16 24 51 83 91 90 89
22 20 20 22 14 18 17 15 11 11 13 17 18 18 20 25 27 30 34 29 28 24 20 16 14 13 14 14 15 19 28 36 40 43 44 29 30 22 23 33 22 40 45 37 19 24 40 55 74
24 23 19 15 17 23 18 17 14 12 13 14 19 20 21 23 27 30 36 34 28 27 21 18 18 16 17 27 37 37 38 42 47 44 34 41 45 46 47 43 45 44 51 58 54 46 45 45 61
22 23 20 18 18 23 21 19 13 13 14 18 20 20 22 24 28 32 35 38 34 32 30 32 31 26 23 32 34 32 34 36 37 43 52 52 45 48 45 45 43 49 43 46 53 54 48 41 50
22 25 23 25 22 18 21 13 13 14 17 20 21 24 26 26 27 31 34 38 42 40 39 36 33 33 32 26 28 30 30 32 39 39 41 48 49 54 55 53 52 50 54 50 51 50 52 44 41
26 24 25 27 28 22 24 19 15 15 15 15 20 21 22 24 27 31 32 36 42 44 43 40 34 33 32 20 31 26 30 29 30 35 38 42 48 47 50 56 59 63 58 55 51 45 51 52 48
26 26 27 30 30 29 26 27 17 18 16 16 17 20 22 25 28 28 31 34 38 43 46 31 35 36 34 30 20 39 40 36 39 43 42 49 37 28 30 52 65 68 67 63 67 66 56 53 53
25 27 27 31 32 41 28 27 19 18 19 18 17 21 25 25 27 25 23 24 32 40 36 32 32 38 39 29 23 23 25 40 40 44 46 44 47 46 52 57 63 67 70 70 69 69 68 65 61
28 31 44 43 41 35 29 32 23 19 18 20 22 24 26 28 30 30 30 31 30 36 34 31 30 40 40 31 27 27 29 51 48 48 44 43 45 48 48 50 49 50 54 57 59 60 61 59 55
31 33 47 78 46 39 27 36 19 18 20 22 26 26 28 29 30 32 32 33 34 30 38 41 37 33 41 34 32 34 34 44 46 35 32 33 34 30 25 20 19 32 39 41 47 45 44 45 50
37 41 34 46 58 56 34 26 22 18 20 23 23 26 28 31 33 34 33 30 30 36 35 40 37 39 42 33 33 34 33 32 33 31 28 34 31 39 38 21 15 18 24 34 56 58 59 60 59
36 31 50 48 84 71 32 31 27 23 23 22 24 26 31 35 36 37 38 38 39 42 41 44 33 35 37 34 33 33 33 33 31 28 27 27 26 31 30 27 47 60 62 67 69 66 63 63 62
43 46 38 40 48 67 66 40 23 26 25 26 26 29 33 35 38 39 40 40 42 46 40 34 31 36 37 34 34 33 33 30 29 30 31 39 40 36 53 59 67 68 69 71 73 74 75 74 69
40 45 42 59 56 56 72 61 27 26 26 30 30 30 33 36 38 39 44 46 45 44 39 37 39 42 34 33 31 33 29 31 32 44 42 49 58 62 68 71 69 68 66 66 69 73 73 74 74

GFSSGP_850_rhum_003.txt.gz
RH
5 9 11 11 9 7 8 9 8 8 10 22 20 20 30 32 39 56 70 96 96 99 91 78 52 53 47 43 39 45 54 60 77 81 70 82 87 80 87 81 69 83 98 89 81 83 78 73 74
12 8 8 8 9 10 8 9 8 8 8 15 24 20 25 41 42 59 59 94 92 93 91 89 62 62 50 38 29 26 40 62 66 54 85 84 78 58 58 69 51 49 73 86 93 88 87 80 83
7 8 6 6 7 11 13 9 8 7 9 12 21 29 33 48 55 61 75 87 96 99 93 70 61 65 59 49 38 30 37 39 41 76 88 86 83 82 78 75 53 47 66 91 94 76 84 82 84
9 5 6 8 9 10 10 9 8 7 12 14 19 35 58 79 66 65 75 82 97 92 97 68 65 65 59 58 52 43 31 27 40 47 45 75 88 93 82 77 63 66 92 97 99 97 86 76 85
7 5 6 7 8 7 7 8 9 9 16 20 20 30 54 82 94 87 91 94 88 91 95 75 60 60 61 60 58 58 52 41 35 32 32 32 39 73 89 89 95 91 74 87 93 90 84 73 75
6 5 7 8 8 7 7 9 12 15 18 24 24 35 49 82 91 82 80 73 73 81 94 94 66 60 53 49 52 60 65 66 66 63 60 45 26 31 56 70 74 66 74 73 69 68 68 63 57
6 6 6 7 8 8 7 8 9 10 15 22 26 24 48 64 72 69 78 76 76 76 82 86 89 68 57 58 55 61 63 66 71 75 71 68 66 40 35 36 43 58 58 97 90 88 81 77 73
6 5 6 6 7 8 7 9 10 10 10 19 18 20 35 55 58 70 81 79 79 78 74 78 80 83 92 93 63 54 52 56 63 67 68 69 72 65 59 42 47 58 64 76 96 95 88 78 76
6 6 7 7 7 7 6 6 11 14 11 14 17 20 42 62 72 70 66 65 63 66 68 69 84 92 89 76 69 70 72 61 65 53 54 62 99 59 60 66 65 58 73 74 74 78 93 82 77
6 7 8 8 6 6 6 6 9 11 12 16 22 35 48 57 52 50 49 48 48 51 53 55 31 62 73 76 68 93 95 89 85 82 60 90 62 80 85 77 77 79 84 82 89 97 99 98 91
9 9 7 9 11 9 8 8 10 10 10 11 16 26 41 46 44 47 41 38 37 46 49 42 36 46 75 82 86 88 67 88 88 60 66 50 44 43 53 66 70 55 62 52 47 69 73 79 95
11 11 11 13 14 12 11 13 12 12 11 16 18 23 33 38 39 38 34 30 34 42 49 49 40 59 77 78 79 86 86 88 85 71 60 30 26 10 16 21 18 30 50 47 44 78 86 84 74
14 14 16 16 16 16 17 14 15 14 15 19 24 29 30 31 30 29 28 31 34 39 47 53 59 67 75 80 79 78 72 65 60 73 36 79 78 26 32 27 35 41 42 49 59 69 63 67 73
16 16 18 17 16 16 17 12 14 13 18 20 23 24 24 24 24 25 28 30 34 35 43 50 57 60 63 64 57 45 42 38 41 35 21 19 39 19 82 59 45 55 63 67 74 70 71 74 61
18 18 16 16 14 14 16 11 14 11 17 17 20 22 22 22 23 24 26 28 31 33 38 40 44 39 35 31 30 41 35 36 48 39 18 18 27 16 16 49 70 46 14 23 39 50 53 61 74
15 15 10 10 13 14 12 10 8 11 14 16 15 17 20 22 22 23 25 28 32 31 34 35 25 37 33 42 38 37 42 46 55 59 31 19 20 21 25 51 41 14 25 23 18 53 66 91 84
10 12 13 12 10 12 10 12 8 9 11 13 13 12 15 19 20 22 24 28 31 31 32 33 32 35 38 38 35 42 33 41 47 54 55 25 26 22 26 43 44 21 45 39 20 33 44 68 85
15 16 15 14 10 12 14 14 10 10 9 9 10 12 12 13 18 20 25 29 31 32 32 32 35 34 36 36 35 39 41 44 46 45 46 52 48 38 45 47 57 54 50 52 59 52 49 51 55
17 18 17 14 14 18 17 15 11 9 9 10 11 13 14 14 15 20 26 31 34 33 36 34 35 35 36 34 34 35 40 42 42 42 46 50 43 49 50 44 45 50 47 53 60 58 55 50 49
16 18 17 15 14 17 17 15 10 10 12 12 14 15 17 18 19 22 26 32 36 36 36 33 33 35 38 32 34 33 34 34 38 40 48 56 52 51 49 46 48 46 49 54 54 57 57 52 47
16 21 21 22 19 15 16 13 11 12 12 14 16 18 18 20 19 22 27 30 36 40 39 37 32 33 36 34 31 35 38 38 37 38 44 51 57 56 54 54 52 55 58 54 54 55 56 51 52
21 20 22 24 24 22 16 17 13 12 12 12 15 17 19 21 22 23 26 27 33 39 42 41 37 34 34 37 35 31 32 31 30 30 32 34 42 52 56 55 52 53 57 59 58 54 54 57 55
24 22 25 24 27 24 19 20 13 13 13 13 14 17 19 21 22 24 26 27 29 34 42 45 43 39 35 34 38 34 35 38 36 37 40 45 49 52 56 55 54 57 56 54 55 57 59 61 61
22 24 21 24 26 35 24 22 15 14 14 14 14 17 21 22 25 26 26 28 30 34 42 47 47 44 38 38 38 41 36 39 40 39 44 48 46 46 46 50 53 59 59 57 58 58 59 60 60
24 27 40 40 35 34 22 27 19 14 14 14 16 19 21 24 27 28 29 29 29 31 36 44 47 46 42 39 41 44 47 50 51 52 50 47 46 48 49 49 48 49 42 48 49 51 52 52 53
31 31 47 66 42 36 23 27 18 13 14 16 19 22 24 25 30 31 32 33 33 32 34 38 40 42 41 40 43 48 52 57 57 51 46 38 43 49 50 49 50 50 50 51 50 49 48 46 45
32 40 31 45 42 55 34 20 16 14 15 18 20 21 23 28 31 34 35 36 36 37 38 39 41 43 41 40 42 52 60 60 50 45 51 43 48 46 43 48 49 52 52 53 57 56 55 56 54
33 30 47 48 85 63 34 31 26 20 18 17 20 23 27 29 31 34 36 37 41 42 42 42 46 44 46 42 47 62 62 54 41 42 47 42 47 53 50 49 49 50 52 54 59 61 60 61 62
36 39 37 34 42 66 61 38 22 24 24 23 22 25 27 29 33 35 36 38 43 46 46 45 46 48 51 46 56 61 60 55 44 41 50 56 51 50 51 48 52 54 56 60 60 60 62 64 64
30 36 36 54 54 51 60 58 24 24 23 24 25 25 28 31 34 37 39 44 46 46 43 43 47 50 46 52 58 60 56 42 51 55 58 57 58 55 56 57 57 57 57 57 58 59 59 59 60

GFSSGP_850_rhum_006.txt.gz
RH
2 11 9 11 12 9 10 8 7 8 10 19 18 27 36 43 46 72 74 82 94 91 87 55 47 43 39 42 51 68 77 74 81 78 78 89 86 85 73 60 37 58 62 59 71 91 89 77 70
2 12 7 9 12 12 11 8 8 7 8 14 17 31 52 46 54 64 84 90 86 90 86 77 55 52 42 32 30 48 68 80 84 62 58 84 85 82 87 72 52 50 52 48 48 60 98 85 84
3 13 7 8 10 13 15 9 8 6 9 12 17 39 52 53 53 63 81 91 96 88 77 57 55 53 48 43 33 29 43 56 67 67 87 88 86 87 82 78 64 76 70 61 84 90 99 96 89
9 8 7 9 9 9 10 9 8 7 10 10 16 39 65 60 56 69 75 90 91 81 53 49 48 42 45 44 46 41 35 28 26 36 67 77 83 87 83 75 73 62 59 75 83 87 62 99 92
8 7 8 7 8 7 8 8 8 8 14 15 17 63 63 76 76 73 76 75 78 52 46 47 45 45 46 48 49 52 50 45 41 35 26 22 25 42 72 81 87 88 88 89 69 50 61 76 67
7 6 8 8 7 7 8 9 10 12 16 18 52 67 60 76 76 77 68 64 69 76 74 59 60 55 54 52 50 56 58 57 53 47 52 48 28 21 26 44 61 60 64 56 53 64 74 73 76
7 8 7 7 7 7 7 7 9 9 15 16 31 66 67 46 73 72 63 66 67 71 77 81 82 79 80 78 71 56 54 53 51 53 49 59 60 53 44 36 34 31 26 41 83 84 89 81 59
6 5 6 6 7 8 6 8 9 9 9 9 10 24 63 55 59 66 70 67 68 71 70 74 75 81 89 87 82 54 57 55 54 54 55 59 64 66 71 69 60 62 54 53 72 89 88 89 86
6 6 6 6 7 6 6 6 9 10 10 11 12 20 47 63 56 66 65 59 58 61 62 69 76 86 90 80 69 74 88 83 74 66 58 78 89 65 77 70 84 81 83 77 76 81 78 78 81
7 8 8 6 6 7 6 6 8 8 9 11 16 22 36 51 56 50 43 43 48 48 49 56 39 42 46 78 69 91 89 93 98 98 74 96 98 97 76 64 85 74 72 82 92 88 82 78 78
8 9 7 8 10 8 8 8 9 8 9 12 13 20 27 33 35 37 34 36 36 41 48 45 33 30 62 88 77 81 80 76 93 89 95 87 55 43 51 54 70 63 31 48 50 59 47 78 83
11 10 11 12 12 12 12 13 12 11 11 14 15 17 24 29 32 35 34 32 32 36 44 39 26 26 34 73 76 79 82 75 87 59 31 33 29 18 15 16 17 15 18 26 22 22 41 61 72
12 12 14 14 15 14 14 13 12 12 12 16 15 22 24 26 30 30 29 27 30 35 41 41 24 27 32 61 63 66 68 54 51 35 30 51 60 28 36 24 22 24 31 37 35 34 47 50 60
14 14 13 14 12 12 14 12 10 10 12 15 16 21 23 25 26 25 26 27 30 32 37 38 32 38 43 73 52 43 42 34 34 37 25 20 34 32 73 66 50 38 26 36 61 75 74 67 64
14 16 15 14 11 10 12 10 10 12 14 14 15 18 19 20 21 22 23 26 27 31 35 42 41 48 42 50 43 36 40 47 49 40 18 19 22 19 23 34 60 64 19 17 12 18 38 60 76
15 14 11 8 10 11 10 12 8 9 10 13 14 14 17 19 19 20 22 24 26 30 33 38 36 38 35 41 43 37 43 40 53 57 33 20 19 20 26 47 43 27 44 56 31 20 15 32 59
12 14 13 13 9 9 10 13 9 9 8 10 12 12 13 16 18 19 20 22 26 30 32 34 35 29 39 39 40 39 41 39 49 59 50 31 24 23 32 46 40 30 43 50 44 38 37 32 25
19 18 16 16 12 12 15 16 12 11 10 9 9 10 11 12 12 17 19 22 26 30 33 33 34 35 36 38 34 40 39 38 43 46 51 48 45 35 30 47 46 45 50 52 54 48 51 53 50
14 16 16 15 12 15 17 16 13 9 9 10 11 12 13 13 13 14 19 23 26 31 33 35 34 36 36 38 38 37 40 42 44 43 43 47 49 47 44 45 46 47 49 51 53 54 57 55 53
13 15 19 17 15 18 18 16 12 10 12 12 12 14 16 17 18 19 22 25 29 34 35 36 36 35 36 38 36 35 35 38 40 42 43 44 44 48 50 50 48 50 49 50 52 57 57 56 54
15 22 23 24 20 15 16 13 13 11 12 14 16 17 17 19 20 21 23 26 29 33 38 38 38 35 34 36 36 34 34 34 36 37 39 44 40 53 55 54 55 54 54 58 58 54 53 56 59
22 19 23 25 26 29 19 22 12 12 14 14 15 17 19 20 21 22 23 25 27 30 34 39 40 38 35 34 35 35 33 35 35 32 31 35 42 51 55 56 56 55 52 53 55 58 58 59 58
24 22 26 24 26 26 20 20 14 12 12 13 15 16 19 21 23 25 25 26 28 29 31 36 39 40 40 37 35 35 35 34 34 36 35 35 39 43 48 54 57 57 55 54 53 53 44 48 59
21 24 23 21 26 46 24 23 21 14 14 13 13 16 20 22 25 27 28 29 29 30 31 32 39 41 41 39 38 36 36 36 39 39 39 40 44 47 49 51 50 52 54 55 53 42 51 50 44
24 31 52 59 54 50 22 26 24 17 13 14 16 18 21 24 26 30 32 32 33 34 33 34 37 39 40 44 46 42 38 40 39 40 46 43 47 50 47 46 48 48 48 36 27 26 25 26 34
30 33 61 68 54 50 30 31 18 12 13 14 17 19 21 24 27 28 32 35 36 37 38 39 37 36 39 42 43 43 43 41 45 52 56 54 51 51 52 54 50 37 37 33 32 29 33 31 38
31 38 31 49 54 64 43 28 20 15 14 17 19 20 24 26 28 31 33 35 37 40 43 45 45 45 44 43 45 44 42 46 49 57 57 54 48 52 51 62 48 61 38 40 42 40 40 54 55
31 29 49 60 89 64 38 39 33 24 26 25 25 24 27 28 31 33 35 37 39 44 45 46 46 46 45 46 46 47 43 51 60 58 55 58 58 78 73 72 64 40 33 34 38 45 50 56 59
32 38 39 36 51 71 76 47 29 31 29 29 26 27 31 29 32 34 37 39 44 46 50 48 47 43 43 47 49 51 48 60 63 57 56 85 82 86 92 69 41 36 40 43 51 56 58 61 59
27 34 35 73 68 61 68 62 30 28 25 27 27 27 28 31 33 36 38 39 47 53 57 57 52 43 45 48 49 51 58 61 59 56 61 79 89 86 64 51 55 54 54 56 58 58 58 60 61

GFSSGP_850_rhum_009.txt.gz
RH
2 8 8 10 19 21 19 14 10 14 17 45 46 54 62 59 68 94 88 88 86 87 82 46 41 41 42 44 56 64 71 81 78 83 81 86 87 82 79 75 71 47 40 37 58 50 72 79 87
2 6 7 9 21 24 19 10 12 11 13 34 38 38 56 73 75 87 86 86 93 92 87 62 47 38 33 29 29 44 53 65 71 47 48 78 88 88 83 78 70 52 50 46 52 56 71 61 74
5 10 10 16 20 19 18 12 10 10 9 12 48 52 55 65 67 84 83 83 87 73 61 49 46 43 39 34 30 29 30 35 54 39 68 77 85 87 86 82 73 66 62 51 61 64 60 54 58
10 11 8 13 12 12 13 11 9 10 10 34 54 66 66 73 72 77 79 80 73 56 46 44 41 37 42 41 38 36 34 31 27 24 30 59 71 75 84 81 68 74 71 70 61 74 75 63 55
9 9 13 12 11 11 12 10 10 19 42 51 41 67 58 66 73 74 81 74 54 54 53 50 48 42 38 36 35 37 39 40 40 39 37 27 24 34 48 66 68 65 62 63 67 73 75 68 63
9 8 14 14 12 10 9 8 9 15 23 40 56 60 60 53 59 66 77 80 78 69 71 73 73 68 54 50 45 43 43 45 46 51 53 52 43 34 46 53 56 72 73 73 57 38 42 70 60
10 14 14 12 12 10 8 7 9 11 12 21 31 65 57 43 65 71 68 66 70 73 77 78 77 82 72 62 73 53 48 48 48 51 59 53 59 62 60 61 54 47 49 48 46 39 57 73 74
6 12 10 10 12 10 6 8 9 10 9 13 22 61 54 46 70 68 69 70 69 72 77 81 75 81 78 54 73 64 68 68 63 55 61 55 54 56 58 71 79 83 80 72 65 68 69 71 83
6 14 15 11 10 9 6 9 10 9 10 11 30 44 27 37 61 69 54 66 67 63 54 62 86 71 57 70 71 68 77 69 73 67 63 70 79 60 57 53 68 87 91 89 83 82 83 82 79
11 15 10 12 11 11 10 8 8 8 9 14 29 54 53 46 47 58 55 60 60 54 44 30 27 30 39 87 71 74 83 79 63 58 60 63 64 43 40 37 49 55 61 71 69 75 84 84 78
11 15 14 14 12 11 12 14 11 10 12 16 21 34 42 50 46 42 43 51 42 40 37 31 26 25 47 83 75 76 80 78 78 67 60 72 64 52 27 22 22 41 59 26 55 50 52 77 75
15 13 14 13 14 14 15 14 14 12 13 14 15 24 28 31 33 37 35 34 33 35 34 30 29 24 41 58 64 71 71 65 51 52 45 35 22 18 18 23 22 18 16 20 29 36 41 39 43
15 14 14 14 15 14 14 14 15 13 12 14 15 20 25 27 30 33 34 30 29 32 34 35 31 23 31 46 61 75 71 64 65 60 37 39 40 35 27 27 27 29 26 24 28 28 34 38 47
15 15 15 14 14 13 16 16 14 11 11 16 15 18 22 25 27 30 30 30 27 28 32 35 32 24 26 30 36 53 62 61 56 40 32 39 41 44 35 46 33 30 31 27 25 28 31 36 40
16 18 20 15 13 11 11 14 14 10 13 15 15 17 20 21 24 25 24 24 25 27 31 32 33 35 38 38 36 41 36 33 29 25 26 22 21 30 31 37 32 27 35 21 26 20 17 23 39
20 20 22 18 13 13 12 18 12 10 14 15 14 15 17 18 19 20 21 22 23 26 30 32 33 35 39 37 39 35 32 34 33 27 29 28 21 21 28 32 31 32 23 22 25 26 25 23 20
22 26 21 20 12 12 13 19 16 13 13 14 14 14 14 16 18 19 20 21 23 25 28 31 32 35 30 31 43 46 41 41 40 42 28 35 30 21 26 43 36 42 36 39 35 39 36 33 33
25 24 21 22 17 19 21 23 19 14 13 13 14 15 15 16 17 17 19 20 23 25 27 31 32 33 34 34 39 40 41 40 41 48 52 38 36 31 28 42 46 46 46 50 49 46 42 46 50
19 20 23 23 20 25 24 26 21 16 13 14 15 16 16 17 19 18 20 21 23 26 28 30 33 33 33 35 36 36 36 34 33 42 44 47 48 43 36 41 48 47 49 50 50 47 52 47 46
21 25 32 24 23 25 28 26 22 16 15 15 17 17 18 18 20 22 24 25 26 28 29 29 29 33 35 35 35 35 34 34 36 37 41 44 45 44 44 40 45 48 47 47 47 49 53 55 54
24 30 32 33 30 28 26 28 19 17 15 17 17 17 18 19 19 20 22 23 24 26 28 29 31 34 37 37 34 35 37 36 35 38 43 43 44 45 44 48 52 52 53 53 53 56 55 52 58
28 28 30 33 39 43 27 43 20 20 20 20 18 19 21 22 23 24 25 26 27 28 29 31 33 35 38 40 37 34 34 35 35 34 34 37 39 39 41 48 55 56 57 54 56 56 53 63 59
29 27 32 35 41 35 33 33 22 20 21 22 24 22 22 23 24 25 27 29 30 31 31 31 32 32 32 34 40 40 38 37 35 36 36 36 39 40 54 56 59 58 57 61 69 62 54 54 44
26 34 38 41 40 61 38 38 36 23 18 21 24 23 23 23 25 27 29 30 31 33 34 34 34 34 35 36 36 36 40 41 41 38 37 38 39 43 52 52 53 55 55 57 61 59 55 37 29
35 48 75 68 72 69 34 39 36 26 20 24 26 21 20 22 26 28 30 33 35 37 37 38 40 42 43 44 44 42 41 41 44 43 39 39 41 46 49 50 53 53 52 55 60 71 51 52 29
41 38 83 74 83 72 42 47 32 23 20 21 19 20 25 26 27 31 33 36 38 39 41 43 44 45 44 43 47 48 50 49 48 48 43 43 49 52 53 54 60 62 52 69 83 90 42 25 27
40 60 38 55 60 84 63 42 25 25 28 27 28 26 27 30 32 33 35 36 38 41 43 47 47 48 48 46 45 44 43 44 50 51 53 57 57 54 56 66 59 62 80 88 55 49 32 38 42
34 35 64 82 93 84 58 53 47 41 35 33 36 31 30 32 35 36 39 40 40 42 42 42 46 50 46 50 45 43 44 49 51 55 58 59 56 58 78 90 94 94 72 59 44 34 40 49 50
42 49 48 50 70 93 98 75 37 38 37 42 31 32 34 35 40 42 42 44 48 50 52 54 53 44 57 50 45 44 47 50 54 61 58 57 70 95 84 93 82 74 61 55 49 55 56 58 58
31 45 46 84 90 85 89 72 37 40 37 31 33 38 38 39 40 46 47 50 54 56 57 55 53 53 56 46 46 49 51 54 61 62 60 56 59 66 84 79 72 61 58 60 60 60 59 59 60

GFSSGP_850_rhum_012.txt.gz
RH
2 8 7 10 18 22 20 13 11 18 48 61 56 56 66 71 73 87 98 96 84 76 51 41 39 37 40 41 45 58 64 69 63 69 71 75 71 68 63 68 76 60 52 52 54 56 47 76 75
2 8 8 10 23 25 20 12 13 24 52 47 57 64 70 89 79 83 90 91 86 74 65 48 40 34 33 32 41 46 50 61 58 40 55 74 83 80 78 78 78 64 64 54 56 52 62 73 69
9 8 8 18 24 22 18 13 10 38 43 39 60 70 75 84 89 77 81 78 77 70 78 54 44 37 32 28 28 28 30 38 47 33 61 60 74 87 87 83 81 80 69 68 60 62 63 62 58
9 9 9 14 14 13 13 14 13 17 44 55 61 77 76 70 65 74 62 56 62 60 58 48 39 32 29 30 31 34 33 30 28 26 31 60 80 88 91 90 84 76 75 75 71 65 63 75 66
9 9 15 13 13 11 10 14 28 47 51 49 48 65 80 72 51 47 69 68 54 51 48 42 38 36 35 38 40 41 40 40 40 37 38 30 27 42 69 72 65 66 68 68 73 71 69 79 64
9 10 17 16 12 10 9 10 14 33 51 45 44 56 64 76 56 68 76 80 69 54 59 56 61 56 47 44 40 39 39 39 39 39 40 49 49 42 37 35 39 56 68 64 60 54 46 64 72
11 15 16 13 12 10 9 9 12 11 14 33 28 56 70 75 70 76 78 77 63 70 80 77 86 78 71 47 50 45 42 43 44 42 43 45 44 48 51 54 54 53 49 44 44 52 58 64 72
8 12 12 11 12 9 7 9 10 10 10 32 31 53 47 64 74 73 70 67 71 76 78 75 80 78 78 52 50 60 56 55 52 48 44 41 40 41 40 43 43 48 58 62 69 69 77 81 79
7 15 18 13 12 11 9 11 9 10 12 17 31 23 28 47 71 72 73 72 76 74 76 70 70 69 66 65 69 66 59 58 55 48 46 47 48 47 44 43 42 51 72 71 71 74 79 82 88
11 18 14 12 11 12 13 13 9 9 16 46 39 28 29 40 61 48 63 75 74 68 58 49 42 31 44 52 72 71 72 64 63 56 48 45 48 41 39 38 37 41 61 65 70 72 65 72 82
13 19 15 15 12 14 16 15 12 12 17 44 43 36 40 33 33 38 59 69 70 58 42 35 29 26 33 59 70 76 76 71 65 59 61 57 48 47 48 37 27 34 49 55 34 56 53 50 76
16 15 14 14 13 14 16 14 15 14 14 16 26 27 36 34 37 45 41 65 51 38 34 31 28 26 45 60 73 79 82 79 68 74 70 75 66 60 27 25 24 27 24 19 24 33 31 35 44
16 15 15 14 15 14 14 13 14 14 14 15 23 34 35 36 41 50 40 40 33 32 32 29 26 30 31 57 64 70 71 68 60 52 57 49 36 36 33 23 20 21 21 24 23 24 26 25 30
17 16 16 15 16 16 17 17 16 13 13 16 19 27 29 31 30 34 34 33 33 31 28 25 27 30 28 41 66 79 80 77 70 62 60 45 36 34 33 27 28 27 23 22 25 20 19 18 16
16 19 20 18 15 14 12 13 14 11 12 15 16 16 17 20 28 27 28 30 30 29 25 26 30 30 30 28 36 42 47 53 53 47 40 32 32 30 34 38 38 37 34 34 24 20 20 18 16
22 22 25 20 18 12 12 18 12 14 13 15 16 16 16 18 19 23 24 26 25 24 25 28 31 30 30 30 30 31 33 35 35 32 31 30 30 25 27 34 49 49 43 32 22 25 26 26 24
27 26 23 22 16 17 14 20 17 16 15 15 16 16 16 17 19 20 22 24 23 24 26 30 30 31 31 32 32 31 33 38 37 34 34 33 33 38 29 29 38 49 44 33 31 36 38 34 31
26 24 22 23 20 27 25 26 24 19 15 16 15 18 17 17 18 18 19 23 24 25 28 28 29 30 32 32 33 33 35 37 40 40 38 33 34 43 40 30 29 42 45 42 40 42 42 34 37
21 25 28 26 23 30 30 33 28 18 18 19 19 18 20 19 18 15 17 22 24 25 26 26 28 28 29 31 32 33 34 35 36 41 38 36 38 41 40 43 40 38 44 46 47 47 46 40 42
24 30 33 32 26 30 33 34 26 19 19 19 20 21 22 23 22 22 23 24 24 25 25 25 28 29 30 31 29 33 34 34 35 34 35 38 44 43 44 44 43 43 44 47 49 49 48 48 50
25 30 32 36 36 32 31 32 21 18 21 21 20 19 19 19 21 22 22 23 24 26 27 28 29 30 32 34 37 36 38 37 35 35 34 35 39 43 44 44 44 44 46 50 49 51 53 57 50
31 25 31 37 41 46 32 51 28 20 21 21 21 19 21 22 23 24 25 26 27 29 29 30 30 31 33 35 38 39 40 40 39 38 36 36 36 37 45 46 47 48 52 54 56 56 57 58 59
29 30 37 38 46 42 41 42 28 19 21 22 29 25 23 24 25 26 28 29 30 31 32 33 34 34 35 36 36 38 40 41 40 40 41 39 37 36 37 44 50 53 56 59 58 63 68 71 55
30 38 43 46 48 65 41 40 38 35 29 33 28 24 24 26 26 27 28 30 31 34 35 36 37 39 40 41 44 45 46 46 46 45 44 44 42 38 37 40 51 59 61 64 69 77 76 62 68
41 55 77 64 76 68 43 47 36 29 27 25 25 25 24 24 25 28 30 33 35 36 37 39 42 43 42 43 45 44 46 46 47 49 50 51 47 42 44 49 62 62 60 63 69 73 88 94 96
40 51 81 76 84 74 50 51 38 32 30 27 25 27 29 30 30 34 36 37 40 42 42 42 42 43 45 48 47 44 43 47 46 44 44 45 58 52 53 53 56 55 59 65 86 96 98 99 89
40 58 42 59 70 86 67 50 32 30 36 34 33 33 31 35 38 40 41 41 43 43 44 47 50 52 49 49 48 44 49 49 46 46 47 55 59 54 53 54 57 69 97 97 98 85 72 54 47
35 38 63 81 82 88 72 62 54 42 44 40 41 42 41 41 42 42 43 47 49 51 52 50 48 48 44 48 55 54 50 47 47 50 59 61 60 57 58 72 97 99 95 91 81 64 57 51 46
50 60 56 58 80 97 97 84 49 44 46 51 42 40 42 46 47 47 48 50 52 54 53 55 52 54 54 60 63 62 51 48 50 52 56 58 57 58 84 97 79 71 59 59 60 59 60 61 61
42 54 61 88 80 89 87 71 39 44 38 39 45 48 50 51 55 56 56 57 53 46 50 48 43 58 60 67 66 60 52 54 59 62 61 60 60 72 69 68 53 54 62 62 64 66 66 60 53

GFSSGP_850_rhum_015.txt.gz
RH
2 7 6 11 17 22 20 13 12 30 74 66 54 57 71 82 67 73 89 88 87 61 48 42 43 41 42 43 49 49 51 70 73 73 78 68 57 56 59 64 63 61 53 55 56 67 61 65 61
3 6 9 11 22 23 19 15 30 53 69 62 64 70 78 91 88 89 89 93 88 78 56 42 38 38 36 34 50 56 64 67 60 55 72 81 81 77 71 79 80 72 61 75 65 62 59 75 80
9 8 8 21 26 23 20 14 49 55 61 46 70 76 77 87 92 90 88 94 84 76 63 48 38 33 29 28 32 32 36 42 49 33 50 53 78 85 83 81 85 82 81 78 83 74 67 65 64
9 9 9 18 17 13 15 20 42 52 53 61 68 82 76 80 71 65 82 84 65 56 49 42 37 30 28 28 28 28 28 28 28 27 30 50 69 80 84 73 71 87 77 77 80 68 65 72 69
8 9 16 15 13 12 21 36 36 50 52 52 54 75 82 78 58 63 62 54 44 41 38 38 36 33 30 29 27 28 30 32 35 32 28 30 28 37 66 83 81 66 60 67 76 78 76 72 71
9 10 17 18 14 10 11 24 35 46 45 44 60 62 76 80 66 75 66 48 46 40 41 49 48 42 37 30 29 32 34 38 39 38 39 41 44 42 34 31 29 30 34 44 47 38 31 28 33
11 14 16 14 12 11 10 11 12 23 36 33 37 68 79 68 75 73 72 60 48 46 41 38 44 42 37 30 32 42 43 40 42 42 42 45 46 52 52 52 50 53 54 51 48 51 53 55 54
8 14 13 12 12 10 8 10 11 12 21 33 37 56 83 71 75 80 78 70 65 55 51 50 43 32 26 31 40 58 59 56 50 47 43 42 41 42 43 48 51 55 57 68 71 72 73 74 66
8 19 20 13 12 12 12 12 11 13 24 19 34 30 35 74 76 78 75 75 76 67 68 61 51 42 40 47 55 68 70 66 63 54 47 50 55 59 52 50 48 50 55 70 74 72 61 70 86
13 21 15 12 11 13 14 12 10 17 36 41 32 26 42 68 74 70 71 71 70 69 67 60 46 34 30 49 53 69 74 78 71 64 55 53 56 63 42 38 33 32 44 58 61 64 62 56 54
16 20 14 15 13 14 17 16 14 17 29 36 24 30 45 62 73 69 68 59 60 69 65 45 39 30 26 38 70 72 80 68 67 56 56 51 49 44 32 25 23 21 24 34 38 26 38 39 32
17 16 15 14 14 16 17 14 15 15 13 13 18 21 30 47 49 57 61 63 71 71 57 39 36 29 24 28 53 69 74 70 71 52 48 49 48 39 31 23 21 22 22 22 18 18 26 31 27
17 16 16 16 15 15 15 15 15 14 13 17 27 32 31 27 26 34 50 55 62 65 41 34 30 27 27 22 29 46 63 67 75 71 61 56 53 41 36 39 30 23 22 23 24 24 25 29 30
18 18 17 17 16 17 17 17 16 13 13 15 26 32 31 32 34 41 47 39 47 43 34 31 25 25 28 29 27 38 64 77 77 81 79 70 65 47 42 42 39 37 39 34 29 27 22 18 17
19 21 22 19 18 17 15 14 15 12 13 16 21 30 33 30 32 35 31 34 33 33 32 28 25 29 31 31 31 34 43 53 57 60 61 51 44 34 32 35 37 40 45 44 39 35 22 21 21
23 23 26 19 20 15 13 21 14 13 16 16 21 29 35 32 29 30 30 30 32 32 31 26 26 29 31 31 31 31 31 30 32 37 37 36 36 35 34 32 31 33 42 40 36 30 25 27 29
29 27 23 22 22 24 17 21 16 16 19 15 15 22 25 24 22 23 29 30 31 31 27 25 27 30 28 27 28 29 30 29 30 32 33 36 38 37 36 38 36 32 33 35 35 31 31 34 35
27 25 25 26 24 32 32 30 28 23 19 18 17 17 19 20 20 21 23 27 31 29 26 26 28 28 28 30 30 28 28 30 31 31 32 34 37 38 36 42 42 38 32 32 33 37 37 38 37
21 28 34 28 25 33 36 40 33 25 20 20 18 20 19 18 17 16 18 21 26 26 26 26 27 28 30 31 31 30 30 31 33 33 33 33 33 33 34 38 41 42 41 40 38 40 40 40 42
27 29 32 34 29 36 38 37 24 21 22 26 25 24 21 19 19 19 20 23 25 25 26 27 28 29 30 31 33 34 34 35 36 37 37 36 35 35 35 35 39 42 43 43 42 42 42 44 47
26 30 31 36 37 33 38 33 25 22 23 24 25 25 24 22 22 23 23 24 24 25 27 28 29 30 31 33 36 36 37 38 38 39 39 39 39 36 36 36 39 42 45 46 45 44 46 47 49
33 25 31 37 42 47 38 46 29 23 22 28 26 24 23 23 24 24 24 23 24 25 27 29 30 31 33 36 38 39 40 42 43 44 44 45 44 40 38 38 39 43 48 49 48 49 50 53 55
34 35 39 39 46 44 41 43 36 33 25 32 30 24 25 25 24 24 24 26 28 30 31 33 35 34 36 38 41 44 44 46 46 47 48 48 49 49 43 40 39 44 54 53 53 54 59 64 64
34 41 47 50 52 62 42 45 48 38 32 32 28 28 26 25 24 25 28 30 30 32 34 35 36 39 42 45 46 46 47 47 46 45 42 47 48 49 52 52 43 54 60 58 63 70 68 64 68
43 58 71 58 75 67 48 47 46 32 28 26 27 27 30 28 25 29 32 33 36 38 41 43 43 44 44 44 46 45 48 43 46 44 47 46 46 45 46 52 49 59 64 64 72 68 79 92 100
41 52 80 62 85 78 53 54 43 31 35 30 35 34 33 31 31 34 39 41 43 44 44 45 47 47 46 47 46 47 44 45 49 51 48 47 47 51 64 64 73 76 75 78 86 96 99 100 99
43 60 48 68 75 89 72 54 41 36 44 42 42 42 46 45 44 43 44 45 46 49 49 50 52 49 45 45 49 52 56 52 56 55 48 47 48 60 70 65 70 73 80 99 100 98 92 93 81
40 41 66 84 83 83 76 71 61 44 52 44 49 49 49 48 48 48 49 51 54 55 52 48 50 50 45 53 53 55 61 47 55 53 50 50 53 62 68 64 68 83 97 96 82 70 64 60 59
57 64 63 64 82 96 98 83 56 50 53 53 54 56 54 53 55 56 56 56 52 51 53 52 55 51 48 58 69 74 53 54 55 54 53 53 60 66 67 73 83 91 60 59 62 62 63 65 66
48 63 65 89 82 90 90 76 44 44 49 57 64 62 59 57 58 59 60 60 55 52 61 52 51 52 57 74 82 77 66 58 60 62 62 61 60 81 92 85 63 53 59 63 65 68 66 60 57

GFSSGP_850_rhum_018.txt.gz
RH
3 6 6 11 16 19 20 15 14 46 69 66 63 62 80 96 71 60 85 87 71 54 49 51 60 67 76 67 63 64 69 68 69 75 73 60 58 60 62 58 53 53 57 56 58 62 63 66 65
3 5 9 12 22 25 22 19 42 57 72 66 65 68 83 91 92 86 88 87 88 58 48 47 48 50 51 52 52 52 59 62 63 66 76 79 74 74 73 73 72 65 60 73 80 78 68 65 80
8 9 8 22 28 26 24 22 69 70 55 54 71 78 80 91 83 81 85 85 79 76 52 40 35 34 31 31 29 31 39 48 46 43 43 77 87 85 83 78 81 77 81 80 77 72 68 63 68
10 9 11 23 22 21 21 25 61 62 57 63 72 82 78 86 80 80 83 68 66 59 46 39 34 30 27 25 24 24 23 24 25 28 36 59 68 69 74 74 70 78 82 74 64 69 68 66 72
8 9 18 18 18 20 32 36 48 54 54 63 63 83 84 80 68 72 68 58 52 40 38 34 30 27 25 24 22 22 26 28 32 31 29 31 33 45 52 54 61 60 52 50 64 63 70 79 80
9 10 19 19 13 11 16 37 42 48 52 61 68 71 81 62 60 60 55 49 45 35 32 29 30 30 28 26 28 36 38 42 44 44 44 43 46 47 44 39 36 36 40 43 44 40 36 41 53
11 16 17 15 13 11 12 12 30 36 40 40 42 77 81 74 78 74 65 56 54 47 36 35 37 33 32 30 33 40 48 51 51 52 52 52 52 54 54 54 52 49 50 54 53 51 56 61 64
8 14 13 12 13 10 10 12 12 17 27 40 37 78 79 67 81 79 73 61 53 42 43 42 41 38 27 29 33 44 54 57 56 52 49 48 49 50 51 51 53 54 58 64 69 70 73 73 73
9 18 18 12 12 13 13 12 12 22 33 26 41 37 38 53 76 83 76 65 49 50 54 56 42 32 25 24 28 38 48 50 58 59 52 48 47 48 52 45 42 35 31 39 54 52 57 48 47
15 20 14 13 11 14 15 12 11 19 31 32 31 28 39 59 75 78 73 62 45 59 62 59 38 32 24 23 25 36 44 41 49 48 54 51 47 49 54 38 30 23 23 30 39 38 29 27 28
17 19 16 16 13 14 17 16 14 26 35 27 19 27 48 70 74 71 67 54 45 60 63 60 40 32 25 25 27 30 37 45 48 54 48 50 50 48 45 38 36 29 28 25 30 32 25 31 32
18 17 15 15 14 16 17 15 16 17 13 13 15 20 33 51 60 62 57 41 50 51 62 64 37 31 27 27 25 23 29 46 54 63 60 56 53 51 50 32 28 29 24 22 21 20 19 22 26
18 17 17 17 16 16 16 16 15 15 13 13 18 32 30 33 32 47 46 44 58 61 65 60 33 24 24 27 27 25 29 43 56 61 65 68 70 65 60 45 41 36 31 27 28 28 26 23 22
19 20 20 18 18 18 18 18 16 13 13 14 21 26 30 33 32 36 52 47 56 58 63 50 32 26 28 30 30 31 33 40 42 49 60 65 67 62 58 43 38 41 40 36 36 33 30 27 21
21 22 21 19 20 17 16 17 16 13 13 14 16 30 31 28 29 30 32 42 40 40 58 40 32 28 30 32 30 30 31 31 32 34 39 42 41 37 36 34 33 33 35 39 42 40 34 28 22
23 24 25 20 21 18 14 25 17 14 16 18 16 28 38 31 29 31 37 39 38 35 41 36 29 28 30 31 30 31 32 32 31 32 34 36 37 38 37 36 33 36 35 32 35 35 36 31 27
30 26 24 25 26 30 24 30 21 20 22 21 19 18 34 37 33 33 35 37 37 38 38 34 27 29 29 28 29 30 30 30 30 31 32 32 34 36 37 36 34 38 39 38 32 30 30 30 31
26 25 28 28 26 33 36 34 34 25 25 23 20 19 22 41 39 39 29 33 36 38 35 31 29 28 28 29 29 30 31 32 33 33 34 35 35 34 34 34 34 37 40 39 38 37 36 34 35
22 28 33 31 27 36 38 42 32 23 24 25 22 22 21 22 21 20 19 22 26 32 32 27 27 28 28 30 30 32 35 36 36 38 37 38 38 38 38 36 35 36 38 36 40 41 40 40 39
26 30 30 32 32 37 40 39 27 27 30 31 30 28 24 21 20 19 19 21 23 27 26 26 26 28 29 31 32 34 36 37 39 40 41 42 42 43 42 41 39 36 37 38 40 43 43 42 43
31 28 30 35 38 35 38 32 30 22 25 25 26 24 22 21 20 20 21 22 23 24 24 26 28 30 32 33 34 36 38 40 41 43 44 46 46 48 48 47 44 40 37 37 39 43 46 46 45
36 26 31 38 45 47 39 43 34 35 28 31 23 24 26 24 23 22 22 22 24 25 27 28 30 32 35 39 41 42 43 47 47 48 50 49 49 46 46 50 54 50 44 43 43 47 51 50 48
37 39 42 40 49 46 46 42 35 36 32 33 31 27 25 24 24 25 26 27 27 28 30 31 34 38 40 42 45 47 48 49 49 49 48 42 44 47 48 47 46 53 54 51 58 65 55 59 59
36 45 45 54 55 63 47 47 50 43 34 33 32 32 33 31 29 29 31 33 34 35 38 40 40 41 42 45 46 47 48 47 47 47 46 45 48 48 48 47 47 47 52 55 66 74 63 68 73
46 56 61 59 74 67 50 49 50 38 37 39 41 37 35 34 31 32 34 38 42 44 45 45 46 46 47 48 48 45 41 41 41 39 38 38 49 48 46 44 44 52 64 77 85 78 74 77 81
44 56 76 51 85 81 56 54 49 36 40 41 40 42 44 44 45 46 48 47 48 48 49 49 48 47 46 44 41 40 42 46 47 38 36 48 53 50 50 52 59 72 83 91 92 95 97 99 99
44 64 52 73 76 89 73 57 42 46 52 49 52 49 50 50 48 48 50 51 50 48 49 46 47 44 43 44 48 55 57 54 46 39 39 48 52 53 56 65 78 90 96 98 100 99 100 99 98
44 46 64 85 84 80 74 71 59 57 57 56 60 60 55 53 55 55 55 55 58 60 56 56 61 53 52 46 47 54 59 60 64 60 53 54 58 57 66 75 82 87 90 98 96 97 89 84 75
59 64 67 70 84 94 97 81 56 57 55 57 66 64 63 57 58 57 54 60 65 64 62 59 58 45 38 37 45 55 60 60 61 63 62 66 68 72 79 81 90 91 91 59 62 67 69 69 68
54 58 66 84 74 91 92 80 48 53 54 64 67 66 64 64 63 66 66 70 73 68 57 59 47 44 54 56 67 66 61 59 64 70 66 72 80 87 94 98 98 87 66 68 68 69 69 67 64

GFSSGP_850_rhum_021.txt.gz
RH
4 6 6 12 14 16 18 21 16 54 58 70 68 54 58 86 58 50 89 88 55 51 52 63 67 73 74 70 74 75 74 74 75 72 60 59 72 75 77 73 69 59 58 59 57 63 69 62 60
4 5 9 12 19 28 35 23 25 58 70 74 72 77 72 72 94 88 86 78 53 46 45 46 47 47 50 54 56 64 65 67 65 67 76 73 65 62 62 60 58 56 59 60 72 81 78 70 68
7 8 10 18 21 26 42 36 58 70 60 61 72 80 84 85 79 79 79 80 68 47 38 34 35 38 38 34 35 46 46 45 41 43 37 58 83 84 81 79 75 76 73 74 79 76 72 67 67
9 9 15 22 27 22 27 49 62 60 58 65 71 63 82 86 81 79 83 72 71 46 38 32 31 31 28 27 28 27 26 28 31 36 46 62 69 75 84 84 82 78 81 80 72 70 70 68 75
8 11 21 25 30 30 35 50 61 50 54 63 63 75 86 85 72 75 67 59 51 36 34 35 33 31 28 27 26 27 28 30 33 35 37 41 45 49 54 64 73 68 54 53 54 56 60 68 74
9 11 20 27 22 15 26 44 45 48 55 58 63 70 81 62 63 65 56 52 44 37 32 32 31 32 29 27 28 31 36 39 42 42 42 42 47 50 48 45 42 44 48 50 47 43 39 39 42
11 13 15 15 15 14 15 15 38 43 49 44 49 64 79 72 61 48 46 44 40 41 40 37 37 29 27 30 31 35 34 42 47 48 48 49 51 49 50 51 52 51 52 53 56 57 57 58 61
8 12 13 12 12 11 10 13 17 20 34 42 44 55 76 71 65 55 54 53 56 55 47 46 41 33 26 28 27 25 29 46 50 48 44 42 43 44 45 48 51 48 45 41 42 61 70 73 71
10 13 14 12 13 14 14 12 13 28 38 28 38 35 40 62 71 69 66 63 61 49 50 46 34 31 24 23 25 29 26 30 32 42 42 45 42 41 48 49 40 35 23 23 33 43 46 52 40
14 16 15 12 12 14 16 12 12 21 33 40 34 32 40 53 65 71 68 56 46 50 55 53 40 33 25 24 24 27 28 29 33 36 36 45 46 43 45 45 36 29 28 26 27 34 38 32 27
17 17 16 16 13 16 18 17 14 24 22 21 18 23 40 52 66 71 61 50 43 57 59 58 47 33 28 26 27 26 26 29 34 39 41 41 44 47 50 51 46 38 29 30 28 29 28 26 29
18 17 16 16 15 15 15 15 17 20 13 13 17 21 34 50 59 56 60 48 49 48 52 58 52 31 27 28 30 32 32 34 40 45 52 55 58 58 56 54 49 40 39 36 31 28 29 28 26
19 18 18 18 16 16 17 17 16 16 14 14 17 24 28 37 39 48 46 45 48 47 51 65 57 32 26 28 29 30 35 40 44 47 47 47 49 50 51 52 51 43 36 37 35 32 33 31 29
21 21 21 19 20 18 19 19 17 14 13 14 16 22 28 27 27 42 50 42 42 46 48 61 56 31 28 30 29 29 32 36 37 37 38 40 43 43 40 37 35 32 32 33 34 32 30 31 30
20 18 19 22 21 19 18 17 15 14 14 16 17 29 32 27 32 27 30 31 34 38 49 58 58 33 29 30 30 30 30 30 32 32 32 34 35 36 37 37 36 35 32 32 33 33 34 32 28
20 21 20 19 22 23 19 22 17 20 20 16 18 19 32 35 33 32 34 38 43 49 49 59 54 33 30 31 29 30 29 29 31 32 32 33 34 34 34 34 35 36 34 36 37 38 35 32 31
22 19 23 23 27 26 25 23 22 25 25 27 24 21 21 39 37 39 38 41 46 50 47 48 46 31 31 30 29 28 29 29 31 33 35 36 37 37 37 37 36 36 36 36 38 38 37 35 35
25 24 27 28 24 29 31 29 25 26 26 26 20 19 18 20 40 45 42 41 38 38 40 46 39 31 29 29 29 30 31 34 36 38 39 40 40 41 41 41 41 40 38 36 36 37 38 39 38
23 28 30 28 28 31 35 32 23 28 30 32 31 23 21 23 32 33 27 24 23 27 36 38 32 28 29 30 31 32 33 34 36 38 40 41 42 43 44 44 45 43 43 42 40 39 41 42 42
27 29 26 29 30 35 33 27 24 27 30 33 31 29 25 22 20 19 18 20 22 26 32 32 31 32 34 35 35 36 35 35 36 38 42 45 46 47 48 47 47 49 49 46 46 47 48 46 43
32 28 31 32 34 35 32 28 28 23 27 27 27 28 26 25 24 23 25 24 26 28 30 31 34 36 36 36 36 38 40 41 41 42 46 47 49 49 48 45 47 47 46 50 52 49 51 55 51
37 29 36 40 40 36 37 31 31 31 28 31 32 26 25 25 27 28 29 30 31 32 33 34 35 37 39 42 46 49 50 50 49 48 48 46 43 44 45 46 47 48 48 48 50 57 53 54 67
37 40 43 42 44 42 40 32 32 31 34 35 35 38 35 33 30 29 30 33 36 38 40 42 43 45 48 50 49 48 48 46 44 41 39 37 32 30 29 34 45 46 45 45 48 52 59 65 75
39 43 42 48 47 49 46 40 43 39 41 39 40 50 44 39 37 37 39 43 46 49 48 48 48 47 45 45 47 51 52 45 38 35 31 28 26 26 30 38 42 42 43 46 55 63 79 87 91
42 44 46 50 55 51 47 43 48 45 41 43 50 57 51 48 48 48 49 49 49 48 47 46 45 45 46 48 51 50 40 38 41 41 41 40 41 38 43 50 52 52 54 62 79 90 92 96 92
47 49 60 50 60 58 53 51 48 44 48 50 50 53 52 52 52 54 54 53 53 52 53 53 49 47 48 46 41 35 39 49 44 42 44 46 47 46 53 58 58 65 75 86 94 97 100 100 99
46 58 51 66 73 74 55 50 44 49 48 52 56 54 52 53 56 53 50 54 58 60 59 57 54 48 46 39 35 38 47 53 56 51 47 46 52 57 66 72 79 91 99 100 100 99 99 99 97
43 46 56 66 73 67 52 59 45 51 48 52 58 63 59 56 53 50 51 58 62 69 73 61 63 66 53 52 57 64 72 69 60 52 50 61 64 74 86 95 99 99 100 99 97 77 69 74 82
52 56 62 61 72 82 89 54 49 49 49 49 62 68 64 62 65 67 68 68 76 79 68 47 48 56 70 73 73 75 78 72 62 55 65 68 74 91 100 100 97 100 99 97 97 93 90 84 78
52 56 56 63 64 77 79 62 43 49 54 59 70 70 64 65 69 70 71 68 67 68 52 41 44 49 63 74 81 82 74 64 61 63 78 78 99 100 96 99 98 98 96 96 88 84 75 68 65

GFSSGP_850_rhum_024.txt.gz
RH
4 6 7 13 12 15 23 29 29 37 34 46 47 35 37 50 40 46 83 83 73 80 72 64 67 73 73 75 77 76 77 76 69 70 68 75 76 79 78 79 76 72 63 57 56 65 76 73 67
5 5 11 11 15 20 24 24 28 32 43 46 45 41 34 45 66 79 80 72 69 59 69 57 56 61 63 67 71 73 75 80 79 76 72 70 69 66 72 65 63 63 61 59 65 70 79 75 70
5 8 9 11 12 17 20 22 32 41 45 42 40 47 47 48 65 69 79 54 45 44 65 47 54 51 46 42 45 55 59 55 55 59 66 78 83 84 79 74 72 71 69 68 73 83 80 75 69
11 11 14 11 15 21 20 27 32 36 41 40 35 38 59 72 69 72 82 71 66 62 71 36 30 26 25 29 28 27 27 29 34 39 40 47 56 70 77 77 74 76 75 80 79 78 73 71 74
9 12 12 14 20 24 23 29 31 28 32 35 38 41 54 78 86 84 84 81 62 47 34 28 26 26 27 25 25 28 31 33 35 37 38 39 40 40 41 39 38 43 48 50 47 52 57 65 78
10 12 14 19 24 26 27 32 27 23 29 36 34 35 53 86 81 83 78 70 59 47 31 27 30 30 26 26 26 26 29 35 38 40 42 43 44 44 45 46 47 49 51 52 51 49 46 43 43
9 10 13 16 20 19 20 25 21 20 25 26 34 28 59 75 76 80 74 60 56 52 54 53 34 27 24 24 25 28 32 37 44 44 42 42 44 44 47 50 52 54 55 57 57 60 65 67 68
8 8 11 11 11 12 10 13 20 17 19 39 38 24 39 56 78 76 68 62 65 68 71 67 50 38 28 32 30 27 27 42 48 47 45 44 45 46 51 57 52 51 49 37 39 56 67 69 73
8 7 9 9 9 10 10 9 12 22 24 30 32 33 43 63 76 69 64 65 69 72 50 50 65 37 31 30 31 28 26 29 30 32 39 45 87 74 80 59 50 39 33 30 28 28 32 34 33
7 7 9 8 9 8 9 8 11 15 16 19 29 43 53 71 72 67 58 58 62 70 61 54 40 37 30 28 30 33 32 69 55 58 39 77 46 52 52 46 45 41 36 29 28 26 27 29 44
10 9 10 10 10 9 9 10 10 10 11 12 13 28 52 67 68 66 56 49 53 65 65 74 48 35 29 64 63 73 76 79 73 38 45 51 44 78 84 90 84 86 48 58 45 33 46 30 26
11 11 8 10 12 11 10 10 11 11 10 15 18 26 42 50 52 54 49 45 50 54 58 78 58 35 27 41 62 68 70 77 81 91 53 83 90 94 96 92 92 93 90 68 70 70 34 34 32
13 14 15 14 14 14 16 13 13 12 12 15 23 34 38 40 42 45 46 42 45 50 56 78 63 44 28 29 35 34 40 76 77 85 74 45 87 90 90 87 83 82 81 82 84 82 86 78 51
17 15 16 16 16 16 15 14 14 13 14 16 25 28 34 38 38 43 50 50 51 55 62 79 64 50 30 31 30 26 29 54 50 76 71 30 37 79 79 76 74 71 74 73 77 77 61 66 52
17 16 15 16 16 17 15 13 12 15 15 14 22 27 31 36 40 40 41 45 45 52 64 68 60 62 34 31 30 31 46 28 56 61 31 32 33 35 36 69 68 65 70 56 54 60 53 45 58
13 13 13 16 16 18 16 14 13 18 19 16 16 20 33 37 40 41 48 52 55 59 62 58 55 61 38 31 31 31 45 32 43 33 36 36 36 37 38 62 67 64 61 72 74 76 72 70 62
11 10 12 16 18 17 16 15 16 18 20 19 18 19 21 28 39 48 57 55 50 54 59 52 53 59 40 32 33 30 31 31 46 34 40 39 40 41 41 42 54 61 68 72 77 72 75 66 60
13 13 17 16 16 17 19 19 16 20 19 19 19 20 21 25 34 45 47 43 42 48 44 50 66 62 41 34 31 32 32 32 35 40 38 38 40 42 43 44 47 65 73 70 70 75 72 72 62
15 17 17 16 19 23 23 18 18 19 19 20 20 21 23 26 34 37 41 38 33 29 38 61 68 64 44 49 50 52 51 48 46 48 48 42 46 48 46 47 48 50 74 76 75 75 80 80 73
19 19 20 20 22 26 22 19 18 20 22 23 21 24 23 24 30 36 41 29 31 34 39 47 46 44 43 44 39 37 37 44 47 50 64 64 50 46 46 46 50 64 71 76 80 85 81 78 75
23 23 27 27 24 25 22 22 19 20 21 22 24 24 26 29 30 34 40 35 33 33 36 41 42 41 38 38 52 58 56 55 54 57 56 47 41 36 34 32 32 35 45 71 76 80 81 79 78
25 24 31 30 29 21 26 24 24 21 23 25 29 32 35 34 32 37 42 40 34 34 36 39 42 46 46 48 50 46 58 59 61 68 68 56 45 37 39 47 51 48 64 70 74 75 82 82 77
31 33 33 33 31 28 26 23 28 22 28 29 34 39 41 42 44 44 50 55 58 47 48 49 60 50 48 48 52 60 66 66 68 61 61 62 59 58 57 64 27 31 51 66 72 83 91 88 84
31 32 32 34 34 38 33 31 28 27 32 31 36 43 47 48 49 51 53 54 58 64 62 64 64 63 49 48 49 48 44 52 61 60 57 52 51 51 57 66 40 44 53 58 62 81 97 98 100
27 32 33 43 43 37 34 33 37 35 33 35 38 44 49 50 50 51 52 54 60 64 67 63 65 62 63 59 55 58 54 57 58 60 59 65 60 58 64 62 75 90 89 87 80 80 89 98 99
36 36 45 48 39 35 38 31 37 34 36 39 42 45 48 51 54 52 54 58 62 68 70 72 69 65 64 61 58 37 26 51 65 71 74 70 69 72 87 94 97 99 98 99 99 98 99 100 100
37 43 40 52 58 56 32 36 36 36 38 39 41 42 46 50 52 50 53 59 62 66 71 74 66 62 62 62 63 66 74 79 85 83 75 70 69 82 95 99 100 100 100 97 100 99 98 76 84
36 36 48 45 77 48 25 33 28 43 38 38 40 42 48 52 53 54 57 61 64 66 68 74 69 69 72 76 84 84 92 92 90 82 78 81 89 99 100 99 100 100 99 98 98 98 99 98 98
40 43 45 42 54 59 55 27 33 33 35 39 42 50 52 54 58 59 62 66 68 67 65 63 70 76 79 84 86 91 94 96 87 83 86 96 100 98 98 99 98 98 96 95 96 95 97 98 97
39 42 39 52 52 54 54 40 29 30 38 45 46 54 56 56 52 56 61 64 59 60 59 69 78 78 76 75 80 86 90 93 85 91 96 98 100 96 94 98 98 94 99 98 98 93 90 83 77

GFSSGP_850_rhum_027.txt.gz
RH
4 6 15 13 11 11 20 21 18 24 25 28 26 26 26 35 42 61 58 62 70 73 81 68 67 75 77 77 79 79 74 73 73 73 75 80 83 86 85 80 79 78 70 61 58 60 73 71 68
16 10 11 9 11 14 18 18 19 21 25 26 23 21 21 34 51 58 57 59 66 72 78 90 69 64 62 64 65 69 71 72 72 71 71 74 72 77 74 70 68 65 64 59 58 61 64 70 76
8 12 9 8 11 14 19 16 20 23 25 22 22 25 29 40 46 53 57 57 59 67 87 58 52 48 41 37 45 50 50 54 59 58 63 68 73 75 72 70 69 71 71 70 70 72 77 81 73
11 9 10 10 14 13 15 18 20 22 24 22 19 26 46 44 48 56 55 52 58 67 58 35 29 26 25 24 25 26 28 29 31 34 41 52 56 56 67 72 78 81 81 80 82 77 71 70 69
11 8 9 11 15 15 17 18 19 18 19 20 19 24 43 57 59 60 60 50 50 51 31 24 24 27 27 28 29 30 32 35 38 41 40 42 42 42 41 42 42 43 43 46 50 49 50 51 52
8 9 10 16 18 18 18 20 17 16 17 17 17 24 44 59 60 63 61 48 43 48 56 27 27 26 26 27 28 29 32 40 46 46 47 46 45 44 44 45 45 47 48 48 50 51 52 51 51
9 10 12 15 18 19 18 17 14 13 14 16 16 20 43 51 58 57 50 42 41 47 53 56 39 27 25 28 29 28 31 47 50 50 48 44 42 41 44 45 48 49 48 43 35 34 47 59 64
7 8 11 12 14 14 10 13 13 12 15 18 20 16 36 50 58 53 45 44 45 49 52 57 63 69 78 51 31 28 28 38 46 46 41 39 43 47 44 48 54 42 36 26 23 24 28 33 36
7 7 9 8 8 8 7 7 8 12 13 16 19 25 30 51 54 49 45 44 47 51 58 60 60 70 70 66 56 45 36 34 43 46 37 53 82 82 83 70 50 46 42 39 32 30 27 30 36
6 6 7 6 6 6 6 6 9 12 12 14 19 23 37 48 48 44 41 41 46 52 56 61 68 73 71 59 67 74 73 74 79 81 84 75 88 83 63 68 73 64 65 46 44 42 33 39 62
6 8 7 6 6 6 6 6 7 8 9 11 14 21 34 40 42 41 36 36 40 48 49 54 70 73 71 62 56 58 61 65 72 86 86 81 84 81 78 79 78 83 79 86 81 79 71 66 70
7 6 5 6 8 8 7 7 8 7 9 11 12 20 28 34 37 38 37 34 35 44 46 54 67 68 56 53 50 54 57 63 66 71 88 82 74 77 79 72 74 73 70 76 78 74 76 90 85
7 7 7 8 10 10 11 9 8 8 9 11 14 20 28 32 34 34 34 33 36 38 41 51 67 77 61 39 59 64 67 66 72 75 77 82 77 78 78 77 76 72 70 68 67 70 69 74 76
10 11 12 12 12 12 12 10 11 10 11 11 14 18 23 25 28 31 33 33 34 37 42 50 65 80 58 55 65 64 70 67 71 68 71 73 72 76 76 72 70 65 61 62 66 63 68 70 64
11 12 12 12 13 13 12 10 9 11 11 12 14 16 19 23 24 28 34 36 36 37 42 50 66 75 65 60 63 57 56 58 59 58 66 67 54 71 67 69 67 62 62 66 69 70 70 71 68
11 11 13 12 13 14 13 14 10 13 13 13 12 16 18 22 25 26 30 32 34 35 40 48 60 68 76 57 57 55 54 58 55 55 58 65 50 41 44 68 66 66 70 70 69 68 66 64 63
10 12 10 14 12 12 12 12 12 14 14 13 12 12 15 20 25 27 33 37 38 40 43 48 57 68 70 60 58 60 61 58 52 54 55 57 66 67 63 68 68 70 70 70 69 65 65 65 64
10 9 11 11 12 11 12 12 12 15 14 14 15 15 16 16 22 30 41 37 38 44 53 58 61 68 71 67 63 53 54 52 51 49 48 57 62 66 70 71 72 72 70 67 67 68 68 67 67
10 10 11 11 13 14 15 14 14 15 14 16 16 17 19 23 33 37 42 43 41 49 50 58 63 70 69 60 54 48 47 47 47 47 55 68 68 72 72 68 66 66 65 64 67 70 75 77 73
13 15 15 15 15 17 16 15 15 16 18 18 18 19 23 26 31 37 43 48 50 52 53 54 55 58 54 47 52 52 50 53 56 58 61 61 64 56 60 64 64 61 63 62 64 69 74 75 74
17 18 21 20 17 16 17 17 17 16 18 19 20 22 24 25 29 36 44 52 55 55 52 53 56 58 56 44 52 53 50 50 50 52 59 63 64 68 66 65 64 69 69 64 62 64 67 70 69
20 20 23 22 21 20 17 19 19 18 20 22 27 30 29 28 31 37 44 50 58 60 59 56 57 57 61 52 59 66 62 60 60 67 67 68 68 62 58 56 59 68 77 73 71 65 66 71 72
24 25 24 24 24 19 19 17 21 18 23 25 29 33 35 37 38 42 44 52 59 64 65 63 56 59 64 64 59 72 70 67 61 60 61 60 51 55 54 54 59 67 78 79 86 88 85 83 81
22 26 23 25 23 32 18 21 24 20 22 27 31 35 38 40 41 43 46 47 51 61 64 63 59 56 58 65 67 68 69 65 59 58 59 55 62 59 59 62 71 81 83 84 88 93 98 97 92
22 25 34 37 36 36 25 25 29 27 26 27 31 36 38 40 42 42 44 47 53 58 61 63 59 59 58 61 62 63 65 64 60 63 65 74 69 62 59 69 82 83 91 92 98 99 99 98 92
27 28 42 45 37 29 25 23 30 26 29 32 34 36 38 40 42 42 44 48 52 54 59 66 64 57 54 58 62 64 68 68 73 76 81 77 69 69 73 82 94 96 95 99 100 99 98 94 88
30 35 29 38 50 46 21 28 30 28 30 32 33 34 38 39 42 41 45 48 53 52 54 60 64 60 60 63 67 73 78 78 78 81 82 75 76 76 83 89 97 98 97 93 92 98 98 99 96
26 28 40 38 69 43 19 21 21 36 33 31 32 34 38 41 42 45 46 48 53 55 56 59 58 58 63 68 75 72 73 71 75 78 75 75 80 89 92 91 98 96 88 91 87 85 93 95 97
27 32 34 31 37 50 43 26 23 24 24 26 29 34 37 41 44 44 46 49 52 52 53 54 60 65 62 57 55 58 64 69 71 71 74 84 91 96 98 88 85 90 96 100 100 99 98 97 91
28 30 30 44 40 41 51 42 22 21 26 30 30 35 42 43 41 44 47 50 54 52 52 56 59 48 46 47 50 58 66 67 70 80 79 94 98 99 99 95 98 99 97 86 83 83 80 77 78

GFSSGP_850_rhum_030.txt.gz
RH
3 6 9 16 16 14 14 19 18 21 24 23 23 22 33 44 48 67 60 65 78 65 64 65 68 67 68 69 68 67 68 68 69 72 74 74 73 75 81 83 81 79 72 63 58 54 59 61 63
3 14 13 12 17 17 21 17 23 23 21 17 20 18 34 44 50 54 56 64 66 89 70 62 61 53 54 59 59 65 70 71 70 69 68 68 70 76 80 79 74 69 65 63 60 58 61 68 74
6 14 11 13 13 15 21 22 23 19 18 18 21 32 33 40 53 53 57 64 68 81 70 52 46 38 34 38 42 45 47 48 49 55 58 60 69 74 76 75 76 79 76 76 71 76 76 73 66
6 14 10 14 14 15 17 20 17 18 20 18 22 34 39 42 50 50 51 57 67 73 45 39 25 23 24 24 24 26 28 29 31 36 42 45 45 48 50 50 52 56 62 74 73 64 47 42 39
16 12 12 13 16 16 16 16 16 17 17 17 19 37 46 51 51 49 48 52 59 51 28 22 21 22 23 24 25 25 30 35 38 40 40 42 42 43 43 44 45 45 45 45 46 45 45 44 43
11 10 14 16 19 17 17 16 15 17 16 15 20 33 46 53 53 53 46 45 50 30 22 22 22 24 24 24 23 23 29 33 38 42 44 44 43 42 42 42 43 45 47 47 43 37 32 34 44
14 13 15 16 18 18 18 16 12 13 13 14 15 31 45 51 57 52 41 40 46 47 26 25 24 22 23 24 22 18 19 34 42 44 41 38 38 38 37 35 46 43 40 33 20 19 20 23 25
9 10 13 15 17 18 12 12 13 12 16 14 20 27 39 51 51 46 39 40 44 49 54 61 57 56 62 62 28 21 20 23 30 34 34 55 82 74 76 54 44 43 39 33 31 28 26 24 24
7 10 12 11 12 10 8 8 8 11 11 14 22 22 39 51 49 42 41 40 45 48 54 57 65 69 68 63 55 55 46 75 61 72 59 81 84 86 77 64 66 68 63 59 43 43 36 31 38
7 9 8 6 6 6 6 6 9 12 12 15 22 35 45 48 45 41 40 41 46 52 55 63 64 71 64 52 57 67 65 71 76 83 75 82 76 71 70 74 70 74 70 67 77 70 62 61 63
6 9 6 6 6 5 6 6 8 8 10 14 16 31 40 44 42 39 37 39 44 49 51 60 67 66 69 52 55 61 63 65 78 76 70 79 70 79 77 75 73 75 69 68 73 72 78 76 68
7 5 5 6 7 6 6 6 6 7 9 10 15 20 36 37 38 36 32 33 37 45 49 58 61 45 46 58 56 55 57 64 64 74 75 83 77 74 76 72 74 72 71 70 69 71 72 73 76
6 5 6 6 8 9 8 7 7 8 9 11 15 20 28 30 32 33 34 32 33 42 44 51 64 70 52 39 56 51 53 67 69 70 77 72 51 74 60 63 66 68 65 63 63 64 63 67 69
7 8 8 9 10 10 9 9 10 8 9 10 14 19 25 29 30 32 32 31 33 36 39 51 63 72 56 55 52 49 63 67 68 68 69 60 35 47 44 53 58 64 62 58 53 60 65 67 70
9 11 10 11 11 12 10 11 10 10 11 11 12 14 19 22 25 28 30 31 32 35 39 45 58 67 72 58 60 56 57 54 58 59 58 47 42 51 49 50 58 66 65 59 58 64 66 66 66
9 10 14 11 11 12 12 15 8 11 11 11 11 13 15 20 22 26 30 33 33 34 37 44 54 65 73 63 58 54 54 56 54 56 57 60 62 61 56 50 58 61 65 61 70 66 67 67 67
11 14 14 14 10 11 12 13 11 13 13 12 11 12 15 16 22 24 28 30 32 35 39 44 50 60 68 71 62 58 55 49 55 54 56 57 63 62 64 62 61 66 68 70 70 70 70 71 69
13 9 9 11 12 10 11 11 12 13 13 12 12 11 13 14 23 29 34 37 38 41 45 48 54 62 70 69 64 57 52 52 52 50 49 51 54 58 58 49 52 53 61 62 64 67 66 71 71
9 9 9 9 12 12 11 12 13 13 13 14 15 16 22 33 40 44 44 43 44 45 52 57 63 62 69 64 58 53 50 48 49 48 51 54 59 57 55 55 55 58 62 63 62 61 59 61 71
10 12 13 13 13 14 14 13 14 15 16 17 19 24 27 33 39 45 50 47 46 50 52 53 57 57 51 50 51 49 50 49 50 52 58 57 62 64 65 68 65 67 64 59 55 59 69 71 73
13 15 21 19 15 14 15 16 17 16 17 19 22 23 25 30 37 46 54 56 56 54 53 54 56 57 48 45 53 55 52 51 52 55 54 58 65 69 67 62 58 56 59 65 68 51 56 70 73
18 20 21 19 20 21 15 22 19 18 20 21 25 26 25 30 36 43 50 58 62 62 59 57 57 58 58 50 56 62 63 67 64 60 60 63 65 55 55 56 56 57 58 62 62 77 77 77 78
22 21 21 22 24 22 17 24 18 18 23 27 29 32 34 36 39 42 49 57 63 64 65 62 57 55 58 63 67 68 70 67 65 60 59 59 58 58 62 60 60 60 58 63 87 93 92 94 98
19 23 22 23 24 40 23 19 24 21 22 28 30 33 36 38 40 42 44 46 53 59 62 64 58 58 58 59 63 63 65 66 65 63 65 68 70 74 68 62 57 69 79 84 89 92 80 83 87
20 24 45 51 49 49 24 24 30 26 23 26 31 35 37 39 40 40 42 45 49 54 58 62 64 61 56 55 58 63 65 68 70 72 76 80 82 75 70 72 76 84 87 82 83 77 75 86 93
25 25 53 55 64 50 24 25 35 26 27 29 31 34 37 39 40 39 42 46 50 51 52 56 60 62 59 60 63 67 73 76 78 76 80 79 79 76 80 84 90 87 82 82 96 99 97 79 94
26 37 25 33 45 61 28 31 28 27 29 30 30 32 35 37 39 40 44 45 48 52 54 56 59 58 57 62 66 71 68 71 72 71 74 76 74 79 83 81 78 86 88 96 83 82 74 78 99
24 21 39 46 69 51 25 25 41 33 32 29 29 32 34 36 38 40 43 44 48 51 51 53 54 58 62 61 56 53 53 57 63 67 71 71 77 76 77 84 90 81 77 84 81 78 92 93 85
25 27 28 27 36 56 57 33 22 24 25 28 27 28 32 38 39 39 41 45 50 54 53 52 54 59 52 46 48 48 54 61 66 69 74 79 77 70 87 95 89 89 94 93 96 94 84 86 83
24 28 28 62 47 57 60 48 20 21 24 26 29 33 36 38 38 40 44 50 53 54 53 52 56 46 46 49 56 60 63 64 72 77 83 76 93 95 92 87 88 94 89 77 78 78 79 68 78

GFSSGP_850_rhum_033.txt.gz
RH
3 4 10 17 23 24 22 19 32 30 33 35 42 50 60 59 61 88 87 75 69 64 65 66 67 69 68 67 65 65 67 69 69 68 68 70 71 72 71 69 69 67 63 57 56 56 57 60 67
2 12 15 15 23 26 32 28 28 23 24 34 41 49 54 61 63 76 78 75 64 63 62 61 62 56 54 54 58 60 62 62 62 63 65 67 65 61 66 67 67 66 65 66 64 63 68 69 68
3 14 15 18 21 24 40 27 25 20 20 27 36 44 50 57 54 67 77 75 70 65 57 55 45 38 35 29 28 29 31 33 39 41 42 44 50 56 56 59 64 66 68 60 63 67 67 58 41
8 13 11 16 18 18 29 25 21 21 21 34 37 52 52 54 58 66 72 78 77 72 48 35 24 20 19 20 22 24 25 27 30 30 31 32 34 37 40 40 40 40 38 38 38 39 40 41 40
15 16 17 18 24 23 21 19 20 22 23 42 45 57 51 52 53 58 63 65 52 45 28 21 20 19 21 21 20 19 20 23 25 32 36 39 40 39 38 38 40 41 42 44 42 40 35 32 32
17 13 20 20 25 23 20 16 20 20 18 44 50 55 53 50 48 52 56 56 32 22 21 20 21 21 21 19 16 14 17 28 34 38 41 40 37 36 34 37 40 44 43 38 26 17 15 15 17
18 20 21 18 26 24 19 13 17 17 16 26 46 57 54 55 49 46 48 45 22 21 22 23 24 24 22 21 16 14 17 24 34 35 32 35 49 47 49 48 38 37 36 32 27 24 22 22 20
14 15 16 15 21 19 13 10 15 14 14 21 30 50 61 57 48 41 41 45 46 46 50 54 42 44 50 44 26 16 18 21 26 26 55 70 60 66 56 63 68 70 68 63 48 43 41 30 26
14 15 15 14 15 13 9 9 10 12 19 28 28 48 54 51 45 40 42 46 49 55 58 65 64 57 60 53 52 38 40 45 53 60 80 75 71 73 64 72 70 71 66 70 74 71 56 56 55
11 15 10 8 10 9 8 8 10 13 17 42 47 51 52 50 42 41 41 45 50 57 62 67 68 51 59 56 54 63 65 66 70 70 74 74 76 75 77 76 73 71 65 69 69 70 62 64 55
7 10 8 9 6 6 9 9 11 13 20 35 50 51 49 48 42 41 40 44 50 51 57 60 54 52 70 51 55 66 68 68 63 74 74 73 76 78 76 76 71 72 65 69 66 63 64 68 63
7 7 7 8 7 6 7 6 8 11 15 19 40 44 45 45 42 40 40 43 47 50 57 59 47 50 61 60 61 62 66 67 72 72 74 64 70 75 70 60 64 55 61 61 64 66 62 59 65
7 8 7 7 10 9 7 7 8 10 13 16 29 39 40 40 40 35 36 40 42 49 54 54 47 24 34 51 51 56 63 66 63 74 69 66 36 40 40 45 46 52 62 62 61 59 54 52 54
6 7 7 8 10 10 10 10 10 10 10 18 21 33 32 34 34 33 34 36 40 46 48 47 52 55 36 53 49 32 50 62 65 67 68 58 46 35 40 40 43 50 63 63 60 55 60 63 64
9 13 12 12 11 12 11 14 12 9 10 14 16 24 27 29 31 33 34 32 36 41 40 45 52 60 56 41 47 47 61 59 62 62 60 52 41 37 38 39 46 63 65 62 58 52 55 67 67
11 15 19 14 14 13 14 21 12 11 11 12 13 13 23 27 30 32 30 31 31 34 37 44 56 63 69 55 54 55 54 54 50 57 56 54 58 61 60 58 47 44 45 44 44 46 55 68 70
15 20 20 16 12 15 15 19 14 12 13 13 12 13 14 24 28 31 31 33 36 38 43 55 62 62 74 80 63 59 56 55 49 57 57 58 63 60 60 54 46 50 55 58 66 65 72 74 74
17 18 18 20 12 10 13 17 16 13 13 14 18 24 38 37 42 40 43 43 44 45 48 55 61 67 74 65 65 63 57 55 57 56 55 56 56 54 53 52 53 57 60 63 64 63 65 66 65
11 14 17 17 14 13 15 18 18 17 19 33 37 40 44 46 47 46 46 44 44 48 47 49 56 66 65 66 64 58 58 53 50 49 50 55 58 61 60 63 68 67 64 62 58 56 51 48 52
13 17 25 18 16 15 16 18 22 20 23 28 33 38 43 47 45 43 48 49 49 49 50 47 48 57 54 50 51 53 52 46 50 52 63 64 65 68 70 69 67 64 57 55 57 58 61 50 40
25 28 26 23 20 18 19 22 25 22 23 25 28 33 39 46 50 50 48 48 44 43 43 40 40 41 43 47 49 52 52 54 57 59 63 62 63 65 62 57 58 57 55 56 58 58 47 51 76
31 27 26 25 28 34 21 35 28 27 28 30 30 32 39 43 48 52 56 54 50 52 53 55 55 54 54 54 55 55 54 56 62 61 57 58 60 59 57 57 59 60 60 49 45 61 81 94 94
28 23 26 27 32 32 33 32 30 27 40 41 38 36 38 41 44 50 50 50 53 53 53 55 57 59 59 59 60 62 64 65 66 66 64 63 64 63 65 67 65 56 51 73 82 92 93 83 77
22 27 32 34 38 55 42 37 35 31 38 41 38 37 39 41 44 45 47 52 54 57 58 61 60 61 59 57 61 64 65 66 67 69 70 72 76 80 78 71 62 66 74 84 90 79 79 76 80
28 39 65 58 73 62 48 52 59 42 34 37 42 39 39 41 42 44 47 51 54 56 60 59 61 62 62 58 57 61 68 74 76 77 77 76 76 76 74 58 60 67 77 73 76 81 78 80 74
32 32 77 60 81 65 36 52 48 37 35 35 37 39 40 41 41 41 44 47 50 51 50 51 52 54 57 58 62 66 66 64 66 68 71 70 70 70 67 74 75 73 72 80 86 86 76 68 65
30 48 27 42 63 75 51 43 38 37 41 34 37 37 39 40 40 41 44 45 45 48 52 53 55 56 57 60 62 61 54 52 49 55 61 67 73 74 78 75 70 78 73 75 81 78 69 70 74
30 25 49 66 67 62 49 48 61 43 40 37 36 38 38 39 39 42 43 46 49 51 53 54 53 53 58 60 57 52 46 43 47 60 67 69 74 78 77 80 81 84 89 83 89 91 83 82 79
36 39 38 42 62 76 82 53 35 40 42 39 38 38 41 40 40 39 42 46 50 53 54 54 53 54 56 51 46 43 40 59 63 64 66 69 60 74 84 84 88 91 89 84 84 92 85 84 83
26 33 38 77 58 69 83 60 33 48 45 41 39 36 38 43 43 43 45 49 53 56 55 54 54 55 48 48 45 50 59 61 64 65 71 63 77 71 82 92 88 81 79 80 77 68 66 67 66

GFSSGP_850_rhum_036.txt.gz
RH
4 3 12 16 21 25 27 21 35 40 52 54 54 59 70 68 62 79 93 86 69 61 67 66 64 65 63 62 60 60 65 67 67 66 67 68 68 67 66 64 63 62 60 58 58 58 58 66 70
2 12 13 15 24 30 40 28 48 45 50 53 52 57 65 78 88 99 95 80 70 60 65 68 67 64 56 52 55 52 52 49 50 54 52 51 49 50 51 54 56 61 65 64 60 60 61 61 59
3 13 13 18 24 28 44 25 27 38 45 42 49 54 56 77 86 92 76 72 68 64 67 62 52 47 42 32 26 26 26 30 32 30 32 33 34 35 37 38 36 36 37 37 38 38 38 39 38
8 12 12 17 19 17 31 27 31 37 46 48 51 54 56 65 72 76 78 70 61 63 58 46 35 24 19 19 21 22 25 27 28 29 30 32 34 34 31 30 31 34 36 38 38 39 38 36 36
13 15 18 18 25 25 24 23 24 36 48 52 48 56 57 65 69 81 76 77 69 52 37 24 20 20 20 19 18 18 20 20 22 28 34 37 34 28 29 29 31 34 37 36 32 21 13 11 13
16 14 20 27 38 25 19 21 31 48 55 52 52 54 57 74 71 73 66 56 56 31 21 21 22 20 18 16 13 11 17 25 32 37 38 29 23 21 24 25 28 29 30 27 23 20 20 19 18
18 21 21 24 41 34 16 18 33 49 50 54 53 56 56 60 57 58 56 34 24 20 22 23 21 20 19 17 12 13 18 27 31 30 23 22 31 40 37 38 49 51 49 44 36 30 34 26 22
16 17 17 24 44 28 14 16 15 29 40 50 45 64 55 52 53 52 42 21 22 25 26 23 31 36 34 26 16 13 14 18 20 29 41 45 40 44 59 63 67 64 56 61 65 61 44 46 41
15 19 20 16 18 15 11 14 22 28 37 41 42 53 52 47 47 44 45 47 54 59 59 56 51 36 42 50 48 46 40 40 42 40 47 46 53 55 60 64 69 62 62 63 62 57 48 45 48
16 20 16 12 13 11 9 13 16 36 48 58 56 56 51 44 42 42 46 51 56 60 62 59 61 36 55 55 64 66 66 63 64 55 57 67 57 73 72 70 67 62 56 60 62 52 49 49 48
12 11 9 9 8 8 11 12 13 38 54 53 58 55 51 43 41 42 44 45 43 52 58 57 60 48 63 56 61 67 69 66 62 70 72 72 56 70 71 70 63 56 46 48 49 45 44 50 49
9 8 8 9 8 8 10 9 11 14 37 39 47 51 50 43 41 40 43 47 53 56 57 59 51 46 58 62 62 64 67 66 67 74 75 72 66 58 65 63 44 40 43 46 50 54 57 54 52
10 8 8 10 9 6 6 9 12 15 29 43 48 48 46 44 42 39 41 45 53 53 54 58 44 27 30 49 58 61 60 66 67 69 76 76 66 50 60 44 43 46 50 54 58 59 58 52 52
7 8 8 10 10 10 11 12 11 16 32 45 45 40 38 39 36 37 40 43 50 51 53 57 49 39 38 25 37 41 58 66 67 66 65 66 63 47 39 42 47 52 57 60 57 55 58 54 51
8 11 11 12 11 11 12 14 13 17 31 45 43 41 38 36 35 33 36 40 42 47 49 49 50 52 48 38 38 42 47 57 60 59 64 64 58 44 39 47 41 44 51 52 52 53 57 59 62
15 17 19 14 14 13 13 19 13 14 27 39 41 40 38 40 38 36 37 37 39 46 46 53 60 59 59 44 55 60 52 58 58 55 58 58 57 56 54 58 59 55 49 51 51 54 56 61 68
19 20 20 16 15 16 15 20 15 10 14 19 21 29 35 37 38 40 36 37 42 50 55 59 65 59 61 62 56 63 58 59 57 57 59 59 59 60 67 64 61 58 53 54 59 59 66 67 65
23 18 22 20 15 14 17 19 17 15 21 39 46 52 50 46 53 52 49 46 48 51 58 63 61 62 62 70 65 70 66 62 58 61 62 65 67 62 60 62 64 62 61 63 65 56 53 49 45
13 18 23 17 14 14 19 21 22 38 43 52 53 55 56 56 58 59 58 59 59 66 67 74 81 84 82 87 82 72 58 52 52 57 61 62 64 67 68 68 68 68 69 64 58 55 50 45 44
20 26 25 20 18 15 22 23 27 35 44 48 52 53 52 53 51 52 54 57 56 59 59 57 54 53 53 53 55 56 56 56 60 67 67 66 66 65 66 66 65 62 59 58 57 55 54 45 35
34 31 27 24 22 21 24 26 33 33 40 47 51 48 45 41 43 46 46 50 51 50 48 46 50 52 51 51 52 52 54 53 53 57 61 61 59 58 60 61 60 61 63 61 56 48 35 46 75
37 27 26 26 30 29 24 38 30 34 42 43 53 51 49 46 44 43 44 44 43 44 43 42 47 54 56 54 47 41 39 48 57 58 59 60 60 60 62 64 65 68 57 36 46 70 89 86 81
29 23 26 27 34 36 38 38 35 43 49 49 51 55 53 50 46 45 47 48 49 50 50 51 49 55 56 56 58 56 57 60 65 67 68 69 70 72 71 69 68 52 42 49 68 76 81 77 80
24 29 42 40 45 55 41 45 42 48 48 50 49 50 49 46 45 47 50 50 52 54 56 57 55 56 54 55 55 51 54 54 62 70 73 74 72 71 71 71 65 66 67 61 62 73 85 83 80
32 48 64 60 74 67 46 60 56 48 40 46 50 46 45 44 44 47 49 51 54 57 58 56 56 56 55 54 54 57 62 66 68 65 62 64 64 67 69 71 75 77 71 65 68 71 78 80 68
31 46 73 58 74 58 47 64 56 46 43 42 42 42 43 43 45 45 46 49 52 53 52 52 51 52 55 56 58 61 62 58 54 51 48 57 68 74 78 81 81 75 76 82 78 79 78 75 74
30 48 34 56 64 70 57 49 40 44 42 41 48 49 55 52 41 42 47 50 51 52 52 53 54 56 57 57 58 59 54 48 43 35 44 64 70 75 59 64 79 85 87 91 88 86 82 84 82
30 28 48 65 62 61 55 57 66 53 49 43 45 45 46 45 46 46 48 50 53 54 55 54 54 53 55 57 56 50 47 41 38 41 56 62 66 67 48 79 88 80 80 85 90 92 88 90 89
38 41 43 49 64 76 82 58 45 53 50 49 48 44 46 46 45 48 54 56 56 56 55 55 54 55 56 52 50 52 47 38 34 38 47 58 69 66 40 61 74 86 76 77 78 76 72 70 72
28 36 48 75 49 75 83 62 45 50 41 41 41 50 48 50 53 57 57 57 57 58 59 59 57 55 53 55 48 44 40 40 42 39 43 61 69 64 44 60 69 74 75 72 67 64 61 64 68

GFSSGP_850_rhum_042.txt.gz
RH
4 4 15 20 22 28 29 23 36 47 64 65 67 62 79 96 79 80 92 74 74 73 72 73 69 66 61 58 59 61 64 65 66 66 63 56 46 43 42 47 49 48 51 55 56 55 52 48 47
3 8 18 17 21 25 44 32 53 65 67 62 64 68 80 95 95 99 94 79 77 73 72 69 66 63 60 60 59 60 61 60 57 44 31 29 29 32 33 33 31 30 30 29 31 32 32 32 35
5 15 15 21 27 26 40 44 55 58 53 53 55 64 71 95 100 87 91 82 76 73 73 71 69 64 62 57 54 49 40 29 25 27 27 28 30 30 27 24 26 30 32 33 34 32 28 24 26
8 15 14 19 19 19 32 46 50 54 49 43 41 61 62 90 83 84 80 80 79 78 78 75 70 58 52 37 27 24 22 23 27 24 26 29 30 22 23 24 27 29 31 29 21 16 14 15 15
15 16 20 21 27 26 23 44 51 53 54 43 35 58 64 75 83 78 76 82 82 80 79 70 56 37 22 20 21 22 23 23 21 25 30 29 20 18 20 23 24 25 25 24 22 22 22 22 22
18 16 24 45 45 38 30 40 53 54 54 56 60 70 89 74 79 78 82 83 82 74 65 50 27 22 20 18 17 17 15 19 24 30 28 20 19 26 33 39 40 42 43 36 34 36 37 34 32
17 22 30 50 42 37 26 43 50 52 55 57 63 84 99 84 81 73 81 83 77 61 36 24 22 19 16 13 11 13 18 24 28 26 22 31 34 42 45 42 40 38 42 43 40 33 34 36 39
18 22 29 48 43 39 23 44 44 39 53 53 52 93 98 90 82 80 80 80 59 31 25 21 19 18 15 12 11 14 18 24 22 28 40 38 46 47 46 46 39 36 40 46 41 39 37 37 37
16 20 48 53 49 40 30 44 40 44 55 55 55 70 71 81 79 76 76 55 31 25 22 24 27 24 18 14 13 14 16 20 31 43 47 50 53 51 49 46 47 47 48 47 46 41 38 38 40
20 24 25 40 38 39 32 25 33 54 58 60 56 61 73 70 62 55 47 28 25 22 25 40 42 26 34 35 32 27 34 42 42 53 61 56 50 52 54 49 53 54 52 52 51 49 48 49 49
18 19 17 28 26 23 28 28 33 56 61 54 51 66 73 64 54 36 25 21 18 32 45 42 46 36 47 49 49 49 50 52 52 56 62 64 58 53 56 57 54 56 48 51 54 56 57 60 61
13 13 13 24 33 33 18 21 50 42 33 37 40 50 63 58 43 26 20 20 32 44 41 50 46 35 50 54 59 61 58 57 58 62 63 68 71 68 59 56 60 56 51 51 51 55 59 63 65
10 10 12 18 26 21 16 16 41 25 36 44 47 56 55 50 45 40 28 31 43 46 46 54 51 40 52 56 64 68 65 64 70 72 64 65 66 67 64 59 59 51 50 50 51 54 56 58 56
9 12 13 10 10 11 13 15 18 28 45 48 50 53 52 49 46 41 38 35 43 47 50 58 62 58 66 68 67 65 65 68 71 72 77 76 78 80 75 59 54 50 51 53 54 56 59 55 53
11 14 14 14 12 14 13 14 17 40 50 47 52 54 57 54 48 42 39 38 44 48 55 61 67 60 70 70 68 64 62 60 68 76 75 77 85 84 72 62 63 65 62 60 62 61 58 57 58
16 18 17 14 13 15 13 17 14 47 52 61 58 54 52 52 49 45 44 42 43 48 56 64 70 74 73 70 70 66 66 68 69 71 69 74 82 82 70 68 70 70 72 71 68 65 65 65 67
22 22 20 17 16 16 15 18 21 60 59 62 61 59 58 53 50 48 44 44 44 46 53 63 72 78 74 71 65 80 74 75 74 72 63 67 73 71 74 73 77 77 72 78 70 68 67 64 58
20 19 19 19 17 17 19 31 54 46 56 58 57 58 57 56 54 52 49 48 46 47 52 67 79 81 75 84 96 96 87 71 65 65 66 67 70 72 72 70 70 67 64 62 59 59 60 61 59
18 18 19 20 18 20 35 49 62 62 60 67 70 68 68 64 67 60 60 59 62 68 80 90 85 84 93 91 90 71 70 65 55 48 48 55 61 64 63 60 58 60 61 63 68 68 60 44 29
24 25 24 23 25 24 44 54 57 59 69 75 78 80 78 79 82 85 87 89 87 91 85 71 56 60 63 68 64 58 52 42 36 40 41 43 44 46 53 62 67 71 73 71 60 48 38 29 24
35 29 28 27 25 29 34 40 55 58 67 71 74 73 70 67 66 67 67 62 58 47 40 40 41 46 47 44 41 38 36 39 46 50 51 53 55 60 69 74 76 72 59 54 49 45 41 39 29
32 28 27 29 27 33 30 41 48 55 65 68 69 67 68 66 65 60 48 42 40 41 42 43 40 40 37 37 40 41 45 50 53 55 58 63 66 69 70 62 57 55 54 54 48 37 36 38 43
31 31 32 34 42 38 42 43 46 57 66 68 68 67 62 55 51 48 47 48 43 46 48 50 50 50 47 48 51 52 53 56 59 62 65 71 63 58 55 54 56 59 60 44 36 50 58 63 69
30 41 49 55 53 57 48 54 52 66 60 63 63 63 56 56 52 49 51 49 49 54 56 56 58 59 56 57 57 56 57 58 61 63 58 49 43 40 42 51 54 57 51 31 48 62 68 78 78
41 47 63 62 67 68 52 59 54 47 53 58 62 59 56 50 50 51 53 56 60 62 63 62 61 61 58 58 59 59 59 58 53 49 43 30 32 36 41 47 54 59 56 32 45 59 69 75 84
40 44 71 58 78 58 53 65 58 55 50 48 50 48 48 52 54 56 61 64 66 66 67 63 60 59 58 60 58 57 53 48 43 42 40 35 41 46 47 52 58 60 60 44 68 77 81 82 81
38 49 42 72 68 70 64 54 51 60 61 57 54 52 53 52 56 60 62 64 65 65 59 59 58 57 58 57 55 53 50 49 47 48 47 48 51 54 59 63 69 63 60 79 92 85 77 78 70
28 39 53 64 55 48 60 61 69 66 67 62 59 58 52 56 58 54 58 62 58 56 56 56 56 57 56 54 56 56 52 52 54 54 53 56 58 61 69 74 66 66 59 82 84 76 74 71 66
40 44 55 62 67 74 79 62 51 62 62 63 55 52 57 58 56 57 59 57 58 57 56 59 59 57 57 59 54 54 56 56 57 53 55 58 61 70 80 76 68 71 70 77 76 80 69 66 62
35 40 45 60 49 80 81 67 55 58 53 51 58 61 63 61 61 61 60 60 60 56 49 45 47 56 56 55 56 57 62 60 60 57 63 64 66 62 81 79 79 89 89 79 90 75 68 63 66

GFSSGP_850_rhum_045.txt.gz
RH
12 4 9 20 21 18 19 21 30 55 64 69 67 58 70 81 71 73 100 81 74 76 74 72 76 79 77 76 73 68 65 64 67 70 66 60 47 41 41 40 40 42 43 52 54 47 39 34 32
7 5 16 18 17 15 29 27 55 64 74 70 64 75 73 93 97 98 98 85 77 75 74 74 71 71 74 73 70 67 65 65 67 59 33 25 28 33 35 33 27 28 30 34 35 35 35 33 31
6 12 17 17 21 19 32 49 62 64 68 63 62 67 76 89 99 98 87 75 75 75 73 72 70 69 69 68 65 61 62 58 38 26 23 26 30 30 24 25 29 32 33 32 27 19 14 13 13
7 15 14 16 17 17 29 51 54 52 55 53 49 50 69 71 83 68 98 79 74 72 72 70 72 71 69 62 57 47 35 27 25 21 25 31 25 24 24 28 32 30 25 20 18 20 20 20 19
14 16 16 18 30 27 22 48 54 50 59 48 43 56 72 70 72 82 85 80 72 73 74 75 74 67 59 43 33 27 25 23 20 24 31 24 24 23 25 26 26 26 25 25 27 28 28 26 26
19 17 19 34 39 32 41 53 44 56 53 54 54 65 91 88 74 78 78 76 77 75 78 72 63 48 33 26 25 23 18 17 24 33 26 22 24 29 35 40 40 42 40 43 37 38 37 35 34
19 18 32 41 38 38 40 55 45 49 45 54 56 84 100 100 88 73 75 82 82 80 69 53 34 27 23 19 18 15 19 25 31 23 23 32 40 45 42 40 42 43 41 37 34 36 37 37 34
18 19 44 44 39 38 38 46 39 43 53 60 62 76 97 96 81 80 82 84 80 66 42 26 22 20 16 15 16 20 25 30 24 32 39 43 45 45 42 43 41 43 45 42 40 38 37 36 38
18 18 40 41 38 44 42 42 36 51 56 58 59 76 77 79 78 81 85 82 66 35 24 21 20 19 16 14 15 20 24 22 35 42 48 48 49 44 44 46 48 46 45 47 45 40 40 42 43
18 18 28 35 38 56 47 40 42 51 57 58 59 73 80 78 81 77 76 62 32 23 21 25 29 25 18 15 17 20 23 32 46 52 53 47 48 52 54 50 53 54 51 49 46 47 46 47 49
19 18 18 32 30 32 43 33 44 53 53 54 68 83 82 76 70 71 60 30 18 19 24 40 40 38 42 45 36 40 52 51 55 61 62 62 60 61 56 62 64 61 53 49 49 52 53 55 58
16 14 18 28 31 27 28 29 49 47 40 45 52 66 68 63 48 48 28 19 18 26 40 51 46 52 60 64 65 66 67 65 67 69 71 73 76 77 72 68 66 65 54 51 51 54 58 59 60
14 12 12 16 32 23 24 28 37 40 38 40 52 53 55 55 44 32 21 19 23 40 48 58 49 55 62 67 71 73 73 73 76 77 81 85 87 86 80 73 67 66 55 52 52 54 56 59 60
11 13 13 15 26 21 16 18 30 29 42 43 48 57 62 54 42 27 21 21 31 47 56 62 62 60 70 69 71 73 76 76 72 73 72 71 76 81 88 76 63 57 54 58 59 59 64 62 57
12 15 15 14 14 14 14 16 17 37 50 51 66 68 67 57 47 38 29 28 39 50 58 64 69 63 74 75 78 72 72 68 60 66 68 68 71 78 84 78 68 66 68 71 69 71 69 67 66
16 17 17 15 14 16 14 18 20 65 56 59 64 69 68 60 53 50 49 47 47 50 56 63 74 79 81 75 70 63 62 57 65 71 72 69 70 73 85 81 79 79 79 77 76 75 74 68 65
20 18 19 18 18 16 15 19 36 69 69 66 64 59 59 60 56 53 51 50 49 50 53 59 72 86 82 74 66 77 72 81 87 75 70 69 70 74 78 77 74 72 70 67 63 60 60 60 59
22 21 21 20 18 20 22 35 45 59 64 68 69 64 61 58 54 54 52 50 50 50 53 63 78 99 90 76 83 70 95 75 66 56 50 50 51 56 60 61 61 60 62 66 67 67 64 53 40
19 19 19 20 20 32 40 46 54 63 67 71 74 68 64 64 63 59 55 54 58 65 76 80 79 83 80 93 83 72 68 50 38 40 40 42 45 46 47 50 57 65 69 71 67 50 39 35 31
22 24 26 26 27 29 42 52 57 61 72 74 78 78 72 76 80 76 76 82 84 79 84 79 68 84 79 67 65 62 49 38 44 47 51 54 54 54 56 61 66 70 65 52 44 40 36 31 27
32 29 28 26 27 30 33 36 50 64 73 79 82 82 82 80 78 74 72 63 49 40 39 42 42 40 46 54 52 43 40 45 51 53 56 58 59 63 64 62 56 52 44 41 38 34 30 30 33
35 29 29 27 24 28 31 26 41 58 68 72 77 78 76 72 70 66 45 40 41 42 36 35 39 42 44 45 46 48 49 50 55 58 61 64 70 62 54 48 41 38 36 36 37 34 29 36 76
35 33 34 34 36 32 39 29 33 58 70 69 70 73 69 66 58 45 42 45 47 48 48 48 46 46 48 49 52 54 55 58 62 67 65 58 51 42 32 31 31 31 34 45 47 34 35 49 64
39 38 42 45 43 45 46 44 40 51 54 63 64 69 62 54 49 48 48 47 48 51 53 54 57 57 58 59 58 58 61 61 58 53 49 43 33 31 38 44 45 48 52 56 56 45 51 63 69
35 39 46 47 53 45 49 53 41 43 46 53 58 62 56 51 51 52 53 55 56 57 60 62 62 64 61 59 60 59 57 53 50 44 42 42 37 39 48 52 58 63 67 64 57 54 68 82 83
41 37 58 54 59 52 48 53 42 47 51 53 57 54 51 54 54 57 57 59 61 68 66 66 64 61 60 60 57 55 54 53 50 48 48 48 51 54 54 57 64 70 70 64 62 58 69 75 77
43 45 40 61 65 59 47 47 42 52 56 55 54 60 59 54 58 60 64 66 69 71 70 63 61 60 58 56 54 56 55 53 54 56 55 53 55 58 61 66 76 76 72 63 65 66 70 75 74
33 39 49 51 57 42 41 50 41 56 55 57 56 57 62 60 60 62 65 72 71 66 62 60 58 57 56 55 58 54 53 56 58 58 59 55 58 60 66 69 78 80 71 75 76 78 78 86 78
39 44 53 50 52 44 48 31 47 48 50 54 52 60 62 62 63 64 67 64 61 59 58 59 57 53 55 57 55 54 56 60 60 49 42 61 64 62 59 55 73 82 77 84 83 88 96 78 74
36 40 45 49 47 68 60 40 50 55 52 57 59 58 60 63 64 63 61 61 61 59 52 47 49 51 44 44 50 54 43 32 26 28 39 40 40 42 48 56 80 88 91 96 99 98 78 85 68

GFSSGP_850_rhum_051.txt.gz
RH
17 17 16 12 14 10 12 11 11 40 39 39 37 37 37 56 68 69 76 77 83 96 89 65 55 53 54 55 57 59 61 66 69 71 69 68 66 57 47 42 39 37 35 35 31 29 29 28 26
19 14 10 12 12 12 12 10 15 45 41 44 50 46 48 63 81 91 90 85 89 99 91 74 68 62 60 58 60 63 67 71 73 69 63 48 40 39 36 34 26 27 30 30 28 21 13 11 11
16 12 10 8 10 9 10 12 32 37 41 40 43 50 58 71 91 98 96 95 93 98 98 72 75 72 68 67 69 69 73 76 73 59 38 34 35 34 25 26 29 29 27 18 14 15 18 18 18
12 7 10 12 9 6 10 36 32 36 37 41 46 54 67 81 85 98 91 92 96 93 90 75 79 79 76 74 73 75 79 76 54 37 36 34 28 23 26 28 28 22 20 20 20 22 24 26 27
11 9 10 11 10 8 11 34 32 37 32 34 33 53 79 63 58 79 97 95 89 91 89 75 82 80 77 78 77 79 76 54 38 37 36 26 26 27 28 26 25 26 28 32 31 29 28 26 26
8 8 11 12 10 9 13 26 38 30 32 37 33 47 59 68 81 73 61 70 90 88 93 80 77 78 79 79 79 72 53 40 34 36 28 26 28 29 34 39 37 39 35 32 31 31 29 26 25
9 9 11 11 14 18 17 36 36 32 48 53 32 40 75 79 91 97 88 77 82 97 96 85 79 81 80 77 63 52 40 30 35 31 24 29 39 43 39 40 41 38 36 36 36 32 30 30 35
8 9 11 13 20 22 27 33 33 36 37 41 42 40 62 77 85 71 60 83 93 96 97 95 94 85 81 58 49 37 29 34 35 26 37 50 49 47 47 50 47 48 48 43 39 35 33 36 38
11 12 12 31 41 26 34 35 54 38 31 38 38 41 44 92 99 88 95 95 90 86 81 76 76 84 92 85 28 30 34 38 31 43 52 68 83 82 80 53 51 49 47 48 46 42 40 41 63
9 11 16 18 38 67 37 28 30 29 31 33 44 69 88 92 90 93 91 89 88 81 75 76 88 87 76 67 38 74 42 48 76 82 73 83 88 86 81 61 60 59 55 50 53 49 50 66 63
9 12 14 14 29 27 23 30 34 31 25 28 32 71 81 72 77 81 84 72 76 64 59 73 78 70 66 64 72 70 70 84 90 95 93 81 90 86 83 81 79 84 77 76 71 71 66 69 74
12 11 10 20 37 19 23 26 28 31 48 23 48 56 67 60 64 65 65 62 49 54 62 59 38 29 69 67 60 65 66 80 79 84 73 94 90 80 78 80 79 83 78 78 73 70 86 85 82
11 13 21 38 18 21 23 21 43 25 24 27 46 49 55 53 56 56 52 41 39 47 60 74 75 46 61 79 86 84 84 83 84 90 87 81 80 81 83 81 80 60 83 79 80 79 79 77 75
12 17 21 18 21 21 22 23 23 26 27 40 48 47 47 45 46 42 34 34 39 48 66 77 78 82 88 94 95 93 93 88 93 95 80 80 78 74 75 72 90 91 89 84 82 81 82 81 76
12 20 17 15 20 19 20 20 20 27 30 36 38 38 38 35 35 33 32 36 39 50 68 80 79 89 89 96 97 95 100 82 61 59 63 74 77 74 75 84 86 83 81 79 79 84 78 76 70
16 15 18 13 14 18 16 18 17 28 30 31 32 34 34 34 30 30 32 33 38 49 68 82 85 92 95 97 94 90 63 53 52 69 71 72 72 68 66 62 62 66 64 67 74 75 72 72 68
12 18 16 14 13 13 15 15 18 25 27 31 32 34 36 35 32 40 46 41 39 46 67 86 98 94 81 78 76 71 60 69 65 80 74 54 42 42 44 60 62 61 72 76 80 76 71 66 61
13 13 13 14 14 11 11 14 22 26 22 29 33 35 37 41 43 54 55 55 49 52 65 92 98 82 86 83 82 81 77 65 66 66 42 45 55 55 69 77 81 71 76 79 81 79 67 60 54
9 9 10 9 8 9 10 15 17 24 25 31 34 38 40 42 53 61 65 66 60 71 82 95 85 83 88 87 90 84 68 79 68 68 73 75 73 80 81 71 78 78 69 75 75 69 60 54 51
11 12 11 10 10 13 12 16 19 30 30 30 32 36 40 47 60 70 76 81 83 89 96 97 98 95 97 81 81 81 75 66 58 68 72 74 63 56 70 58 72 74 70 62 63 68 63 56 50
12 14 16 14 14 12 14 18 23 24 27 31 32 35 41 50 58 68 75 88 93 95 99 97 88 88 75 67 67 67 63 64 62 69 70 77 60 56 54 64 71 69 62 56 65 65 65 61 57
17 15 13 14 17 18 14 19 23 26 31 34 38 40 44 49 58 64 70 78 82 79 72 65 67 69 67 62 58 59 50 52 61 67 70 73 77 79 74 70 66 69 68 69 67 62 74 68 60
23 16 15 13 14 21 16 14 25 26 30 33 38 42 45 50 53 51 54 58 60 67 66 66 66 63 68 65 62 63 61 67 69 72 76 70 74 69 72 64 64 70 69 67 71 74 72 69 67
18 18 18 16 16 23 14 16 17 23 20 27 33 39 45 50 48 42 43 48 59 68 68 66 62 65 69 70 74 72 74 69 63 59 62 56 51 48 50 56 63 64 65 68 70 71 81 77 78
17 19 30 30 24 25 20 21 14 21 21 21 33 40 47 51 42 39 43 47 61 67 70 67 62 66 72 76 77 74 69 61 62 61 56 54 46 46 50 58 62 62 63 68 76 84 83 82 86
19 18 24 28 24 19 23 17 19 24 24 27 34 40 47 46 40 40 43 46 55 62 66 63 64 66 73 73 69 66 63 59 60 60 58 57 57 59 64 66 65 65 67 70 75 83 91 93 86
21 22 20 24 30 34 16 17 27 25 26 29 34 39 44 40 41 41 45 50 55 62 66 66 65 66 67 68 58 64 63 61 66 62 65 62 65 57 55 63 65 64 63 63 68 72 87 86 87
21 20 26 24 38 29 14 14 18 26 27 28 31 38 38 38 41 43 47 54 56 63 68 74 70 64 64 62 56 61 63 64 62 63 58 58 55 53 50 51 52 54 58 59 61 70 84 95 90
25 23 21 22 25 31 19 14 16 17 22 25 28 34 35 38 41 46 50 57 64 69 76 75 64 59 60 55 71 66 63 53 50 51 50 49 53 51 53 56 57 62 65 63 66 79 85 80 82
20 19 21 32 26 26 33 21 16 18 20 23 25 30 33 38 42 48 55 62 66 68 67 61 61 67 62 73 54 48 47 47 46 42 46 50 54 59 62 64 66 68 64 65 74 82 83 88 93

GFSSGP_850_rhum_054.txt.gz
RH
10 12 14 16 14 14 14 12 9 17 28 36 33 39 60 67 71 89 85 80 89 68 44 46 49 59 68 64 54 55 62 66 68 69 69 68 61 52 47 43 38 28 25 26 27 25 18 11 10
15 24 14 9 14 14 12 12 32 58 72 59 55 40 50 79 78 92 95 92 85 70 51 47 50 57 59 57 59 61 65 70 72 70 64 50 43 42 38 27 24 25 26 24 16 12 13 16 16
13 15 10 9 11 15 11 44 29 59 56 58 51 52 60 82 93 99 90 95 87 72 64 55 56 59 62 61 64 65 68 72 72 58 38 37 37 30 22 25 26 24 18 15 17 18 21 24 24
15 11 8 12 14 9 7 50 58 71 44 43 46 57 68 84 81 93 91 94 90 97 73 68 66 66 66 69 68 69 72 73 53 34 36 35 26 21 24 25 22 19 20 22 24 25 25 25 24
11 10 8 10 11 9 8 32 47 48 31 33 42 54 62 99 84 82 91 98 97 88 84 81 77 78 75 73 72 75 77 56 36 33 33 26 24 26 25 23 23 26 29 28 27 27 26 25 25
10 8 12 14 11 10 8 48 52 36 31 30 35 48 61 64 91 86 84 77 96 84 72 85 85 83 79 77 79 76 58 42 35 33 27 24 26 28 33 34 33 32 28 30 30 28 26 27 33
9 10 11 12 12 14 23 48 58 53 41 41 33 44 59 81 82 69 74 83 94 73 87 85 87 87 80 82 73 56 46 35 35 31 23 28 40 42 41 39 38 36 33 34 31 29 28 32 34
8 8 11 11 11 52 58 63 65 40 41 38 46 55 56 72 85 83 82 82 75 69 85 85 81 81 77 65 55 44 33 36 36 24 41 50 46 46 43 45 44 44 40 39 37 34 33 35 44
8 10 14 13 25 44 55 75 70 57 45 38 46 43 53 78 69 61 71 83 88 76 78 74 74 59 49 44 36 34 37 38 27 41 59 76 80 79 73 57 47 45 42 41 42 41 40 52 66
9 12 12 15 32 47 61 64 66 57 69 55 68 54 77 86 70 50 45 72 87 82 81 87 84 88 74 43 36 40 39 39 53 53 81 80 90 89 67 72 74 78 68 67 72 66 64 74 74
9 12 11 36 39 44 53 66 65 26 37 23 57 76 86 94 85 57 64 86 60 78 76 80 76 75 69 64 73 48 73 89 90 72 92 84 73 83 87 85 85 75 79 80 72 72 77 75 69
10 9 15 37 41 39 42 50 31 28 28 36 60 66 66 75 74 97 85 82 70 63 72 62 51 66 65 56 65 64 70 84 83 77 75 80 78 78 70 74 78 86 82 79 78 77 76 79 79
10 11 29 32 28 28 22 36 34 38 28 44 55 52 54 62 67 74 77 55 54 62 54 40 30 48 52 68 67 74 73 82 88 84 82 77 78 80 78 68 67 75 72 81 79 78 79 76 76
12 14 27 27 30 33 29 40 37 36 37 36 38 47 48 53 48 80 43 41 46 57 74 68 47 58 80 79 82 80 81 87 83 73 73 69 72 73 86 85 82 87 77 77 74 74 74 76 75
14 20 19 18 28 22 29 34 31 28 36 34 33 36 34 37 49 35 33 36 43 60 74 76 83 88 86 82 88 85 83 77 66 57 61 64 63 72 74 73 75 75 65 65 64 61 64 71 71
16 19 21 12 14 19 25 35 23 28 32 32 32 32 33 34 32 31 33 37 45 62 77 76 82 89 87 91 76 75 71 62 54 54 57 69 63 61 54 43 41 43 51 72 71 66 57 54 55
18 30 21 17 11 17 21 23 22 26 26 28 30 31 30 29 30 31 32 36 44 59 76 78 82 81 83 74 68 70 60 54 58 54 53 68 39 42 55 54 56 55 71 72 74 62 50 50 49
21 20 17 16 12 14 18 16 18 23 27 29 29 31 32 30 31 38 39 37 38 54 73 79 83 60 81 79 79 78 79 76 72 64 60 38 42 55 61 72 74 73 74 72 68 65 54 49 52
14 15 16 15 10 12 11 15 18 18 22 30 29 30 33 34 42 50 51 52 49 50 67 81 79 76 82 87 86 86 76 79 69 67 56 46 65 67 68 65 67 69 68 64 64 64 59 56 55
11 13 10 9 8 10 10 14 13 17 17 24 28 31 35 38 50 57 62 64 59 66 75 64 83 82 83 84 90 93 86 68 61 64 55 64 61 64 73 66 62 57 45 42 56 58 53 58 62
15 23 24 14 10 10 13 13 18 18 19 22 26 32 37 43 54 64 72 79 80 79 82 82 85 80 80 79 75 73 63 63 65 62 67 72 72 77 72 65 56 39 37 51 60 64 68 66 61
28 21 22 17 21 17 20 32 34 21 24 25 29 30 34 41 50 61 73 83 81 84 86 84 83 79 75 67 64 65 61 59 58 66 75 76 76 74 66 60 46 54 67 70 68 68 64 64 73
30 19 23 13 13 25 30 34 35 25 25 28 28 32 35 40 49 57 72 69 81 83 81 73 68 68 66 59 58 59 57 61 66 69 72 71 65 62 59 60 64 64 69 69 66 68 76 76 74
20 25 19 16 19 42 32 35 29 28 24 27 29 35 39 46 51 54 61 66 68 68 65 66 64 63 66 65 63 63 64 66 68 65 60 58 56 52 46 50 56 62 62 61 63 66 69 73 68
18 21 33 76 66 35 13 26 30 34 36 32 30 35 41 44 47 46 52 55 64 66 65 64 62 65 70 72 75 76 74 70 60 58 61 58 56 49 49 53 59 64 65 64 64 68 74 79 60
35 17 53 51 68 34 29 21 24 20 20 24 29 34 42 46 43 41 44 51 63 69 70 62 62 65 73 78 76 72 66 60 60 59 61 62 60 60 62 64 65 65 66 66 65 64 66 76 76
21 23 21 23 23 40 22 13 27 22 22 24 31 36 43 46 42 38 42 48 57 64 66 63 62 65 72 73 70 67 63 62 69 65 64 63 64 63 54 50 49 54 52 53 56 60 64 72 83
18 15 29 24 40 41 18 16 28 29 25 25 31 36 42 44 40 39 41 46 53 59 64 67 63 63 68 69 66 60 70 64 65 63 59 56 56 53 53 52 53 55 57 62 64 62 66 75 70
23 24 19 16 28 45 51 25 23 21 22 26 27 33 39 40 39 40 41 47 53 59 62 71 70 65 65 63 59 68 70 74 56 51 51 50 50 52 55 57 61 63 66 66 65 68 74 76 84
17 20 19 46 30 33 44 33 15 17 21 21 21 29 35 36 38 40 43 50 56 66 73 77 69 62 61 61 70 71 53 48 48 47 43 46 50 55 59 65 68 71 70 73 73 81 85 84 80

GFSSGP_850_rhum_057.txt.gz
RH
8 10 14 20 26 29 28 22 15 55 75 63 62 69 86 89 90 91 100 85 78 58 46 46 58 72 80 67 51 56 63 64 64 59 51 44 40 36 35 29 22 23 24 21 13 10 13 16 15
7 23 29 22 22 28 24 22 72 74 62 54 56 51 71 88 94 100 100 94 74 62 49 51 58 70 73 54 58 66 66 67 64 56 38 32 33 33 23 23 24 23 17 14 16 18 21 22 21
10 21 20 18 20 24 23 67 70 60 50 47 53 65 78 94 93 97 99 100 78 58 53 64 64 67 58 60 68 71 70 69 62 38 30 32 31 22 24 24 22 17 18 20 23 24 24 22 21
12 14 13 15 18 15 14 73 62 62 57 47 50 72 75 91 95 92 100 100 69 59 54 58 61 62 64 68 74 73 71 67 39 28 30 28 21 24 25 22 20 23 26 25 25 24 22 25 28
18 16 17 15 15 17 26 51 52 58 61 53 51 62 88 95 95 98 99 100 82 68 66 63 67 67 68 76 76 76 67 41 30 31 28 20 22 25 23 24 28 28 25 27 24 23 26 32 33
22 12 20 20 15 64 61 62 56 49 41 47 56 63 81 100 100 99 85 91 88 79 92 87 81 76 77 79 77 69 42 31 27 28 20 21 24 28 31 31 29 28 29 28 26 25 29 33 35
17 18 20 16 14 68 65 61 69 53 40 40 49 68 81 95 97 96 92 95 100 91 87 94 91 85 80 76 69 43 32 26 31 22 22 29 32 33 34 33 33 32 31 30 29 28 31 34 48
14 15 16 14 25 82 67 66 70 71 54 44 60 68 90 73 82 82 84 86 80 75 65 89 86 79 69 57 46 35 24 29 26 26 39 37 40 38 40 35 36 35 35 35 34 34 36 54 66
13 17 17 16 38 66 62 62 56 55 51 55 74 71 65 86 84 79 80 83 87 88 75 85 86 75 49 39 34 25 29 31 27 43 52 54 66 71 59 52 64 63 62 54 62 58 64 69 68
13 20 17 33 44 58 58 60 58 59 46 69 56 73 76 74 86 89 81 78 78 70 68 83 67 51 39 38 25 29 33 31 48 82 80 64 79 70 80 75 80 79 80 78 70 72 71 69 71
12 17 27 42 42 51 58 58 64 62 60 56 50 74 68 75 82 77 85 86 65 68 89 80 74 63 42 21 28 38 52 57 68 82 87 85 88 80 88 88 88 90 86 81 80 78 83 80 77
14 23 39 44 43 49 56 38 52 55 46 44 52 52 70 75 75 80 75 71 90 81 71 82 76 74 60 43 58 65 69 73 82 96 90 93 79 88 88 91 88 86 85 84 82 81 81 79 78
12 33 34 34 35 39 37 39 34 40 54 63 65 72 70 64 65 74 74 74 86 81 73 77 61 62 62 71 67 82 89 92 88 82 73 78 79 76 78 76 70 74 76 70 78 78 78 75 73
16 28 32 27 29 34 29 32 35 52 38 63 68 67 68 74 68 72 81 76 74 64 40 41 42 56 68 69 67 73 83 87 82 77 81 71 66 66 67 66 71 76 77 78 72 67 54 55 58
19 24 30 31 29 31 34 45 44 40 47 60 56 54 60 73 48 46 69 68 55 53 50 32 45 72 77 69 74 76 75 73 76 71 62 56 62 62 65 72 74 69 51 38 38 42 46 44 39
21 22 27 29 26 31 28 39 38 35 36 42 41 50 62 68 53 54 56 53 61 66 55 55 82 80 77 75 76 72 73 69 63 57 55 58 58 56 51 40 38 41 41 39 47 46 38 33 31
23 32 26 26 29 31 32 32 33 32 34 36 34 37 46 49 47 47 45 48 57 60 66 76 87 88 81 73 69 71 73 67 60 57 59 59 43 40 41 43 52 56 59 54 52 46 38 33 29
28 29 25 25 40 32 31 30 35 31 31 33 31 31 32 32 33 35 39 46 55 70 71 80 82 79 81 69 70 68 69 72 70 63 64 54 40 47 50 57 61 68 65 63 50 41 34 40 45
21 22 24 20 17 24 25 30 32 31 35 36 37 31 29 32 32 33 38 46 57 68 74 74 75 77 80 82 73 79 78 82 83 81 64 52 45 56 59 60 61 59 58 54 38 43 45 42 38
23 23 27 18 15 16 21 22 24 42 40 23 30 40 32 41 43 44 44 49 61 60 72 79 76 77 78 80 81 73 73 71 70 68 61 55 60 56 62 70 64 58 48 33 31 35 38 43 54
25 29 22 24 22 11 13 23 29 24 42 33 28 38 33 43 49 50 56 54 65 63 75 74 80 82 77 75 81 82 77 67 68 63 58 59 64 69 68 63 55 45 38 36 37 45 56 65 65
32 24 26 26 30 29 24 50 33 30 26 45 43 42 41 48 53 58 66 70 78 79 85 82 81 70 76 81 82 67 59 61 62 61 66 70 73 69 64 53 46 43 46 58 66 67 67 66 69
31 24 27 28 30 31 32 49 39 29 32 32 34 35 42 46 52 64 70 72 76 80 80 79 64 76 81 73 64 68 62 63 62 68 73 76 70 59 56 51 50 58 64 67 64 65 67 68 70
23 25 30 43 40 47 32 41 43 36 31 34 32 33 38 48 56 64 69 72 67 75 81 76 72 78 66 61 62 62 65 65 69 73 71 66 58 56 52 48 55 60 62 63 64 63 63 68 68
28 32 57 67 74 62 31 40 38 31 41 36 40 36 45 50 57 66 71 74 70 78 82 80 76 67 66 62 63 62 67 68 69 67 62 58 56 55 55 51 52 56 60 60 56 66 68 66 66
32 40 60 62 78 57 43 47 38 30 29 29 36 36 44 52 54 60 70 73 75 70 67 67 64 64 66 66 67 68 72 73 67 57 58 60 61 62 59 51 56 57 51 50 40 50 52 58 66
45 62 40 43 45 50 42 37 34 29 34 44 40 41 46 49 48 53 59 61 62 66 67 66 63 63 66 68 72 73 73 64 58 65 67 81 68 55 58 62 50 35 33 41 46 55 60 64 70
29 37 42 49 38 42 37 31 49 37 35 42 43 46 46 48 44 46 50 51 52 55 56 62 63 64 69 76 77 74 68 63 67 73 70 65 52 54 52 42 41 47 44 56 65 66 67 74 77
28 29 26 31 51 55 66 42 35 38 37 40 44 42 45 48 44 41 45 48 52 58 60 66 64 64 68 72 73 69 61 69 65 60 60 50 51 49 48 50 52 53 59 66 69 70 72 78 85
21 25 40 59 38 50 62 50 19 28 32 28 36 39 43 46 45 40 42 48 55 60 65 68 68 66 66 68 67 62 62 53 54 53 48 44 46 48 50 53 58 55 66 71 70 72 63 56 67

GFSSGP_850_rhum_063.txt.gz
RH
15 13 13 20 27 37 34 28 22 22 55 69 74 75 77 99 75 73 95 73 64 70 85 81 71 67 58 43 44 52 60 58 52 37 25 19 17 13 14 17 14 14 18 21 22 22 50 47 55
11 22 28 24 28 28 25 22 51 58 63 76 69 71 86 92 90 99 99 83 60 75 90 83 76 67 52 45 53 62 60 58 39 24 20 18 14 16 16 14 16 20 21 20 21 24 46 51 50
15 16 25 30 28 24 22 35 67 63 58 64 73 85 89 98 94 100 97 74 67 79 84 82 79 69 50 54 58 67 64 47 25 22 18 14 18 17 16 18 21 22 21 22 23 25 35 48 48
17 16 17 21 20 17 41 62 63 64 55 58 70 87 87 97 96 98 93 69 100 93 92 87 82 68 53 61 70 68 61 29 24 22 14 18 18 18 20 22 23 22 22 28 29 39 39 47 49
20 18 26 19 15 34 70 69 60 61 64 60 63 92 96 98 89 92 79 82 84 85 90 90 86 64 69 71 74 71 42 23 25 17 17 20 20 23 24 24 24 23 26 31 33 35 39 43 53
23 17 24 23 18 67 64 66 67 62 57 59 69 86 98 100 93 95 84 74 80 78 93 98 87 79 83 75 69 45 26 23 21 18 22 22 26 27 26 27 27 26 27 32 34 36 39 49 44
25 30 26 19 18 39 65 60 63 61 56 65 63 94 98 99 100 100 90 87 93 93 99 99 83 88 89 77 61 38 26 25 17 20 24 30 32 32 32 33 32 32 31 31 33 39 52 46 57
18 23 19 19 18 26 64 63 63 66 56 68 67 91 95 100 100 98 99 88 99 99 95 97 97 84 79 56 47 27 23 22 21 27 33 36 38 38 38 38 39 40 42 38 37 40 52 57 61
18 26 27 21 28 37 64 67 72 66 63 62 71 72 83 93 99 100 99 98 99 99 100 99 77 66 72 61 35 27 30 25 33 35 40 47 47 57 59 66 59 60 56 58 55 52 56 61 63
19 26 20 18 42 54 61 66 64 61 60 75 98 90 100 98 98 98 100 96 90 99 92 80 94 77 82 42 30 29 25 32 38 59 59 73 70 80 78 77 76 72 67 63 63 60 62 64 63
18 22 18 43 44 52 58 63 58 63 62 61 97 98 97 99 100 98 100 100 95 98 85 84 72 53 48 41 34 33 32 43 59 68 82 79 77 82 81 82 78 77 73 69 69 71 74 74 76
16 15 25 37 49 49 59 62 64 58 58 56 69 85 95 99 99 99 98 99 85 71 65 76 78 76 65 39 35 31 46 61 75 76 80 79 68 73 83 82 79 80 75 76 80 81 81 82 77
17 41 44 45 46 49 45 50 49 61 75 59 85 85 93 91 85 75 76 68 73 65 59 70 71 85 50 40 36 40 67 78 76 80 81 79 75 80 82 79 82 79 83 85 84 85 84 80 67
34 40 39 42 42 44 41 48 46 72 83 89 78 78 83 83 70 64 70 81 66 67 81 88 75 54 35 38 42 44 53 62 77 78 85 79 83 82 79 80 80 80 83 85 81 59 42 36 34
34 41 42 41 38 32 36 45 51 60 76 70 68 50 82 74 56 44 61 70 75 74 84 86 76 55 41 53 48 60 59 61 62 75 81 82 80 73 72 75 79 83 74 45 39 36 34 26 21
28 36 46 35 31 31 31 43 49 52 73 82 74 49 93 72 58 54 48 54 62 75 79 82 80 62 59 65 64 65 68 78 89 92 83 66 62 63 68 76 74 45 41 40 42 38 30 20 18
29 35 39 40 31 30 32 39 53 54 72 82 88 79 76 92 73 59 48 59 66 75 79 85 72 63 68 64 65 68 83 96 95 81 64 59 58 63 64 47 42 42 44 45 44 34 24 23 25
34 32 31 36 29 35 34 34 63 56 70 77 90 86 78 68 54 59 52 62 71 81 82 80 71 60 63 70 74 83 90 90 79 67 65 62 51 43 42 45 47 49 49 47 37 31 32 30 32
32 35 35 30 28 38 42 37 44 64 64 72 84 88 78 56 40 56 62 67 73 82 78 67 43 53 66 77 84 90 87 83 73 73 68 55 50 48 50 51 55 57 52 45 40 39 37 37 43
34 39 40 35 29 34 40 38 33 56 56 64 71 84 71 62 55 48 62 73 74 72 66 53 41 50 75 82 83 80 84 81 79 79 72 67 59 55 53 61 63 57 53 50 47 42 40 44 48
35 38 41 39 26 28 30 34 39 53 49 54 67 57 60 45 47 43 53 71 69 70 65 44 41 56 65 81 84 86 82 80 86 82 77 68 61 53 59 68 59 55 54 56 54 48 52 55 60
40 32 37 34 26 36 24 41 39 48 50 50 56 62 59 50 43 43 53 63 57 55 66 63 55 61 74 89 92 90 79 80 77 69 66 59 60 69 74 62 57 57 56 57 57 56 60 64 65
36 31 30 29 35 35 35 36 33 36 52 48 46 51 50 51 48 48 44 46 50 54 62 69 69 74 80 88 99 92 75 60 57 62 63 67 74 79 72 63 64 58 57 60 58 61 64 64 58
28 32 40 47 47 46 36 39 40 42 35 40 40 42 44 44 44 43 45 44 46 50 63 73 77 84 91 94 98 88 68 55 58 61 70 76 81 80 76 69 60 65 82 67 62 61 54 39 33
32 40 52 54 62 50 40 44 42 30 29 33 38 39 42 43 49 44 45 49 50 60 72 74 82 88 93 97 86 80 78 63 59 60 69 78 82 78 80 60 78 88 65 61 58 42 26 23 25
42 38 57 44 55 46 41 49 38 30 31 33 25 34 42 53 54 57 58 63 65 67 62 69 77 83 82 85 84 77 71 69 66 71 76 82 72 77 72 81 80 63 60 49 36 29 24 25 39
40 46 43 56 56 61 48 37 31 36 42 43 58 44 50 52 53 51 58 56 63 61 64 67 72 78 84 83 76 72 81 75 71 80 76 77 83 84 84 60 55 52 44 40 38 33 30 44 56
31 42 54 66 47 43 41 40 40 34 37 50 55 62 51 54 61 57 58 58 63 67 62 70 69 75 80 73 70 71 76 73 74 75 71 83 85 78 52 51 49 45 43 42 34 39 38 55 61
41 42 40 49 54 54 61 47 37 38 38 44 53 48 50 58 61 58 59 63 65 64 65 72 77 78 81 69 67 70 72 73 69 70 80 86 84 63 53 46 44 44 37 33 46 41 47 62 73
31 36 42 60 42 61 63 51 27 38 38 39 36 41 51 54 52 54 59 69 70 68 72 70 72 74 73 69 68 69 73 71 68 79 88 64 56 48 45 45 44 32 39 48 46 51 61 73 79

GFSSGP_850_rhum_066.txt.gz
RH
11 12 15 20 28 36 34 28 25 22 34 80 79 84 79 95 77 77 96 87 59 77 88 79 69 62 50 38 37 46 49 43 37 37 35 29 20 16 17 12 16 19 20 24 36 41 51 52 56
10 24 27 22 29 30 24 22 48 72 66 76 74 78 87 95 91 99 98 83 72 91 92 80 72 64 47 38 45 49 51 36 29 22 21 19 17 18 13 18 21 22 22 27 47 49 49 50 55
9 22 25 30 32 25 22 17 64 64 64 68 79 86 92 97 100 99 95 86 86 99 97 81 75 64 44 45 54 55 48 26 22 19 18 18 19 15 19 22 21 22 24 30 41 47 45 41 39
14 20 17 26 22 18 19 58 75 67 64 64 73 88 88 85 94 97 94 95 99 97 97 82 77 61 46 57 63 63 34 19 20 18 18 20 17 20 24 23 24 30 33 40 43 42 39 38 39
18 19 28 22 17 17 70 68 68 64 65 63 64 96 91 92 97 95 99 98 90 98 93 88 84 59 56 68 66 52 22 28 17 19 22 19 23 26 26 24 30 33 35 37 39 40 42 44 47
23 18 26 25 20 35 67 62 68 64 64 71 83 90 95 99 99 99 98 98 92 97 96 95 88 69 76 81 65 32 24 17 16 24 21 25 28 29 28 26 30 34 38 44 39 44 45 44 47
27 30 27 20 20 18 65 61 64 64 60 70 76 94 98 100 100 100 98 100 97 85 97 100 89 82 86 62 47 36 24 17 21 26 28 32 31 32 31 29 29 31 33 35 49 47 48 55 58
19 27 21 21 20 21 58 64 67 66 67 74 74 93 93 100 99 99 92 91 88 93 100 100 100 98 77 70 49 32 21 19 26 30 36 34 36 39 39 36 34 33 33 33 39 52 60 62 62
18 27 30 23 21 23 68 66 68 66 65 68 81 83 82 97 100 99 93 94 92 94 100 98 97 92 71 63 45 29 21 24 33 38 39 40 42 43 45 43 45 44 41 45 48 57 61 64 65
22 30 24 19 18 51 65 65 62 63 64 91 98 98 98 99 99 97 94 99 100 100 100 100 99 80 69 69 46 27 24 33 39 41 44 49 56 61 67 62 60 60 59 59 61 62 65 67 67
20 25 20 17 46 51 57 66 65 64 58 73 94 99 100 99 100 100 100 100 100 100 90 92 82 91 86 54 31 27 27 42 46 58 64 68 73 72 79 76 73 71 68 69 69 69 70 72 77
20 18 18 41 48 47 57 62 64 60 72 69 84 97 98 100 98 100 100 100 98 87 81 76 61 60 72 52 37 31 37 46 68 72 76 72 76 79 81 82 77 79 76 76 77 78 80 82 82
18 30 45 46 46 45 51 52 56 85 70 83 99 100 97 84 82 99 94 83 94 94 84 69 60 54 58 46 37 40 55 67 73 83 82 74 69 78 80 79 83 80 80 83 85 86 86 80 61
37 42 46 50 50 47 42 48 50 100 99 100 99 91 74 82 82 98 88 61 90 78 68 73 76 89 89 44 43 46 59 84 82 78 82 78 80 79 80 80 83 84 86 88 86 71 44 35 28
37 42 40 43 47 42 43 47 67 97 76 49 72 73 59 80 84 73 73 62 63 62 66 74 83 84 81 44 41 61 89 80 79 83 84 83 79 82 82 81 82 86 88 72 44 37 36 29 21
36 37 49 36 34 34 40 46 70 86 68 38 70 82 66 79 95 72 61 57 53 56 69 86 79 69 48 45 54 62 66 73 80 78 82 81 75 76 72 71 78 77 46 41 44 43 33 24 20
33 37 39 39 32 31 33 43 57 78 84 68 65 79 75 66 77 73 71 63 59 65 76 91 95 74 50 57 75 81 78 75 77 87 83 71 64 61 66 74 63 44 46 47 45 37 32 28 20
38 35 33 36 26 34 34 36 68 68 81 80 66 76 86 75 60 61 65 67 66 67 76 81 87 81 65 70 78 77 85 81 88 92 73 62 62 62 61 49 47 49 52 52 49 45 39 31 30
32 35 37 34 29 32 38 37 68 62 77 86 77 78 86 73 57 60 58 60 67 72 79 79 85 80 70 70 74 75 76 89 93 77 66 67 62 52 48 52 53 60 56 54 52 50 42 40 45
34 36 40 36 28 34 43 43 37 67 73 74 81 80 73 78 71 65 55 53 56 68 74 80 80 75 66 66 71 73 82 90 85 74 72 64 54 51 54 56 65 59 55 55 57 57 53 50 55
35 37 40 39 31 33 38 36 41 50 61 63 68 68 72 60 55 54 58 58 50 54 55 63 65 59 58 58 71 81 93 91 83 79 77 68 61 59 59 69 68 57 57 58 59 62 60 59 63
40 35 37 38 32 37 27 40 38 46 58 58 58 70 67 67 55 41 38 48 44 44 54 62 67 59 59 61 75 84 93 89 82 80 81 74 67 67 70 77 63 59 59 64 76 70 63 63 63
37 30 34 32 36 37 36 38 33 48 57 56 54 58 58 56 57 47 40 41 45 50 59 63 66 59 61 69 80 91 100 91 86 88 82 72 68 74 79 77 65 63 61 83 84 68 64 56 38
30 34 40 47 48 48 37 41 41 46 45 44 46 48 50 52 54 50 46 44 49 55 68 69 68 68 57 73 84 100 100 93 76 75 72 71 72 79 80 79 77 68 74 86 73 62 53 30 24
34 39 52 53 60 52 41 47 44 30 29 36 45 45 43 50 51 50 44 44 46 56 62 63 67 72 77 81 91 92 99 87 66 60 62 64 69 77 83 82 72 73 93 68 59 46 31 26 23
39 38 56 43 53 46 43 50 36 30 32 33 32 32 42 43 45 46 48 43 45 50 54 55 59 65 76 90 97 100 97 85 74 65 65 67 72 82 87 84 87 90 59 55 42 35 35 30 25
42 45 39 59 58 65 51 39 25 28 38 44 52 36 36 43 40 39 43 45 48 45 51 57 63 68 78 91 99 92 83 76 70 68 68 72 77 86 83 88 84 67 46 44 44 44 38 34 39
31 44 49 61 50 48 44 41 37 28 33 43 60 59 41 37 42 40 40 40 43 44 52 63 66 69 83 88 79 79 71 69 74 76 76 80 83 87 89 86 68 47 46 46 43 41 48 44 54
44 43 47 50 58 53 63 44 38 33 34 40 46 44 52 52 43 40 39 39 44 50 57 64 60 66 72 69 73 69 70 73 82 81 78 79 82 87 87 62 50 47 47 43 48 55 51 55 62
37 42 46 60 47 63 64 57 28 30 35 37 38 33 41 50 52 53 48 49 55 62 55 68 63 66 70 76 84 77 80 81 79 78 79 88 88 84 59 49 47 46 46 52 51 54 60 60 70

GFSSGP_850_rhum_069.txt.gz
RH
12 10 16 20 18 23 20 19 23 20 23 71 82 70 59 76 65 67 96 81 88 91 92 65 58 50 41 35 32 36 43 47 46 45 39 40 26 19 16 11 16 17 19 30 47 52 56 61 62
10 20 26 21 18 18 15 18 29 49 57 67 82 86 82 88 96 94 99 79 93 93 91 72 62 51 41 37 43 49 46 39 32 33 29 24 19 16 14 20 20 23 27 36 44 48 56 60 64
12 28 25 21 22 16 14 14 36 48 63 76 77 87 90 93 91 96 97 88 100 95 92 74 63 50 41 44 51 50 42 26 29 21 19 21 16 17 23 22 22 27 39 44 43 41 43 49 50
16 20 17 20 19 16 14 20 64 65 64 70 75 73 96 97 99 94 92 92 99 98 92 76 66 48 48 57 58 49 30 26 26 18 21 17 18 25 24 22 24 28 35 40 39 37 39 45 48
18 18 21 20 18 13 24 54 66 62 66 70 74 80 94 97 96 94 88 98 100 99 89 81 73 57 57 63 57 32 23 27 19 21 20 18 25 26 25 30 36 37 36 37 40 43 46 46 53
22 18 19 19 18 15 44 63 65 63 65 73 79 85 94 99 99 97 92 91 89 100 92 86 81 65 68 67 36 20 23 18 20 20 19 24 28 27 34 36 36 38 36 36 40 42 46 53 55
22 22 22 20 19 17 35 64 59 58 59 71 82 81 95 97 100 96 94 92 96 98 100 99 91 80 84 46 30 26 23 18 20 19 25 29 28 28 36 36 38 39 42 46 47 53 58 58 59
20 20 22 20 19 18 38 65 69 65 65 74 75 72 84 100 100 99 98 93 92 90 99 100 99 100 80 69 43 30 22 20 16 23 32 31 29 29 32 37 39 41 43 47 58 61 57 60 63
18 22 23 21 20 18 62 61 70 66 67 74 82 84 86 99 100 100 100 99 98 94 100 100 100 95 98 79 59 32 25 20 24 33 33 34 34 34 31 34 37 41 41 55 62 61 65 68 68
20 23 20 17 16 35 58 65 63 63 68 86 93 89 99 97 100 97 89 98 98 100 100 95 90 86 81 75 52 35 23 25 32 35 38 40 39 38 40 42 48 53 61 63 65 67 69 71 72
21 21 19 16 20 52 55 61 63 59 56 69 81 97 100 99 100 98 100 99 100 100 100 96 81 69 57 51 44 36 33 39 39 41 44 45 51 60 60 62 64 68 70 70 72 72 74 75 78
22 19 19 23 46 51 47 62 62 62 66 71 88 99 99 100 99 100 99 100 99 100 100 88 83 70 54 50 43 34 42 40 43 46 54 61 68 76 76 75 77 78 75 74 78 80 80 82 83
21 27 47 36 50 51 53 56 59 86 88 75 98 95 96 96 98 100 98 97 92 96 93 91 80 76 87 56 37 34 44 43 54 67 70 75 78 78 82 84 78 85 80 82 83 83 83 74 45
34 43 49 54 52 50 41 51 52 83 98 95 92 92 100 99 100 100 100 98 81 85 83 79 60 63 66 65 52 38 46 71 78 82 83 78 72 81 79 75 84 84 83 85 85 78 47 33 29
38 39 37 44 46 40 42 44 57 82 98 95 99 99 100 98 100 98 91 88 82 94 65 64 66 77 89 77 49 44 56 78 87 88 83 79 72 74 76 82 83 86 86 86 54 38 40 33 24
34 34 37 33 39 37 37 41 63 79 88 82 86 97 80 76 89 92 96 90 88 66 57 64 74 74 91 74 49 47 60 86 77 78 75 76 79 78 76 76 85 87 72 43 45 42 35 32 28
29 32 36 30 33 32 34 43 54 84 80 68 68 57 90 82 79 76 87 67 64 64 71 77 80 88 82 56 46 56 85 82 69 72 78 79 72 69 71 84 82 57 44 48 48 48 48 41 28
33 33 33 32 27 32 31 39 54 77 81 67 77 79 86 80 72 71 61 62 66 71 76 89 93 87 65 54 61 80 81 81 78 79 82 78 71 61 66 79 58 46 51 54 53 54 55 47 36
29 32 34 31 26 29 32 37 54 67 80 78 77 75 66 79 63 60 65 64 61 59 72 82 87 91 78 55 72 84 85 80 80 77 86 72 63 66 67 52 49 53 58 55 55 57 61 55 49
34 34 32 30 29 33 34 32 40 57 68 72 71 78 72 64 79 68 60 65 65 62 66 71 78 82 79 68 64 72 72 78 78 86 74 70 69 61 50 54 54 62 59 55 57 65 66 63 59
35 36 36 33 32 32 35 30 37 46 58 69 73 70 75 66 57 64 66 63 60 65 62 69 76 77 82 77 68 72 80 88 93 82 73 72 64 54 56 57 62 66 58 58 66 76 75 67 61
39 33 33 37 33 30 28 30 28 36 49 57 65 74 65 69 62 55 57 63 62 58 55 67 75 75 73 76 70 70 75 74 87 82 78 75 65 60 61 63 71 66 60 60 79 81 73 63 59
34 34 35 34 34 34 35 30 24 39 41 43 50 61 65 50 54 53 50 48 54 58 56 61 69 78 79 75 75 73 86 97 96 87 79 77 69 66 67 68 75 67 63 68 85 82 66 59 42
34 36 36 40 41 43 37 33 28 26 31 35 37 48 58 49 48 49 46 42 41 45 56 63 64 73 76 79 73 68 89 98 99 89 85 80 75 70 70 75 79 71 78 86 92 68 60 39 27
33 37 41 45 47 42 40 41 31 30 28 28 29 43 40 42 42 47 50 45 41 39 45 58 63 62 67 78 72 72 79 98 100 94 86 84 73 69 69 80 81 80 69 90 86 58 39 35 29
36 35 47 39 44 37 42 41 25 29 29 32 34 38 35 39 41 43 43 46 41 39 42 48 55 63 59 70 76 69 88 98 98 80 66 62 61 64 74 84 84 79 87 82 55 44 42 36 36
41 41 37 53 56 57 43 33 22 27 31 36 39 48 40 38 41 40 43 46 46 42 43 46 51 57 57 66 78 87 96 99 91 78 71 66 68 74 85 88 85 94 90 61 50 42 44 43 43
35 39 46 50 50 48 37 36 29 24 24 33 37 42 40 38 43 43 44 47 45 47 44 45 51 54 57 65 78 92 100 98 80 83 87 74 78 90 89 90 94 93 54 44 43 46 47 50 43
44 43 44 41 46 46 47 34 31 27 27 32 34 34 32 35 33 37 43 44 48 47 48 48 49 59 64 74 83 89 87 78 82 86 94 84 88 87 87 88 78 50 45 48 49 45 52 47 57
34 38 41 54 46 54 51 42 26 29 30 32 36 34 29 26 31 34 41 48 48 48 51 50 55 62 56 67 80 82 81 83 92 100 98 93 87 84 90 82 51 54 53 45 45 51 49 62 66

GFSSGP_850_rhum_072.txt.gz
RH
14 11 15 21 14 10 12 11 11 15 24 24 34 48 42 50 39 47 98 98 99 100 91 66 62 64 70 70 69 71 72 54 42 47 51 49 36 18 14 11 12 14 18 38 45 53 56 65 65
11 17 24 16 13 13 10 10 14 22 29 56 51 52 47 44 77 96 99 100 100 99 89 88 60 56 66 72 73 63 42 43 51 53 47 34 18 14 11 15 17 23 36 41 49 56 59 60 54
14 24 17 13 12 12 11 10 14 30 38 55 38 54 57 60 86 93 100 98 100 100 91 79 53 47 46 46 40 40 46 49 48 40 30 17 14 12 17 18 24 32 39 41 50 57 58 53 47
19 17 16 12 13 9 10 12 27 42 45 54 62 56 77 94 99 99 98 89 98 100 99 62 51 44 40 40 46 50 45 39 32 24 18 16 13 19 21 25 36 40 40 39 41 46 49 49 49
16 13 12 12 10 10 10 19 33 39 44 50 58 55 70 89 90 92 96 92 98 99 99 61 54 47 45 53 54 43 31 28 21 20 18 14 19 22 22 26 34 38 41 40 42 46 52 52 51
14 13 12 11 11 11 13 31 42 44 47 51 51 65 76 97 96 97 95 95 98 97 96 67 62 56 59 61 48 30 26 20 20 20 16 20 23 23 25 28 33 37 44 46 47 51 53 54 53
14 13 12 12 14 17 21 42 43 40 40 46 60 50 85 98 94 92 97 98 94 96 94 74 78 78 86 73 45 31 20 20 20 16 18 24 24 30 34 36 40 41 41 43 47 50 54 56 60
14 12 13 12 16 19 25 47 54 45 42 63 65 46 56 92 99 87 90 90 94 100 98 93 99 100 100 60 48 34 24 24 19 19 24 25 30 34 36 40 39 44 46 50 53 56 58 61 62
17 14 12 13 18 14 30 37 61 58 48 60 69 67 82 84 99 99 100 96 94 100 100 100 100 100 85 68 50 41 37 25 26 25 26 29 34 38 53 36 41 43 54 54 60 66 66 68 69
15 14 12 11 11 13 28 46 46 48 53 55 67 82 98 97 99 100 100 100 100 100 100 100 99 89 84 76 56 52 44 44 32 27 29 30 40 74 55 36 39 47 54 61 71 72 73 74 73
16 15 14 13 15 17 28 37 45 38 32 38 52 75 96 99 99 100 100 100 99 99 100 100 100 86 83 74 66 66 38 32 34 30 35 33 36 42 75 49 62 72 72 76 78 77 75 76 78
18 16 17 16 30 34 30 36 36 39 47 60 62 78 97 98 100 98 99 100 100 100 100 100 95 90 79 80 73 60 49 35 35 36 38 42 52 50 72 80 71 74 76 77 79 80 80 81 78
20 18 29 28 37 37 36 35 38 41 70 70 66 93 92 96 99 100 100 100 100 100 99 100 89 78 73 62 56 52 38 38 40 47 47 57 71 71 70 76 81 80 83 85 84 84 82 63 33
27 30 33 37 36 34 29 33 36 52 83 87 88 87 99 99 100 100 100 98 100 84 87 82 82 80 69 60 57 41 35 40 54 61 78 73 75 78 83 78 82 87 86 85 85 75 46 35 32
30 30 30 30 30 26 30 32 33 53 69 68 85 98 93 99 100 99 96 98 95 100 93 93 91 90 77 74 57 39 49 62 93 88 72 76 75 74 72 77 80 85 84 85 72 39 40 36 35
26 26 24 25 26 28 31 25 35 53 59 52 68 81 90 98 100 100 98 99 93 93 82 89 94 81 75 73 55 48 64 78 72 83 83 79 73 74 72 79 82 85 85 65 42 43 44 47 47
22 21 21 23 22 24 27 23 33 47 43 41 55 62 77 96 81 96 98 96 90 90 82 86 90 85 78 79 71 89 92 77 84 83 84 77 75 73 72 77 81 86 61 44 46 50 53 56 52
21 21 22 22 20 22 22 22 30 47 43 40 43 51 66 71 83 90 91 90 85 79 80 87 87 81 82 90 61 53 77 79 80 76 76 75 78 73 67 77 83 62 45 49 52 54 56 60 59
19 21 22 18 19 21 20 20 23 44 48 43 47 49 60 59 67 74 81 82 81 84 85 94 97 83 78 61 64 65 64 80 73 72 75 76 77 70 69 77 68 47 50 54 53 56 63 71 68
21 23 23 20 21 25 20 20 18 35 44 43 44 45 45 67 63 65 72 81 83 85 92 97 99 94 89 87 79 90 86 76 82 80 78 83 76 69 73 69 51 50 55 56 54 60 73 75 76
23 25 25 23 23 23 24 21 22 24 36 44 46 44 47 46 64 65 69 74 80 80 87 90 95 98 98 97 86 97 98 77 80 80 84 81 71 74 69 54 52 53 60 59 56 67 78 74 81
27 21 23 24 27 23 23 21 17 20 28 36 43 47 46 49 47 59 63 67 75 77 78 80 83 93 99 98 96 71 87 94 92 86 87 76 73 67 57 57 57 61 64 60 60 71 78 76 71
25 23 25 26 26 25 23 19 16 20 21 20 30 41 46 49 49 46 56 60 66 73 82 89 90 98 98 89 88 91 96 100 85 85 90 79 73 65 60 62 64 66 68 63 65 83 82 78 68
25 28 28 29 26 30 23 23 16 16 17 17 18 24 38 46 48 53 51 55 62 76 92 91 89 95 85 82 81 79 95 76 84 91 90 83 75 71 65 68 68 69 72 66 78 87 85 68 48
27 29 34 39 35 31 28 27 19 14 16 19 18 21 26 34 45 49 51 57 58 72 81 77 79 89 90 77 80 79 70 65 80 91 95 96 89 78 72 70 71 74 75 76 86 94 70 48 63
25 26 31 36 35 28 29 25 18 17 19 19 25 28 29 31 35 46 49 55 60 68 48 43 46 61 66 64 71 77 81 72 67 88 98 96 90 89 89 78 82 81 78 90 89 80 57 70 59
31 31 25 34 42 36 22 20 14 14 15 20 22 29 33 32 34 40 47 54 64 73 44 37 39 52 56 54 68 72 77 80 81 94 100 100 99 97 89 87 83 82 84 90 84 58 75 67 72
26 23 34 32 40 37 23 23 19 16 16 19 16 16 31 37 37 39 43 51 61 70 76 48 51 43 50 57 68 69 77 82 84 100 100 99 100 90 85 84 85 88 90 81 46 62 75 74 72
33 31 28 27 30 35 34 24 15 15 15 18 17 22 25 36 40 41 44 50 60 69 77 75 59 66 81 61 69 80 95 94 99 100 100 100 94 83 91 90 90 96 84 47 50 73 71 74 75
22 24 27 32 32 34 38 30 15 16 17 20 20 22 27 33 41 44 50 55 61 71 78 78 75 75 82 86 90 100 100 100 100 100 100 100 99 99 90 92 99 76 55 57 65 67 66 73 78

GFSSGP_850_rhum_075.txt.gz
RH
18 16 18 14 14 12 11 9 7 8 10 13 16 18 25 52 67 71 67 67 80 90 81 61 69 78 76 75 71 64 67 64 58 44 47 49 36 19 14 12 12 17 34 48 48 46 52 47 39
25 18 16 13 14 12 10 8 9 8 16 24 20 20 22 76 62 93 88 89 92 90 90 86 68 72 78 77 72 70 72 66 47 46 51 43 26 14 11 12 16 29 45 50 48 49 51 44 43
22 18 16 13 12 12 10 10 8 12 24 32 28 27 28 51 82 76 89 95 96 89 88 94 67 74 79 80 75 78 72 48 46 51 47 33 16 12 14 17 31 43 49 52 50 53 50 44 47
17 14 13 11 10 9 8 8 12 19 22 25 30 24 33 84 86 91 93 97 97 86 85 62 65 76 83 80 83 76 49 50 54 49 34 18 13 14 18 26 35 40 47 52 54 54 48 46 51
14 11 11 11 9 7 9 20 22 24 29 30 40 34 41 62 59 84 97 94 92 86 87 68 66 81 88 85 75 50 54 55 44 33 19 15 15 19 22 30 37 40 43 48 50 52 53 48 52
12 11 12 12 10 9 20 32 25 29 38 37 41 57 54 42 34 53 99 95 92 92 88 60 61 76 79 58 52 57 52 38 27 20 16 15 20 21 31 39 40 40 38 44 48 53 52 50 52
12 11 12 10 9 23 18 31 34 30 26 45 42 59 64 59 48 53 88 88 90 96 99 58 64 64 76 68 69 54 34 25 20 17 15 20 21 21 30 34 38 38 46 46 50 50 51 53 57
10 10 10 9 11 28 18 26 35 36 31 42 48 40 65 81 88 91 94 94 97 85 93 83 85 76 78 79 62 42 33 27 20 16 22 20 22 26 33 39 41 42 44 47 49 51 56 59 62
12 12 12 10 11 30 16 24 39 43 34 36 45 50 77 88 94 98 99 100 89 88 98 89 89 97 94 82 56 46 48 30 22 28 24 23 30 38 43 38 40 47 49 52 55 59 63 66 67
12 13 11 9 9 10 13 21 29 30 30 32 45 59 95 97 97 99 99 100 98 99 98 96 100 100 84 73 67 58 40 35 43 32 27 32 32 46 39 43 51 51 51 62 65 68 72 72 69
12 12 11 10 13 15 15 20 28 26 23 32 33 48 83 98 99 100 99 100 100 99 100 99 100 96 80 84 63 60 58 90 62 66 58 52 66 65 38 45 48 58 70 70 74 74 72 72 73
13 10 12 12 15 21 19 22 22 24 31 43 40 48 84 97 98 100 99 99 100 100 100 100 98 89 94 79 66 48 56 78 52 53 80 84 59 56 49 70 75 77 82 82 82 77 77 79 74
14 11 13 19 20 24 24 21 24 24 45 63 53 69 98 96 98 100 100 99 100 100 100 100 100 95 79 65 47 56 62 49 43 68 76 55 62 90 87 87 91 84 85 85 85 84 79 64 34
15 16 17 20 21 23 23 20 23 39 52 63 74 79 92 99 100 99 100 100 100 100 100 98 99 92 80 83 72 61 43 48 55 62 63 52 83 82 90 91 90 82 86 84 82 75 59 49 46
20 20 18 18 18 19 21 32 62 35 40 52 68 84 85 98 100 99 100 100 99 100 100 100 100 100 87 78 67 60 57 50 41 40 44 70 80 86 80 82 83 88 83 80 76 56 45 48 47
21 19 24 54 25 18 19 58 59 37 35 40 56 77 96 98 99 100 100 98 82 82 86 86 82 80 78 74 63 64 86 51 58 66 68 77 83 79 79 94 90 86 82 77 62 55 53 53 50
18 24 27 22 14 16 19 21 26 32 31 37 42 51 70 100 100 99 100 92 94 99 99 81 75 77 81 86 79 85 73 42 66 67 79 85 79 76 96 91 89 79 79 69 59 58 58 57 53
21 27 16 15 23 16 16 16 17 28 28 28 37 48 50 58 84 96 94 93 96 97 94 80 82 84 75 83 78 70 83 76 80 76 85 87 92 78 95 92 74 81 72 67 61 60 56 60 62
15 16 17 15 15 17 16 16 15 26 30 34 32 45 51 54 74 79 84 80 67 78 81 80 87 80 81 84 90 83 80 80 74 85 82 81 93 85 98 92 83 78 71 66 51 53 58 71 72
17 18 18 16 14 18 17 17 15 20 25 32 37 35 42 47 58 71 78 80 66 71 69 76 81 96 96 82 76 71 76 90 86 90 76 73 76 76 94 91 89 77 71 63 57 64 72 72 75
19 20 21 21 17 17 17 18 15 16 23 28 34 33 39 41 50 56 63 67 71 71 74 75 85 96 96 76 68 72 80 95 96 91 98 74 78 90 96 90 84 78 78 74 66 74 79 71 75
23 17 19 20 21 34 17 26 24 14 20 24 30 32 32 39 44 50 57 67 70 69 75 77 79 90 89 92 73 74 86 94 95 97 98 74 83 83 82 90 84 84 78 76 81 83 85 85 74
21 19 20 20 22 20 17 15 16 12 15 17 22 30 31 34 39 46 52 54 63 68 71 76 76 72 75 92 83 76 78 75 86 97 91 78 81 77 89 89 88 86 79 81 81 82 72 81 80
18 22 22 22 23 31 19 18 18 13 11 14 13 22 28 31 34 36 44 47 51 60 71 74 72 68 71 86 95 89 87 81 91 90 76 85 79 86 86 88 88 88 84 85 79 66 75 77 79
21 25 35 38 32 34 23 20 14 16 11 13 13 15 20 28 34 34 34 42 46 52 64 71 74 72 75 94 98 99 94 90 89 78 70 83 92 88 92 92 92 93 88 88 69 76 72 75 75
22 22 32 46 39 29 24 21 15 12 12 12 13 15 17 20 28 35 37 37 40 47 60 72 75 80 78 88 97 99 98 94 94 87 90 79 94 95 97 96 94 98 95 79 79 76 72 79 66
20 25 18 29 25 31 22 16 13 11 11 12 13 16 19 23 22 26 33 39 43 46 54 69 75 76 78 84 96 99 99 96 99 98 98 88 98 96 95 97 99 99 92 77 87 88 71 60 78
21 20 29 26 37 48 22 19 16 14 12 14 13 14 21 26 26 26 28 34 41 49 55 74 76 70 72 80 97 99 94 100 100 100 98 97 99 98 94 98 99 97 87 86 88 84 72 78 80
23 25 23 21 29 38 35 21 18 13 12 13 13 14 15 20 27 29 30 33 39 48 58 71 74 64 64 77 95 100 99 100 99 100 100 100 100 98 98 98 99 91 92 89 92 76 72 74 76
15 21 21 30 28 26 28 27 14 13 13 14 14 14 15 19 23 28 32 35 38 48 54 64 74 66 63 77 93 99 99 98 98 100 100 100 100 100 98 99 95 100 99 89 81 80 75 71 70

GFSSGP_850_rhum_078.txt.gz
RH
16 20 20 20 16 14 16 11 8 8 8 10 15 13 14 34 61 69 52 80 98 75 62 62 62 67 69 69 62 55 55 52 52 44 44 44 31 15 16 14 15 25 44 52 58 51 38 38 38
20 29 17 14 17 19 12 10 11 9 21 22 18 16 16 48 69 60 42 58 89 93 58 59 58 67 74 73 64 60 59 56 50 43 46 40 22 16 13 14 20 47 63 53 57 44 36 38 36
14 20 16 17 18 16 13 10 9 8 21 23 17 16 18 82 64 66 56 58 87 95 74 83 84 82 81 76 67 66 62 57 47 47 47 32 17 12 14 19 38 67 70 51 50 39 40 42 43
21 15 14 16 11 8 8 11 14 16 39 32 34 31 47 72 49 36 33 40 88 92 95 99 100 97 90 82 72 70 66 53 47 50 41 22 13 15 19 34 45 52 50 48 47 40 45 47 44
16 13 13 14 12 10 11 15 16 17 52 59 73 76 48 67 56 72 87 89 84 91 85 91 98 96 88 81 72 74 64 49 52 48 31 16 13 19 28 38 45 50 45 49 43 43 47 49 47
14 12 15 15 13 17 31 28 28 33 72 71 68 79 46 57 47 54 83 93 91 92 91 75 100 95 92 85 78 74 50 54 53 38 21 13 18 22 33 39 40 40 43 47 45 46 48 50 52
12 12 14 11 10 18 22 24 26 42 70 80 56 56 57 57 56 57 80 93 100 100 97 77 99 99 98 95 80 59 60 56 41 25 15 17 25 30 39 36 34 37 43 45 48 47 50 53 57
10 9 12 10 11 20 23 22 24 28 40 48 73 70 58 64 72 72 72 89 81 88 81 100 99 99 100 89 72 70 58 42 26 17 18 22 31 33 37 38 39 40 44 48 49 50 54 58 63
10 12 14 15 11 13 17 17 16 28 30 40 60 61 69 90 97 78 50 72 77 78 78 64 89 100 92 85 73 54 38 27 22 27 29 31 33 32 36 39 39 38 43 48 53 56 61 64 68
11 14 16 11 8 11 11 11 14 22 40 55 57 71 91 96 96 99 98 98 98 95 95 86 84 93 89 81 55 40 35 30 32 33 40 47 35 33 38 38 40 43 50 56 61 64 69 69 68
11 13 10 10 11 11 13 24 20 20 47 50 52 41 83 97 99 96 100 100 98 92 91 90 95 99 91 69 51 57 46 51 48 42 52 47 28 38 36 45 43 56 60 64 68 71 73 75 72
13 10 10 10 11 14 15 26 20 20 41 45 46 63 77 87 99 98 98 100 100 100 98 98 100 100 85 57 47 41 48 50 44 54 65 33 54 45 48 41 51 66 64 69 74 76 73 72 75
12 12 10 10 14 14 18 17 20 61 58 56 57 80 99 94 100 99 100 100 100 100 100 100 100 98 79 77 63 67 50 42 64 84 40 37 39 36 43 54 65 71 73 81 77 77 79 73 36
13 13 14 13 16 19 18 26 30 54 48 56 70 85 95 98 98 100 100 99 99 100 100 100 100 99 94 88 73 58 46 65 68 59 38 50 74 86 91 87 83 81 81 79 82 80 69 47 40
15 17 16 28 30 30 27 27 45 39 34 47 62 75 95 99 99 99 100 99 98 100 99 100 100 100 99 97 82 71 61 60 60 43 54 79 69 87 87 86 80 79 83 85 83 72 52 45 47
17 16 30 39 32 24 20 36 45 27 40 44 52 71 94 99 100 100 100 99 100 99 99 98 98 91 83 72 62 64 81 67 52 52 69 70 76 74 76 82 86 87 83 82 77 62 46 52 51
16 26 30 22 27 26 17 34 48 34 45 39 43 62 96 99 99 100 100 100 97 93 91 87 85 81 83 76 71 78 65 58 69 68 65 73 73 82 84 89 91 86 82 79 68 55 54 54 51
26 35 23 22 21 19 18 15 46 48 24 38 44 68 86 85 100 98 96 87 95 91 86 85 71 68 80 77 62 74 81 73 69 64 63 75 74 76 84 90 89 83 81 71 58 56 59 59 57
15 17 16 15 15 18 18 13 15 22 24 30 42 43 58 76 92 93 88 93 96 88 74 61 61 68 72 81 80 85 85 61 45 48 71 77 84 87 84 91 85 83 77 71 59 60 58 58 58
15 16 17 15 13 17 16 15 15 21 23 31 40 43 51 70 76 90 90 92 86 70 69 76 80 83 80 88 88 74 74 59 59 75 75 77 87 83 85 93 80 80 73 71 60 61 68 73 70
17 19 20 20 16 17 18 18 16 18 20 31 31 43 47 56 72 75 78 85 79 72 74 85 86 81 84 79 80 76 76 79 67 72 80 79 67 73 79 93 90 82 75 71 62 69 74 74 74
22 15 17 18 20 25 29 33 19 18 23 23 32 31 40 46 57 70 74 70 70 74 77 75 76 85 82 85 78 70 72 85 73 70 82 76 66 80 88 95 93 84 75 73 65 70 77 72 75
20 16 21 20 22 22 27 30 15 17 22 20 26 32 34 38 48 56 64 71 72 67 68 70 72 77 78 76 77 65 73 73 72 77 86 84 78 75 80 85 88 84 78 77 76 79 80 75 73
15 19 22 21 24 34 22 23 27 26 19 14 21 27 30 36 40 47 54 60 66 68 71 65 74 80 78 74 71 72 76 77 85 87 83 80 79 85 90 83 94 86 82 76 78 79 77 72 71
18 24 37 52 46 40 23 26 22 23 16 12 13 19 28 31 38 42 47 53 62 64 68 74 74 72 76 77 78 71 77 75 84 79 78 76 68 78 81 90 88 87 86 80 80 81 76 73 72
22 24 38 54 86 54 40 29 15 14 12 12 12 12 19 26 32 38 43 47 51 58 62 65 73 72 70 71 76 74 81 85 82 87 69 72 61 72 84 86 87 88 92 88 85 81 79 76 79
23 28 21 31 31 52 39 35 19 12 11 10 11 12 14 16 23 31 33 42 46 47 55 65 69 74 70 70 77 78 83 89 94 74 72 84 72 78 94 91 92 94 94 94 92 84 85 90 88
19 19 32 27 47 46 24 22 44 25 15 13 13 14 18 23 23 22 30 34 41 45 48 57 66 67 73 73 79 83 83 98 93 88 92 94 93 94 100 99 99 96 95 97 89 93 92 89 78
20 23 29 25 28 44 51 29 34 24 18 14 13 14 14 16 24 25 25 26 38 41 47 52 59 69 73 75 79 86 91 94 100 97 98 100 100 98 98 100 100 100 100 100 88 86 91 79 83
16 22 24 37 31 36 51 39 16 16 15 14 13 13 14 16 18 23 27 28 31 40 48 51 58 68 72 72 76 85 86 85 98 99 99 100 98 100 100 94 96 100 97 91 95 94 85 90 84

GFSSGP_850_rhum_081.txt.gz
RH
14 18 24 26 30 30 30 22 15 14 23 24 17 20 34 61 48 63 48 45 46 87 95 86 74 65 58 48 47 41 44 47 43 39 39 31 14 14 16 17 25 35 50 50 32 31 33 59 64
15 23 36 27 27 34 26 17 14 36 56 33 28 35 30 65 55 61 57 40 41 32 53 97 86 73 64 52 51 47 49 48 44 43 42 24 13 14 14 23 37 41 49 38 34 34 39 62 64
15 21 24 28 33 35 27 19 23 46 45 50 52 45 64 80 73 79 68 46 40 33 33 75 96 83 70 56 54 50 51 49 45 47 37 19 13 14 20 40 39 43 43 36 37 37 51 57 60
19 20 19 25 28 22 23 34 46 49 50 49 45 53 54 71 61 75 77 57 57 43 37 67 97 88 75 61 58 55 56 50 46 45 32 15 13 16 32 68 49 41 41 38 41 39 48 59 62
26 25 24 25 23 17 29 30 44 61 58 54 44 57 58 43 39 58 80 93 68 49 60 95 97 88 79 65 62 60 58 49 48 44 27 12 14 20 37 55 54 42 39 38 40 41 40 53 58
27 17 28 26 20 18 28 28 41 55 55 42 50 72 56 36 38 54 45 66 94 98 97 96 99 93 82 71 67 64 56 51 51 38 18 12 16 27 40 41 40 43 40 39 41 44 45 38 50
22 24 26 20 15 22 21 26 39 56 57 52 62 74 63 56 69 63 58 64 90 82 86 94 98 97 89 76 72 66 55 55 48 30 14 17 29 40 40 40 44 42 39 40 43 46 50 50 41
18 20 19 16 21 23 22 19 24 39 64 56 61 70 68 70 71 76 79 91 74 72 80 77 100 100 96 85 76 60 56 54 37 19 16 28 41 44 42 44 42 38 40 43 46 49 54 58 49
15 20 20 18 20 15 18 24 19 43 58 69 74 50 57 95 68 77 69 87 80 58 50 77 99 100 99 93 69 63 58 42 24 18 27 38 47 43 40 37 37 39 40 45 49 56 60 64 60
15 22 20 15 14 15 15 25 19 39 52 56 62 44 63 93 83 93 97 91 85 69 59 80 85 92 98 85 72 61 42 30 26 32 41 40 43 43 37 39 40 42 43 50 59 62 67 68 64
16 18 14 12 10 14 15 22 44 43 54 57 59 55 75 81 85 98 99 99 86 83 92 89 89 89 88 82 60 45 33 29 36 41 48 35 40 42 37 34 42 46 52 59 65 67 69 61 64
18 14 13 12 11 15 16 22 54 53 63 62 73 72 83 84 84 85 100 98 95 90 98 99 98 97 82 64 52 40 36 37 47 54 45 38 40 46 37 38 46 46 59 65 70 66 65 68 72
19 16 13 17 21 22 21 38 41 45 40 66 67 75 96 97 88 83 98 99 99 99 100 100 100 94 83 60 47 43 46 34 45 47 42 57 42 44 35 43 46 57 64 71 70 68 71 74 72
15 16 15 18 22 20 26 32 33 33 45 60 73 86 98 94 95 94 100 99 100 100 100 100 100 94 79 65 57 52 40 45 57 68 59 41 55 37 36 39 54 61 74 75 72 74 76 67 38
18 23 22 22 24 27 24 37 42 34 38 56 73 83 91 98 100 100 100 99 92 99 100 100 100 97 89 59 64 52 52 54 69 64 56 71 60 38 34 54 59 75 80 79 78 74 62 42 42
24 23 28 33 28 28 28 42 40 40 47 55 65 91 98 98 100 100 100 100 100 99 100 99 99 95 74 90 84 71 71 87 68 59 71 70 50 87 73 65 73 84 83 79 78 75 63 47 46
30 35 31 35 28 32 39 46 43 36 37 51 69 92 97 99 100 100 98 100 100 99 98 98 99 98 98 97 87 82 71 66 69 77 77 58 63 68 74 77 83 83 82 84 81 77 50 49 51
36 34 36 38 32 35 35 39 53 38 41 64 79 87 99 97 99 100 99 100 100 98 97 97 96 89 82 79 75 69 73 68 64 60 47 41 54 63 79 85 88 86 87 83 81 68 53 56 52
26 26 34 34 25 29 27 35 56 50 51 69 82 96 96 98 97 97 99 90 84 91 89 88 84 82 78 72 73 76 65 59 57 50 54 53 61 78 89 86 80 85 83 77 73 57 58 59 58
22 24 24 20 19 21 24 22 28 38 48 56 62 70 82 97 99 98 90 96 86 77 82 79 68 72 80 76 68 71 61 63 62 57 58 64 77 82 85 81 75 85 80 77 71 58 57 60 60
23 22 24 24 22 21 24 30 23 25 43 46 51 61 67 65 81 90 97 99 93 75 60 52 53 54 54 51 62 64 70 66 61 51 56 58 75 77 77 82 86 85 77 73 71 64 59 64 68
25 21 20 25 25 35 26 44 28 30 40 46 45 57 74 73 72 83 83 77 67 58 56 59 68 69 68 71 71 71 78 84 70 68 59 70 73 74 76 80 80 79 80 74 73 69 61 75 73
25 22 24 26 31 33 32 40 34 27 35 43 49 49 60 66 60 76 80 65 58 63 67 76 85 85 81 76 74 86 88 78 75 71 62 71 77 74 79 84 83 91 88 78 74 70 62 74 79
18 23 26 28 34 48 34 37 40 32 30 30 39 51 51 64 62 55 57 74 75 63 64 66 79 83 87 79 80 86 81 71 71 73 67 70 76 70 74 81 87 97 93 85 76 73 67 68 76
22 27 53 66 66 64 51 49 34 25 22 24 38 39 48 50 61 64 60 58 69 73 69 63 65 78 77 79 71 80 74 68 71 75 75 72 67 73 73 77 91 95 94 86 80 77 76 78 78
25 30 62 64 85 82 66 60 35 23 18 15 17 33 39 47 54 56 55 55 63 65 65 67 61 68 75 76 77 72 71 67 71 75 77 74 71 71 70 77 90 93 93 88 83 81 83 79 79
29 36 30 55 64 72 63 44 27 21 19 16 13 12 34 41 47 50 50 53 59 59 57 56 63 65 75 80 79 79 79 76 75 79 78 72 68 71 74 81 95 94 93 90 90 94 93 88 85
23 24 42 46 74 82 45 47 41 27 23 18 17 24 22 30 41 46 47 46 50 49 50 53 56 56 51 63 75 75 75 77 77 77 78 74 68 82 78 90 99 99 94 96 99 98 98 93 94
29 30 33 34 48 59 60 50 36 29 23 19 18 16 16 18 20 29 39 41 43 45 49 51 54 59 64 64 64 72 74 78 81 82 70 73 70 95 94 92 95 95 97 92 90 95 97 88 88
21 28 31 63 49 56 62 54 27 24 24 21 18 15 15 15 23 21 21 33 44 44 46 54 52 57 65 70 72 73 75 78 75 87 87 92 88 96 98 100 97 97 99 85 96 98 90 87 88

GFSSGP_850_rhum_084.txt.gz
RH
16 20 26 27 27 35 36 26 21 33 44 34 32 29 40 75 71 62 71 54 59 53 60 66 54 47 40 36 35 37 39 37 34 33 29 14 14 16 17 20 40 51 36 29 39 54 60 66 69
18 22 30 33 30 35 33 22 54 51 43 39 35 41 55 70 62 47 43 58 80 74 62 43 65 55 45 41 37 41 44 40 37 36 26 11 14 16 21 37 53 44 30 31 50 58 64 69 73
17 17 25 34 40 40 35 25 34 52 45 40 36 49 66 67 78 60 47 53 81 78 74 82 77 70 69 46 42 44 46 42 40 36 22 12 13 17 32 43 46 30 30 30 52 61 65 70 73
18 22 22 28 30 26 23 21 35 48 48 38 47 48 46 57 78 78 72 47 57 64 74 66 73 37 79 52 45 47 48 43 43 35 18 13 17 24 32 40 35 31 32 35 55 63 66 66 65
26 26 28 28 27 22 17 26 40 53 53 43 45 51 56 55 63 72 70 83 74 58 69 86 68 85 77 69 48 49 50 46 44 33 15 14 22 34 33 38 32 32 35 40 57 62 64 65 62
24 22 31 35 26 19 25 24 47 50 44 46 57 64 56 57 59 70 62 63 64 65 75 86 86 99 84 81 52 52 51 49 44 30 14 14 26 42 36 37 34 33 36 38 47 59 60 65 63
27 31 33 28 24 19 22 27 39 50 53 55 60 66 58 51 73 53 79 70 86 89 72 76 77 83 94 96 58 56 53 50 42 22 13 20 40 51 46 38 35 36 39 41 41 39 51 62 61
20 28 27 26 21 20 22 22 32 46 60 49 53 67 60 34 55 43 75 75 79 81 78 58 75 57 99 94 73 68 53 50 37 18 15 28 45 42 48 45 39 38 41 43 46 49 40 56 61
20 28 31 25 18 18 16 22 44 45 50 55 59 42 41 43 66 61 86 92 76 64 70 74 78 83 98 97 83 75 63 46 25 16 24 41 54 53 53 45 41 40 42 45 49 53 57 47 59
21 27 24 17 15 17 16 30 37 51 60 56 56 55 53 73 72 76 93 91 84 64 68 97 97 100 94 99 92 75 52 33 20 28 42 50 47 47 46 44 43 42 46 50 55 59 57 61 48
19 25 18 16 14 14 16 46 45 52 67 67 66 54 65 97 100 92 99 94 86 70 66 99 66 99 98 97 92 63 41 27 25 31 41 45 46 51 43 44 44 47 49 51 58 55 67 64 62
18 17 17 15 20 20 21 41 50 59 68 72 71 77 97 99 99 99 100 98 97 97 96 98 98 74 82 91 80 54 38 30 36 43 48 45 37 40 37 42 45 47 51 55 57 64 66 66 69
21 19 18 19 22 23 26 35 39 59 79 76 75 79 93 98 100 98 100 100 98 99 98 87 99 74 85 97 82 46 36 35 35 42 41 37 36 36 43 40 49 48 56 60 62 65 68 69 68
18 21 20 19 21 22 27 35 38 42 70 82 76 77 74 87 98 100 100 95 99 100 94 93 93 100 94 81 62 54 52 47 55 46 42 38 37 42 38 47 48 45 57 64 65 69 74 73 63
21 26 24 20 20 27 27 37 37 34 55 77 79 75 89 88 93 100 100 100 99 100 99 100 100 98 85 71 76 63 53 45 51 43 41 43 44 41 39 42 41 49 59 68 71 79 77 68 38
28 27 29 25 27 27 26 39 36 37 41 79 89 85 92 92 99 99 100 100 99 100 100 100 100 96 92 77 71 52 51 61 48 50 61 63 46 44 38 42 41 49 65 74 78 78 66 51 42
35 42 35 31 30 31 33 36 39 35 52 77 90 100 98 93 93 100 100 100 100 100 100 100 100 96 88 82 54 56 61 76 56 58 56 44 71 49 58 57 47 64 78 80 80 74 70 56 45
45 40 34 40 29 36 38 38 35 43 50 67 96 95 96 92 97 99 100 99 100 100 100 100 100 99 92 70 68 71 63 64 69 64 52 60 54 78 72 78 84 79 82 84 82 80 76 54 49
33 35 36 30 27 34 37 38 44 52 67 86 89 97 96 98 98 96 100 99 100 100 100 100 100 98 85 78 82 67 68 74 79 62 56 68 84 74 75 74 76 81 84 81 84 83 80 51 53
33 36 34 25 21 29 27 30 36 59 68 80 91 99 98 98 98 100 96 98 95 98 99 98 96 97 99 86 81 76 85 78 64 57 56 64 65 62 56 70 77 82 87 87 85 82 74 52 57
34 34 32 25 22 22 28 31 34 44 54 67 75 63 82 92 79 98 96 81 75 83 94 97 89 88 86 77 69 64 64 66 62 56 58 62 53 52 62 70 70 79 83 85 82 74 68 56 56
38 26 24 26 30 36 27 46 33 46 59 60 65 69 73 74 48 61 80 81 78 81 79 91 93 86 79 71 67 68 68 62 61 55 53 49 46 51 67 71 80 87 86 89 81 72 70 60 56
32 26 25 27 31 36 35 44 37 45 61 59 58 68 71 61 38 36 58 68 68 75 70 69 66 70 71 69 64 63 66 61 62 58 52 42 43 52 66 79 86 87 93 91 82 74 72 68 57
23 23 30 37 39 51 51 50 47 39 40 53 49 62 75 64 51 48 41 54 68 67 61 60 57 56 57 56 55 57 59 59 59 53 52 62 63 65 72 84 87 85 90 92 87 78 75 73 66
24 31 48 57 58 62 62 57 45 32 28 41 48 49 72 70 58 61 66 59 55 51 54 57 65 70 70 69 71 70 68 68 70 70 69 76 66 68 70 74 78 82 86 93 92 89 79 74 73
30 32 60 58 76 69 60 54 43 28 26 23 37 46 53 73 71 60 55 50 50 52 52 57 64 71 80 84 86 78 76 76 71 74 70 68 65 55 55 75 73 81 90 97 96 89 82 81 90
29 38 33 60 63 74 64 50 34 27 21 17 32 39 54 54 67 62 61 61 54 48 48 48 52 56 64 74 82 85 78 77 73 69 68 67 74 73 68 70 77 88 96 100 96 89 87 88 94
27 30 46 55 77 74 62 57 47 29 21 22 22 42 46 49 54 64 64 60 56 52 46 55 56 56 53 62 67 73 78 76 73 73 68 69 72 70 70 77 80 81 94 100 99 97 91 90 94
32 37 39 42 60 74 67 51 38 30 24 22 24 26 35 44 47 50 49 47 50 54 59 60 66 66 65 58 57 65 70 77 80 77 74 74 78 73 71 75 86 81 90 92 93 96 94 95 86
26 29 37 61 55 59 64 53 28 28 26 25 21 18 26 26 30 34 34 34 45 49 63 62 65 61 62 58 59 55 66 76 79 77 86 84 83 80 74 79 95 88 94 96 95 96 95 96 94

GFSSGP_850_rhum_087.txt.gz
RH
16 19 28 28 26 35 35 29 22 27 35 36 36 43 51 63 57 50 77 74 86 95 56 44 42 49 46 40 37 50 53 34 35 29 23 19 16 15 17 25 39 36 32 37 46 50 56 62 57
17 20 32 28 34 37 33 25 26 42 38 33 39 43 60 64 59 53 59 53 76 90 68 59 53 46 40 56 57 51 42 37 34 29 20 15 15 16 19 30 43 32 39 52 59 62 68 64 58
17 17 24 38 43 39 36 25 26 41 40 40 40 53 62 63 68 55 55 55 78 98 81 68 54 41 36 38 63 44 38 39 35 28 16 15 15 17 34 46 34 34 51 58 64 64 66 60 59
19 22 22 32 30 30 28 23 20 43 48 49 46 48 46 47 49 55 57 58 90 70 76 76 55 48 46 41 40 66 42 40 36 26 15 14 16 26 47 38 30 48 51 63 67 66 69 65 66
26 25 31 30 29 23 22 17 25 42 50 46 47 49 53 54 60 41 52 52 62 64 67 73 76 58 59 48 52 67 57 41 38 25 16 19 27 41 47 30 30 39 54 62 66 64 60 60 63
24 23 34 32 28 22 20 18 41 49 45 49 54 62 59 57 66 64 57 62 62 69 56 64 75 83 78 58 56 60 77 44 40 24 16 22 39 51 38 29 31 43 55 66 66 62 59 58 61
27 35 35 29 30 24 18 25 45 50 50 48 52 66 56 49 60 57 64 72 69 70 63 75 82 76 76 67 57 60 81 50 47 20 20 29 42 44 35 33 34 46 59 66 64 62 60 59 59
21 32 30 30 26 22 16 29 40 44 46 46 56 69 53 43 75 93 91 86 73 70 70 65 67 73 87 93 93 78 78 67 35 21 26 52 45 47 36 36 37 42 58 60 56 60 60 59 58
21 32 36 28 22 18 14 26 44 48 47 50 56 50 49 46 84 89 100 99 98 96 85 78 84 83 87 89 98 84 85 70 28 20 32 79 56 50 39 38 41 42 44 44 46 44 57 60 58
25 33 27 21 18 19 18 26 41 55 57 59 52 54 58 63 82 85 92 85 76 72 70 95 83 94 97 85 93 93 95 84 35 22 78 86 71 53 44 41 42 45 47 52 54 51 46 51 56
23 29 22 18 16 17 18 43 45 56 67 63 62 63 63 73 93 100 98 96 89 65 72 91 94 99 97 94 99 98 85 86 44 39 77 75 70 58 48 45 46 47 49 48 54 58 56 52 46
20 18 18 17 18 24 23 37 51 55 53 63 67 60 68 92 94 97 98 94 84 69 84 98 78 87 100 96 100 92 93 72 50 44 45 58 64 58 58 45 42 46 48 48 57 55 57 57 64
22 20 20 20 20 25 32 38 41 60 71 71 66 69 98 91 88 96 100 100 98 90 99 99 86 90 85 98 97 86 85 63 41 42 50 52 59 50 40 38 44 43 48 52 57 58 57 62 68
21 22 24 21 20 23 31 39 42 47 74 78 73 74 88 98 99 100 98 98 94 99 100 99 95 96 98 84 89 82 62 45 35 49 57 54 40 38 37 42 44 41 52 59 56 64 64 68 72
23 27 28 23 21 26 27 35 47 35 59 92 83 88 94 99 100 99 99 100 99 99 100 99 84 84 99 96 86 73 48 44 48 54 46 38 38 39 36 40 49 40 59 63 64 71 70 71 64
28 30 36 27 25 26 27 38 39 42 77 91 86 94 100 99 99 99 98 100 98 99 100 100 99 88 98 96 75 61 65 60 68 60 50 43 40 43 35 42 46 49 63 64 68 72 72 72 42
38 43 39 35 26 29 33 36 39 45 67 90 90 98 98 99 100 98 99 99 100 99 100 100 100 100 100 87 73 74 70 65 62 57 55 51 50 44 42 45 52 53 61 68 70 74 75 55 42
48 44 36 40 32 36 40 42 42 48 60 78 86 100 100 94 100 90 99 100 100 100 99 100 100 100 99 86 85 80 62 51 47 60 70 52 52 52 47 56 62 57 65 71 75 80 72 67 50
34 38 41 34 28 33 34 41 34 46 54 86 100 97 92 88 96 97 100 99 99 100 100 100 100 99 97 82 80 64 76 58 58 60 65 55 52 44 58 71 66 70 70 72 80 82 78 74 59
38 42 42 35 28 31 35 36 29 59 61 73 94 89 71 85 94 98 98 98 100 100 100 99 100 99 94 92 74 68 88 78 70 63 63 57 52 53 69 77 75 76 75 86 86 84 80 80 62
38 42 42 40 31 30 29 35 30 45 59 70 85 75 56 52 80 99 98 99 98 99 98 100 100 99 97 90 74 67 70 73 91 69 58 55 59 59 61 68 72 78 78 80 83 84 83 82 70
43 34 34 36 39 42 29 49 36 37 64 74 80 81 63 50 46 83 91 92 99 99 99 88 83 97 98 86 76 79 73 76 74 73 62 57 58 61 60 68 80 80 80 78 85 84 85 84 76
37 32 36 38 38 38 36 46 41 56 66 70 71 79 66 55 42 39 62 75 74 85 81 80 81 83 84 91 88 82 76 77 85 72 62 59 60 63 63 65 79 74 80 76 83 86 90 85 73
29 32 33 43 44 55 47 50 53 47 48 52 58 63 66 54 54 38 42 71 69 68 71 66 62 68 75 80 78 68 64 65 68 64 61 58 58 61 57 52 55 64 73 78 84 88 95 90 76
34 38 56 59 57 62 56 69 54 36 33 38 51 55 57 53 56 49 40 52 58 61 62 57 60 59 66 72 70 64 64 66 64 61 59 55 51 51 49 42 49 63 73 78 83 92 98 93 80
36 37 62 57 73 57 60 66 46 35 29 29 30 33 51 64 49 44 39 40 49 41 39 46 46 44 50 59 63 61 60 59 60 56 53 49 46 38 37 46 56 63 69 74 79 97 100 97 86
32 40 32 50 67 78 62 52 40 34 32 24 41 46 48 54 52 44 42 35 33 40 36 38 42 45 51 52 51 49 47 48 48 44 43 44 50 56 64 60 56 63 74 78 87 93 97 98 93
27 32 45 60 73 80 64 57 52 38 25 24 41 51 48 47 54 52 49 44 38 33 39 41 45 52 58 61 62 64 66 66 67 67 68 69 64 66 69 71 75 69 71 85 86 88 98 99 95
36 32 40 42 63 54 70 59 43 41 35 23 23 36 40 45 45 44 42 47 47 45 42 43 45 49 54 61 72 79 80 81 81 74 72 74 78 77 74 76 78 81 89 95 86 96 98 99 95
27 29 35 54 58 64 66 53 30 36 31 27 23 20 28 41 32 36 37 44 56 56 58 52 48 48 48 47 58 58 62 74 76 79 83 87 88 85 81 82 86 97 100 91 91 100 99 98 98

GFSSGP_850_rhum_090.txt.gz
RH
16 19 28 25 25 34 32 29 24 25 31 38 39 45 60 65 63 49 69 82 90 72 53 50 49 52 49 62 59 56 57 57 65 67 64 38 20 18 49 65 66 58 39 30 29 32 31 28 21
17 22 29 24 34 38 32 26 25 31 33 35 36 43 60 56 57 47 52 52 66 88 68 50 54 54 51 63 62 55 60 56 63 60 34 20 18 25 57 63 54 41 35 35 46 45 47 35 41
17 17 23 38 44 35 34 26 22 28 33 38 38 47 60 51 37 49 40 45 50 85 87 58 54 50 47 64 61 53 51 46 35 27 22 19 22 33 56 44 37 35 32 37 56 54 58 63 58
21 22 22 32 29 28 27 23 24 29 45 47 44 52 43 35 39 56 51 55 45 73 95 55 55 54 48 50 57 54 45 39 34 29 23 22 24 34 37 37 35 40 42 49 58 61 63 67 65
27 24 32 30 29 26 26 21 19 42 44 46 48 47 48 39 43 52 64 64 60 57 81 71 56 57 49 53 46 41 36 38 34 30 21 20 31 39 40 41 58 47 46 52 61 64 66 68 67
25 24 33 31 27 23 22 18 35 42 41 48 53 56 47 43 45 49 60 61 67 64 66 72 80 81 63 57 44 42 39 39 36 26 19 20 39 43 39 44 54 57 49 54 61 62 64 66 67
28 36 32 29 29 26 19 27 40 49 46 48 47 59 48 43 42 50 57 61 62 60 58 72 77 73 59 55 46 43 36 46 46 35 33 28 48 43 36 52 57 57 53 56 60 59 62 68 66
22 34 32 33 29 24 17 30 31 43 44 47 53 64 52 41 41 55 61 63 56 62 60 62 71 77 65 66 64 53 46 57 60 50 35 33 53 41 38 54 62 60 58 62 60 58 60 63 64
23 35 38 30 26 19 16 23 38 44 50 52 53 50 48 45 48 76 98 78 64 71 67 77 72 73 79 89 69 61 57 68 74 64 58 59 54 40 40 60 64 63 64 62 56 57 58 58 60
29 38 32 25 21 20 19 21 32 50 57 55 52 48 54 57 62 87 99 94 90 90 99 99 90 80 78 98 95 80 81 76 74 82 72 64 53 43 44 62 64 64 61 57 54 59 58 56 56
27 33 27 21 18 19 20 29 36 56 57 50 53 50 64 68 87 98 98 99 100 93 93 96 99 86 82 85 99 98 83 85 79 79 79 66 52 47 48 57 57 52 47 43 43 47 52 54 49
23 22 20 17 18 24 26 29 52 52 42 49 57 63 67 74 85 81 81 94 100 99 99 98 89 84 88 98 100 98 89 89 85 78 88 73 57 49 48 50 52 50 52 51 54 55 53 49 40
24 21 20 20 22 22 25 39 49 53 49 64 64 69 80 84 86 89 94 92 98 91 85 96 91 95 88 100 100 98 93 81 75 93 85 84 61 45 47 50 50 52 56 53 58 59 60 60 48
23 23 25 23 22 23 33 37 43 36 53 70 71 77 96 87 88 96 95 96 100 98 97 100 96 99 100 100 99 98 98 79 77 86 88 86 56 48 45 44 47 50 54 57 58 57 63 64 59
26 31 31 27 23 24 26 37 54 33 62 72 79 88 98 100 97 95 98 100 100 100 100 99 95 100 99 100 95 90 88 80 61 78 62 66 59 54 42 40 41 39 54 63 62 63 63 66 67
32 32 38 25 26 25 29 38 32 33 61 89 88 97 97 99 98 96 98 99 97 100 100 100 89 92 96 99 100 98 94 67 39 59 58 58 57 46 40 44 44 36 57 64 61 65 65 74 66
42 47 40 36 27 29 32 40 32 36 72 94 96 98 98 99 98 98 96 90 95 100 100 100 97 95 83 93 94 96 84 60 58 54 48 59 54 49 55 56 41 43 60 63 65 69 71 73 52
48 46 43 44 31 33 39 44 34 36 58 86 93 98 98 96 98 97 100 100 98 100 99 100 100 99 100 94 96 86 78 67 65 65 63 50 45 57 63 53 53 44 62 67 71 72 75 71 52
37 42 44 40 30 30 35 37 32 36 55 71 92 99 99 89 92 97 98 100 100 98 100 99 100 100 100 96 80 79 91 82 87 80 75 50 73 77 60 60 56 50 64 68 70 74 80 69 59
39 42 44 39 30 34 35 36 31 42 54 52 74 97 98 92 99 98 92 98 98 100 99 100 100 100 99 91 85 86 92 80 77 63 51 52 55 61 64 52 57 54 68 72 76 77 79 76 69
43 43 42 41 33 34 36 40 33 35 57 58 64 74 83 70 80 98 98 96 97 96 97 100 99 99 98 91 78 86 82 84 84 67 60 65 73 65 50 53 56 66 75 78 77 81 83 81 75
47 38 36 38 44 53 33 57 38 30 49 71 73 76 83 76 70 70 100 99 99 98 99 97 99 100 100 92 86 84 77 70 67 61 70 77 66 60 52 62 64 78 83 78 81 86 90 87 82
41 35 42 42 48 45 41 54 45 48 44 47 66 63 72 69 51 51 57 96 89 99 98 99 100 99 99 90 92 81 84 77 65 60 64 68 67 58 57 68 66 71 77 78 86 89 94 92 87
34 38 37 44 52 68 49 51 52 41 44 41 50 52 52 67 59 50 44 60 80 95 97 97 95 99 99 98 92 81 65 60 67 66 70 69 55 58 66 67 67 58 62 70 76 80 87 90 92
37 44 60 62 67 70 49 69 51 35 35 39 37 42 41 52 57 50 50 56 64 62 75 81 88 92 97 99 92 81 75 78 77 73 70 67 66 64 57 59 62 56 56 60 68 78 81 83 96
40 44 68 62 67 54 65 75 52 38 35 32 28 30 35 50 53 45 44 37 48 57 56 48 48 68 75 82 83 81 80 77 76 70 70 65 66 62 58 56 54 54 57 50 55 67 81 82 82
35 48 37 47 63 75 64 56 39 34 29 32 29 44 41 44 41 42 40 41 31 40 39 37 38 41 47 63 68 68 66 64 61 64 65 67 64 59 57 54 52 54 54 44 55 65 72 77 80
26 31 41 63 71 77 65 62 48 33 33 30 30 52 43 46 43 40 40 40 38 31 44 44 38 32 32 38 41 46 57 60 61 63 63 63 62 57 55 54 54 49 47 70 77 71 75 83 83
37 36 42 43 61 59 62 60 48 36 33 34 28 26 41 41 35 32 32 38 44 40 34 39 42 40 41 40 41 43 42 41 41 44 45 48 50 49 48 48 55 66 74 76 83 88 88 91 94
28 33 33 45 53 70 61 44 31 36 34 36 27 20 22 28 31 31 41 46 47 47 45 40 44 42 40 41 45 46 53 55 55 56 57 60 61 65 69 73 78 88 88 91 91 96 100 77 78

GFSSGP_850_rhum_093.txt.gz
RH
16 19 26 24 18 21 22 21 22 20 26 35 37 41 39 48 43 35 48 66 66 80 60 56 52 53 59 58 62 59 62 64 60 56 57 56 32 34 52 50 68 69 61 33 24 26 27 26 23
17 22 27 22 21 21 19 20 20 21 25 35 38 46 51 45 49 44 48 64 63 76 60 58 58 48 44 43 56 61 62 66 62 61 59 50 30 43 51 54 72 65 36 25 26 23 21 25 21
17 19 21 24 28 20 20 20 17 17 27 39 37 40 57 48 45 43 50 50 53 76 68 61 60 60 57 53 60 61 65 68 64 64 59 36 35 49 51 67 65 40 31 30 35 25 43 43 24
22 21 22 23 23 21 20 16 20 20 40 46 45 36 39 32 38 39 50 50 53 63 79 60 57 58 58 62 62 59 65 68 67 59 50 30 33 43 63 58 41 40 37 43 46 45 52 49 34
25 22 23 24 23 20 20 20 20 21 36 46 47 37 45 36 38 39 44 59 62 62 88 88 63 65 56 60 61 61 68 69 54 38 25 23 35 47 58 44 41 72 82 63 57 60 59 57 49
23 23 24 22 21 19 18 19 24 32 39 47 50 50 45 39 45 39 39 51 55 62 70 87 87 68 76 69 61 64 66 58 35 30 26 21 25 41 44 39 69 83 68 59 60 62 62 62 57
22 23 23 23 23 23 18 22 38 30 38 42 43 47 44 44 44 38 44 49 54 62 66 68 94 94 72 70 76 57 46 36 35 33 28 20 27 40 41 58 62 60 60 59 60 64 65 63 56
23 23 30 27 24 19 16 26 25 36 27 42 47 45 45 43 42 42 45 49 45 51 72 81 88 68 71 75 94 62 45 38 37 31 27 25 28 44 61 45 54 60 60 60 61 65 66 63 55
23 25 27 24 25 18 17 21 26 34 49 49 46 43 45 47 49 49 52 54 52 50 61 72 78 85 78 85 87 72 62 47 37 30 38 38 43 53 59 53 61 62 62 59 60 67 69 62 54
23 27 25 21 19 18 18 22 20 44 53 50 50 44 44 49 58 57 56 64 74 69 63 65 81 87 86 85 80 72 82 62 41 48 67 53 53 43 48 66 66 65 62 60 62 64 66 58 52
28 24 24 21 20 20 20 21 30 44 35 39 40 41 46 54 64 63 78 92 96 96 84 84 91 80 92 91 94 93 93 67 52 55 63 49 52 45 61 70 69 66 62 62 61 64 61 54 49
26 24 23 18 17 24 22 26 39 48 26 32 39 46 58 60 63 79 99 100 90 99 95 86 81 82 88 95 100 100 90 79 68 66 72 65 56 54 59 67 65 62 60 56 61 60 58 52 39
24 20 20 18 19 25 25 28 30 41 26 36 48 52 61 62 80 94 100 100 99 98 95 90 89 87 95 99 99 99 93 81 84 77 84 57 58 60 61 63 60 56 44 45 51 53 53 46 36
24 22 21 25 25 25 24 23 42 23 26 40 56 61 78 71 76 80 88 97 100 99 92 82 85 92 82 84 86 100 88 83 88 90 76 64 65 57 63 58 49 47 50 55 54 57 55 55 45
28 30 27 26 24 23 25 29 38 27 36 64 73 78 95 89 77 89 90 98 98 98 100 100 100 96 98 89 98 100 100 95 93 90 80 76 67 55 52 47 46 51 51 56 58 62 61 61 59
31 32 30 25 25 25 29 26 26 27 53 70 84 93 98 100 90 99 95 98 99 99 100 100 100 98 94 100 100 100 100 98 94 83 87 86 61 51 49 47 48 52 53 56 57 64 66 65 64
38 26 34 26 26 28 31 30 25 37 59 61 81 90 93 98 99 98 98 96 97 99 98 99 96 100 100 100 99 100 96 92 85 87 75 77 66 48 45 47 50 52 57 58 58 66 67 66 67
33 39 40 32 28 28 27 28 24 29 49 52 74 88 90 93 98 96 99 95 89 99 100 99 98 100 100 98 97 98 95 87 90 81 72 76 68 48 48 48 52 57 63 64 60 69 71 72 68
33 35 34 33 29 29 25 26 24 22 37 49 70 84 90 94 92 98 98 99 96 98 94 99 99 100 96 100 99 100 94 96 70 72 66 68 69 64 59 57 57 57 65 55 59 73 75 76 61
35 35 36 32 28 31 28 27 22 24 28 38 52 74 81 92 96 99 98 100 98 98 97 99 97 100 100 100 100 99 94 69 52 69 73 71 75 60 58 65 67 58 66 63 64 70 76 77 66
39 40 39 35 31 30 31 31 27 24 39 48 60 63 77 74 85 94 97 99 100 98 100 97 93 100 99 100 98 90 72 60 68 87 68 75 63 62 62 80 70 62 58 52 58 71 78 81 74
38 34 35 37 37 36 31 37 32 25 24 32 55 76 80 70 75 76 92 88 97 93 95 100 99 100 99 99 92 76 71 73 76 87 77 72 62 58 70 66 64 57 56 51 62 69 77 86 85
36 33 36 36 41 41 36 41 33 35 30 25 26 65 78 57 65 67 71 66 90 98 94 94 99 100 100 95 82 71 80 85 84 76 73 58 55 60 61 69 76 62 54 60 74 81 88 88 90
34 36 36 44 46 55 44 39 34 32 29 25 30 44 66 59 65 61 67 86 72 98 100 98 98 99 100 100 90 75 69 83 79 75 64 54 54 58 78 75 68 63 69 71 68 69 79 86 97
36 37 44 56 60 50 40 46 33 31 27 27 25 28 42 51 62 58 60 70 68 81 88 94 99 100 99 99 93 83 81 71 69 79 64 54 63 66 68 69 78 75 65 66 68 67 74 80 80
38 36 42 47 53 42 58 53 36 33 29 32 32 32 33 46 48 54 51 49 36 51 61 68 73 86 98 99 98 95 91 77 68 64 62 54 58 67 64 69 67 64 64 65 68 61 58 58 58
37 43 30 39 57 54 44 49 36 31 29 29 25 30 41 42 41 44 49 47 31 37 42 50 59 66 74 80 89 94 89 86 76 72 66 70 68 71 65 60 57 62 65 65 64 60 58 58 53
27 33 47 48 48 44 44 52 32 30 25 24 24 28 37 44 47 45 46 45 41 28 38 42 42 44 51 66 76 77 79 78 75 75 79 79 75 70 68 65 65 69 63 61 60 56 59 62 71
33 33 35 40 52 43 42 42 41 32 26 28 26 29 23 42 38 36 42 47 48 40 29 36 40 36 37 43 50 61 64 65 67 62 62 63 66 66 67 65 64 61 59 58 59 60 69 87 92
29 34 31 42 40 59 48 36 29 35 31 34 31 24 21 25 35 33 38 46 50 45 41 34 37 37 34 36 38 40 41 43 43 48 45 51 55 58 58 57 58 57 54 52 61 75 76 82 89

GFSSGP_850_rhum_096.txt.gz
RH
14 18 24 24 15 13 14 14 12 13 15 19 25 25 21 26 22 24 40 39 57 83 86 78 67 67 60 58 59 56 60 60 50 51 35 33 30 23 34 51 45 66 55 41 31 20 21 23 24
16 20 29 17 15 13 12 13 14 13 14 23 25 27 29 26 38 42 48 30 46 68 94 91 65 65 60 58 62 61 66 62 53 49 36 36 36 31 26 54 61 67 47 28 23 22 23 21 17
17 21 17 14 14 12 13 13 12 13 15 21 21 30 28 24 45 47 37 38 41 46 89 95 74 67 65 62 71 66 65 64 56 50 44 40 36 29 32 56 70 60 31 23 23 20 18 18 18
20 18 16 15 13 13 13 12 13 14 20 25 26 25 29 34 42 55 34 38 43 47 75 99 89 77 72 67 72 66 69 66 58 53 51 43 31 33 45 64 72 43 26 23 24 28 21 21 19
21 15 11 12 13 13 12 13 14 14 17 24 30 21 28 40 37 36 38 41 63 72 60 73 96 86 79 70 55 68 69 69 60 57 54 39 36 35 49 71 54 35 28 26 44 37 27 24 21
15 14 12 10 12 13 12 14 16 18 18 20 30 28 25 38 36 60 40 47 58 56 75 69 74 88 98 74 63 76 76 71 63 62 53 35 35 45 64 57 41 36 40 42 51 45 42 39 27
13 12 10 10 11 14 12 15 19 14 14 18 29 28 22 46 60 39 43 51 52 59 65 67 69 83 90 97 86 74 77 71 67 64 45 26 23 50 56 46 57 55 53 57 60 57 53 49 35
15 12 12 10 10 13 12 14 18 18 15 33 37 22 22 41 38 41 43 56 53 72 73 67 82 62 97 84 93 87 88 73 72 57 35 27 35 41 49 56 59 61 58 64 64 61 55 50 40
18 14 13 11 11 10 13 16 17 25 25 31 34 33 40 58 42 48 75 92 89 90 76 78 69 68 84 89 87 84 96 90 70 47 42 45 50 53 59 80 58 58 62 67 68 66 58 50 42
15 13 11 10 9 11 13 16 16 19 18 24 26 35 54 67 68 68 75 84 94 99 100 94 85 73 61 64 66 60 70 98 67 42 59 76 54 67 94 69 58 61 64 66 72 70 60 54 43
15 15 9 12 12 14 13 14 15 18 16 14 16 19 38 66 74 76 81 87 91 97 99 97 95 99 74 79 67 73 81 92 73 54 44 85 84 84 89 77 63 62 63 70 74 74 70 82 79
19 15 12 12 12 15 14 14 15 16 17 17 29 33 51 63 66 73 87 91 95 99 96 98 97 98 99 94 84 93 96 93 83 70 69 83 82 87 80 84 86 68 77 82 87 83 87 88 82
21 14 14 13 14 14 16 16 16 15 15 17 33 60 57 60 67 89 99 92 96 96 97 98 96 96 95 97 99 92 89 93 88 86 72 85 85 90 70 83 87 88 87 92 94 92 79 55 47
12 16 13 13 14 15 18 15 13 16 14 28 49 52 64 69 74 84 84 97 90 98 96 98 89 90 90 99 99 100 96 88 98 99 81 88 86 61 58 81 83 87 88 89 90 86 70 49 55
18 18 14 14 14 14 14 16 13 14 24 32 46 56 62 65 72 73 80 94 96 93 98 98 98 99 95 88 88 96 99 98 90 99 83 72 56 54 42 52 80 79 83 86 86 64 68 54 54
21 19 21 14 13 14 19 15 15 21 27 22 30 48 62 68 72 77 85 97 94 91 99 99 99 87 90 89 84 91 100 99 92 100 92 84 68 56 46 56 80 74 73 67 57 72 58 61 60
19 22 18 18 14 13 20 16 15 24 25 24 26 38 49 60 78 83 88 96 90 99 100 100 99 88 95 97 76 98 100 99 94 98 96 89 78 55 38 62 76 49 50 57 59 62 61 62 64
22 22 21 20 14 20 17 19 15 15 18 20 22 32 43 53 61 78 87 83 88 99 100 100 100 92 99 99 98 100 100 100 100 100 98 90 85 69 46 62 54 52 56 57 63 65 64 70 66
18 21 20 16 17 22 19 14 13 14 15 17 21 31 39 48 59 75 93 83 86 98 100 100 99 93 100 98 100 100 100 100 100 100 99 100 88 66 50 51 49 54 56 60 62 68 69 67 70
23 24 21 17 16 20 19 16 14 14 14 16 18 25 34 45 62 76 91 78 84 100 100 99 98 99 100 98 97 98 99 100 99 99 99 95 95 59 50 50 50 59 67 60 65 69 77 70 74
25 24 22 22 18 19 21 20 13 12 17 20 26 27 31 39 54 69 90 71 87 97 100 99 91 96 100 99 91 92 97 99 100 100 97 89 91 63 52 54 53 53 55 60 63 69 70 67 73
28 19 22 22 22 26 20 22 13 15 16 15 15 26 33 39 52 62 77 89 82 95 98 98 96 95 100 100 98 92 93 93 90 80 90 84 87 84 76 61 59 62 61 63 61 69 55 72 76
26 22 20 25 25 24 23 26 18 15 21 17 14 16 32 42 50 59 68 80 66 96 89 89 97 97 99 100 100 100 100 78 74 83 82 74 73 72 84 70 65 79 72 62 54 58 60 70 80
23 29 30 30 30 39 30 24 18 16 19 16 15 21 32 42 51 57 64 70 89 98 99 91 91 93 99 99 100 98 81 68 68 78 82 73 73 82 76 68 59 68 67 58 56 54 57 67 74
28 35 41 46 45 41 22 29 20 19 17 16 16 16 30 42 51 58 61 65 76 93 96 97 92 88 97 98 91 89 83 67 69 76 95 94 84 75 65 67 70 67 61 59 59 61 69 72 78
33 34 37 38 36 31 28 33 23 18 16 16 21 22 27 40 50 55 56 62 70 87 88 93 97 88 88 97 94 84 97 79 76 90 92 83 70 65 60 60 59 55 62 67 74 79 76 74 69
25 36 26 30 27 39 30 28 25 20 20 18 18 17 23 35 46 52 55 63 63 80 88 86 96 95 92 94 98 92 83 73 82 95 93 74 76 68 53 54 57 66 75 84 76 84 97 95 84
19 19 37 34 44 39 25 25 25 20 19 16 18 16 20 29 40 48 53 62 66 67 72 85 94 95 99 97 98 95 97 93 95 93 92 91 85 82 82 90 92 91 89 89 91 94 96 97 95
21 27 27 25 29 36 35 25 19 19 18 17 17 17 21 29 38 45 51 60 69 74 65 55 75 93 92 96 97 98 99 98 98 94 85 82 80 85 90 91 94 94 92 92 94 94 89 92 79
37 28 23 31 30 32 33 29 18 19 19 18 19 21 22 29 37 42 50 57 65 73 70 33 42 50 62 75 86 91 96 96 96 85 90 81 77 82 84 91 93 92 90 89 89 76 61 58 59

GFSSGP_850_rhum_099.txt.gz
RH
10 15 25 21 15 11 10 10 9 9 10 12 15 14 14 15 17 22 47 57 27 59 69 72 68 63 66 72 68 56 50 46 46 42 38 35 34 35 29 40 82 59 43 54 35 32 22 20 19
26 22 23 18 14 12 8 9 10 9 10 14 15 15 15 16 18 24 34 54 35 62 75 85 69 64 66 83 71 62 53 49 52 52 40 35 33 40 39 36 82 52 40 34 28 22 21 23 25
26 23 19 13 12 11 9 9 9 9 11 12 12 14 17 15 23 28 57 40 50 69 76 79 82 69 66 86 73 70 56 53 64 54 37 38 31 46 52 36 68 55 36 22 22 24 24 21 17
17 14 12 11 11 9 10 8 9 10 10 13 13 15 14 20 23 40 60 57 59 67 76 83 87 85 75 80 79 75 66 57 61 51 35 37 50 57 66 61 44 52 25 21 22 18 16 16 16
16 12 11 10 9 8 9 9 10 10 10 14 14 16 13 18 32 52 66 51 51 64 83 64 71 76 78 76 80 84 73 65 61 51 41 41 65 80 66 63 59 46 22 20 18 19 20 18 16
13 10 11 11 8 7 9 10 12 11 12 13 15 16 15 28 37 44 55 48 39 38 87 52 61 77 59 61 95 94 76 72 63 53 41 42 55 76 67 72 56 33 22 24 22 22 20 17 18
14 10 12 9 8 7 9 10 12 11 11 12 13 17 15 21 48 61 62 40 36 40 46 64 55 66 66 51 72 98 84 76 66 54 47 46 45 58 70 68 42 28 25 36 28 30 23 21 20
12 10 11 10 9 8 7 10 12 12 12 14 18 14 15 44 65 69 65 56 42 46 53 72 62 71 65 84 84 82 96 82 74 55 52 40 51 59 73 53 39 31 34 45 40 42 37 26 24
13 12 12 10 9 8 6 11 11 13 15 14 14 20 21 37 54 60 65 84 80 59 70 66 73 75 73 97 81 88 86 92 75 64 53 41 64 46 64 78 45 42 49 54 50 48 41 32 29
11 12 11 8 7 8 8 9 11 12 12 12 13 15 20 44 53 51 54 59 72 86 83 92 75 64 98 86 81 88 98 99 86 68 57 60 64 67 92 77 73 62 61 59 52 50 44 36 33
11 12 9 8 8 8 8 8 9 10 12 12 12 14 18 28 47 55 58 64 68 73 83 85 88 68 80 91 77 99 77 82 99 81 68 77 60 79 94 80 88 71 67 65 60 56 50 75 69
13 11 10 10 9 9 9 10 9 9 10 11 12 14 24 32 46 53 59 70 68 80 92 89 89 88 78 82 83 85 78 79 99 87 73 79 69 82 96 82 80 71 70 68 67 62 80 80 74
13 12 12 11 11 10 10 10 10 10 10 10 12 14 26 38 42 53 75 83 81 89 99 88 92 93 91 92 99 89 87 77 98 78 72 89 70 75 87 92 78 93 92 74 87 83 80 82 77
11 11 12 13 11 10 10 10 11 10 10 11 14 20 31 42 47 57 71 73 84 95 100 96 91 93 88 90 96 94 89 76 86 83 78 82 72 81 87 90 85 85 87 87 86 78 81 82 74
13 14 13 12 12 11 11 12 12 10 9 10 18 23 34 40 48 54 57 64 81 97 99 99 97 92 91 91 94 94 91 87 80 92 79 69 73 88 79 85 79 75 79 80 76 84 81 73 68
19 17 20 13 12 11 12 16 10 11 12 17 17 17 30 41 46 50 58 68 79 100 96 98 95 93 96 88 86 100 99 88 90 96 88 82 86 94 82 85 76 75 77 81 78 81 72 65 59
19 22 18 15 12 12 12 15 9 14 16 16 16 16 20 33 49 55 62 74 90 100 95 91 90 98 97 90 82 88 93 94 96 96 91 88 89 92 86 84 66 79 84 80 79 75 67 62 56
23 19 17 18 13 12 14 13 11 10 12 13 13 13 17 24 37 54 62 75 96 100 88 94 98 94 87 92 94 93 91 95 96 100 100 95 86 86 83 54 67 80 81 80 79 72 69 67 61
20 18 17 15 13 14 15 15 12 10 10 11 12 12 15 22 33 48 62 79 93 96 87 88 98 99 92 98 95 99 97 100 100 100 98 98 91 96 64 64 89 83 81 79 75 74 74 72 68
22 22 21 17 14 15 17 17 14 11 10 10 12 12 14 18 34 51 66 79 100 98 85 85 98 100 95 98 100 100 100 100 100 100 99 97 98 88 89 82 80 75 77 77 78 79 79 74 74
21 25 24 22 17 14 16 19 17 13 11 10 10 14 14 16 29 47 62 75 94 100 94 82 93 100 99 99 98 98 100 100 100 100 100 100 100 84 86 77 82 68 74 73 73 78 82 81 80
19 18 20 21 21 24 16 24 16 12 9 9 13 14 15 17 24 40 55 71 86 100 99 98 86 96 99 99 97 97 99 99 100 100 100 100 100 84 76 87 78 58 72 80 66 59 63 80 84
18 15 19 19 22 23 22 22 18 14 14 10 11 12 12 18 25 38 50 62 78 94 100 98 99 92 98 99 93 95 90 90 91 92 96 100 90 86 90 87 66 57 78 87 64 59 64 66 76
18 20 21 23 23 33 24 24 20 16 13 14 12 12 15 18 28 37 48 56 73 96 100 100 94 92 96 100 99 87 86 91 95 100 99 96 100 97 82 80 72 65 68 65 60 58 64 63 71
22 26 39 37 39 40 22 24 22 14 11 13 12 13 18 23 30 38 46 54 67 92 100 99 99 92 93 99 100 99 98 95 96 91 91 93 93 99 91 87 74 70 76 75 63 62 70 62 58
26 29 43 41 36 36 22 25 19 14 12 12 14 15 16 23 31 38 43 50 57 81 93 97 99 99 91 99 99 100 100 98 86 91 98 91 86 81 80 87 87 69 65 63 63 60 65 72 74
18 33 23 35 32 43 41 24 17 18 17 14 13 14 15 22 30 36 41 49 53 70 81 91 94 96 98 100 98 99 97 94 74 69 76 82 84 77 68 71 67 68 66 65 61 67 71 71 71
21 15 30 29 49 43 25 23 25 20 19 15 14 14 14 16 26 34 38 48 52 64 75 86 82 84 94 98 100 100 97 97 96 77 75 84 93 90 89 79 74 68 67 67 65 61 75 73 78
22 25 23 21 24 36 41 31 19 15 18 17 14 16 14 17 24 31 36 44 51 61 67 83 80 77 86 93 98 99 99 96 96 90 93 88 89 88 83 80 76 80 83 81 82 80 74 83 88
28 19 21 35 32 25 31 31 17 16 16 18 18 16 18 19 22 28 35 41 49 57 63 75 78 73 76 86 93 97 99 96 93 93 90 90 90 86 85 82 83 85 86 86 86 85 87 88 85

GFSSGP_850_rhum_102.txt.gz
RH
8 12 20 24 20 15 15 10 8 9 8 10 12 12 13 12 14 26 46 44 25 61 62 62 67 59 60 64 63 62 48 45 48 39 35 34 37 34 44 46 47 49 41 46 36 26 28 28 24
13 26 20 18 22 18 12 8 9 8 9 12 12 12 13 15 16 22 42 34 25 37 67 66 68 67 60 63 72 63 52 45 50 42 40 59 47 41 47 50 52 48 37 45 37 22 20 20 19
20 24 18 19 18 16 12 8 8 8 10 11 11 10 13 14 22 38 37 31 31 42 61 73 75 74 68 65 67 72 58 50 51 47 54 64 57 63 57 62 40 53 74 78 23 18 19 23 28
22 16 13 14 12 10 9 8 8 9 9 10 12 13 12 16 19 32 30 30 37 58 64 48 55 64 74 71 69 71 69 55 53 54 60 63 72 55 58 72 47 44 36 47 17 22 20 20 32
18 13 14 14 12 9 6 8 8 10 9 10 11 12 14 13 29 26 24 25 31 53 67 39 36 43 65 75 79 72 75 67 57 59 66 59 80 68 64 67 57 42 23 20 19 17 15 18 36
14 12 15 13 10 7 6 8 9 10 10 10 11 12 14 23 31 42 30 30 29 33 47 33 34 40 46 60 90 81 79 83 63 66 68 58 74 77 82 73 52 33 19 17 16 16 16 18 32
14 14 15 13 12 10 7 8 10 11 10 11 12 14 13 33 36 44 41 42 37 34 40 36 34 40 45 68 77 87 94 93 92 77 62 63 80 64 78 80 50 30 18 16 17 18 16 17 31
13 12 14 11 11 10 7 6 10 11 11 11 13 15 17 43 40 43 39 39 39 38 39 42 40 46 48 57 68 72 74 57 92 90 65 56 78 93 76 70 47 24 19 20 20 20 18 20 32
12 14 14 12 10 9 7 7 9 10 10 12 12 13 16 28 49 53 60 68 61 65 56 62 63 55 60 67 68 76 75 74 83 97 73 78 80 91 80 66 34 24 29 26 26 24 22 22 28
12 15 13 9 8 8 8 8 7 9 10 10 11 11 13 29 44 46 50 53 62 75 79 81 91 77 67 72 79 98 94 76 81 99 70 83 89 78 82 53 32 36 36 36 38 31 26 26 35
12 14 11 9 8 8 8 8 8 8 9 9 10 11 12 30 39 43 47 51 55 63 80 81 83 79 69 70 83 76 82 78 76 99 71 85 90 89 74 65 38 50 48 48 45 35 31 29 44
13 10 10 9 10 9 10 9 9 9 9 9 9 10 12 20 26 38 48 53 60 65 79 88 90 87 72 82 83 98 84 97 100 96 90 99 89 81 78 64 48 57 58 50 47 41 34 32 52
14 12 11 11 10 11 11 10 10 10 10 9 9 9 11 20 31 36 46 58 70 75 83 88 88 98 86 86 79 92 89 81 93 99 95 84 76 71 80 71 71 64 62 54 50 50 71 70 64
16 14 12 11 11 12 12 11 10 10 10 10 10 10 13 22 32 38 53 64 73 79 88 98 94 94 92 95 85 89 91 79 72 81 98 82 73 75 79 74 80 70 65 63 57 71 84 82 75
16 17 13 12 11 12 11 13 12 11 10 10 9 9 15 27 33 42 53 57 66 79 90 97 98 98 97 99 96 91 95 90 83 91 88 82 69 73 82 81 79 80 73 69 64 80 84 82 76
20 19 23 16 13 12 12 17 12 11 10 10 9 14 17 25 33 41 47 52 63 77 94 99 98 100 98 95 98 98 91 81 79 73 71 69 73 74 84 73 72 74 90 80 74 82 82 78 71
18 26 24 20 14 13 13 15 11 10 10 12 14 14 14 22 35 41 46 57 67 82 99 100 92 94 96 95 98 96 99 94 83 81 80 75 88 84 80 72 74 81 84 83 81 82 79 71 66
20 23 21 23 17 15 14 14 12 11 11 13 14 14 13 14 36 46 52 63 75 78 91 87 92 93 91 84 88 92 99 100 99 97 94 91 88 91 85 71 79 79 77 77 84 79 73 65 57
15 18 26 28 23 22 17 15 13 12 11 11 11 11 12 12 21 47 54 64 82 81 83 83 87 87 89 81 94 97 87 97 100 100 92 87 88 95 84 79 80 79 77 79 82 76 70 63 58
12 20 26 24 23 24 21 17 13 13 13 12 11 10 11 12 28 47 58 69 82 79 94 84 86 85 84 85 100 99 96 98 97 100 95 94 94 91 88 81 74 71 83 85 77 75 67 68 64
15 16 28 32 27 25 24 22 17 13 13 12 11 10 10 12 28 47 61 72 85 87 98 84 86 80 79 75 88 98 88 99 99 99 100 98 98 94 87 86 68 66 58 81 77 74 70 73 71
24 16 17 18 24 37 24 30 20 15 14 13 12 12 10 13 15 42 58 72 83 92 98 100 96 83 83 83 89 99 99 99 100 98 99 100 100 100 92 82 68 56 65 79 74 74 76 78 72
22 16 18 21 26 26 24 26 21 16 16 14 12 10 12 14 15 40 52 66 78 94 98 98 100 98 83 89 95 99 100 100 93 98 100 99 100 100 100 85 75 68 89 78 81 74 76 68 76
17 20 22 22 24 38 28 26 24 19 17 14 12 10 12 12 17 33 47 61 70 90 98 98 98 100 82 89 87 99 96 100 99 99 100 100 100 100 96 93 70 90 90 90 72 80 62 69 81
23 28 41 44 45 42 24 26 24 18 15 15 13 12 14 16 23 32 45 57 67 90 96 97 99 99 86 89 89 95 98 96 91 90 96 99 97 98 90 82 76 82 92 86 75 55 69 75 66
22 30 47 67 54 48 48 62 26 15 14 13 12 13 15 18 25 32 43 53 63 85 94 98 96 98 98 92 86 89 93 93 92 88 91 89 88 81 84 83 78 84 88 79 58 88 74 65 61
21 31 25 42 40 52 52 34 22 17 16 14 13 13 15 20 26 32 40 50 59 78 81 95 98 98 100 97 92 96 96 97 95 96 97 96 99 99 89 82 82 84 82 63 82 82 74 67 67
17 16 31 37 61 67 41 37 45 36 28 19 18 16 14 16 24 32 38 48 54 69 86 77 93 95 98 100 97 90 96 98 97 99 87 87 87 93 98 88 80 77 72 83 68 69 63 66 69
19 24 26 30 39 55 55 38 28 27 26 21 23 17 16 14 22 30 36 47 51 63 77 81 86 91 93 100 98 99 96 95 90 84 86 84 79 79 82 81 85 82 84 76 64 67 68 66 64
35 26 25 36 38 37 41 36 19 28 28 23 22 20 19 18 18 27 34 44 50 58 69 77 83 83 87 89 98 100 93 91 89 89 72 66 74 87 89 82 75 72 70 69 69 65 66 77 88

GFSSGP_850_rhum_105.txt.gz
RH
7 11 20 27 37 32 29 22 14 11 16 14 12 13 14 13 15 36 48 34 27 26 28 45 61 59 54 54 52 49 39 40 38 36 32 36 39 39 40 38 45 45 39 32 36 42 59 59 62
8 17 28 24 36 40 34 14 14 16 13 11 11 11 13 17 31 51 43 37 27 30 30 27 45 68 60 58 57 54 46 43 42 38 42 37 46 43 37 46 44 44 42 31 30 32 38 38 27
10 28 30 33 38 39 30 12 13 12 10 10 11 11 12 16 33 38 30 24 20 23 28 30 43 44 63 60 61 61 60 50 46 42 39 46 44 54 49 49 43 37 38 31 23 22 20 20 27
15 25 23 22 26 18 17 12 12 11 9 11 12 14 12 16 21 21 20 17 22 23 32 41 38 41 42 54 64 64 64 54 53 49 43 40 53 54 68 61 49 35 30 29 17 19 22 25 55
21 21 25 26 23 16 12 9 10 11 10 12 13 14 14 16 23 24 18 20 27 29 27 39 36 39 47 41 63 67 69 66 57 74 50 61 55 63 84 78 63 41 22 18 18 25 38 48 62
26 16 27 29 20 13 11 9 10 12 11 10 11 13 18 27 27 26 23 25 28 41 34 34 36 42 44 48 64 74 72 76 70 76 71 67 58 63 81 80 74 37 18 18 21 25 36 42 68
27 27 28 24 20 15 11 9 13 13 13 13 13 16 36 33 30 28 28 28 24 36 39 36 37 37 47 48 71 89 91 86 87 89 77 84 68 72 56 71 82 27 20 16 15 20 42 54 64
23 22 25 21 20 17 11 10 11 11 12 11 13 16 22 27 33 34 33 27 29 39 42 37 35 38 41 45 54 88 92 90 94 96 70 93 77 75 90 75 57 27 17 15 17 17 30 54 59
16 23 25 21 18 14 10 10 10 10 10 10 10 12 12 22 37 36 34 33 44 51 57 58 52 57 58 55 58 60 69 78 82 93 74 98 85 77 86 83 54 25 18 18 17 17 22 33 57
19 23 21 16 14 14 11 11 9 10 12 11 11 12 14 30 35 34 30 34 46 54 61 60 66 70 60 67 64 70 73 92 100 92 73 98 73 60 83 89 52 23 21 19 18 18 22 50 61
18 21 16 14 12 12 12 11 10 10 12 10 11 10 20 31 39 40 43 46 50 58 64 63 74 77 68 70 69 64 77 87 96 90 80 90 90 78 93 85 41 25 22 22 20 21 26 43 60
23 17 15 13 11 11 12 11 13 11 11 10 9 9 12 29 37 41 40 43 51 57 65 70 79 77 76 67 70 74 85 92 100 92 82 80 99 85 100 70 33 28 28 28 25 24 29 56 63
21 18 15 14 12 11 11 13 14 13 11 10 10 10 9 22 29 37 38 46 55 60 70 75 80 78 84 71 77 85 87 100 100 100 94 93 85 72 92 57 36 35 38 39 30 28 33 61 61
20 19 19 17 16 14 14 15 14 13 12 11 10 10 10 10 20 32 35 44 52 63 67 79 83 87 97 82 87 82 80 91 94 95 98 87 77 92 83 51 40 43 46 44 36 31 36 66 66
18 25 22 20 16 16 14 16 16 12 11 11 11 11 11 11 19 26 30 39 51 60 73 85 86 93 99 98 90 87 85 86 97 98 99 91 98 88 77 50 48 52 51 49 43 48 53 58 73
16 20 31 22 20 17 17 22 15 13 12 12 12 12 12 14 20 29 37 44 52 66 77 83 83 91 98 95 99 89 94 88 87 99 96 93 76 75 83 58 52 55 57 54 64 71 81 77 73
20 25 26 23 19 19 19 23 18 21 13 13 12 10 11 14 21 34 41 47 54 62 73 79 84 96 99 98 96 100 94 96 80 84 95 88 76 77 78 74 66 59 62 60 70 88 83 83 77
25 27 22 24 20 25 28 29 24 23 19 12 12 14 14 14 22 36 43 48 51 58 67 74 90 98 96 95 99 99 98 89 84 88 93 91 75 72 68 70 75 68 65 67 76 86 81 79 71
13 17 19 17 19 26 29 31 27 22 21 15 14 14 15 14 21 39 43 46 50 57 65 64 85 99 93 94 95 99 99 99 87 88 81 81 76 70 74 71 69 66 69 71 73 89 80 76 69
13 17 18 16 21 22 28 36 32 29 25 22 15 13 12 13 32 44 47 48 52 55 54 56 90 95 93 89 84 80 86 97 99 87 83 80 83 79 83 76 73 75 74 73 80 86 78 70 61
19 23 22 19 18 23 32 40 37 28 21 17 13 12 12 13 40 50 52 54 57 55 42 58 93 80 96 94 86 87 90 95 99 99 100 92 83 86 87 84 73 77 76 82 85 82 75 65 60
26 21 22 22 25 33 30 46 45 33 24 19 14 13 13 15 43 50 54 55 51 49 41 63 98 86 86 100 100 99 95 89 96 95 99 95 94 89 85 92 86 82 85 95 86 85 72 64 64
21 25 25 26 29 32 29 33 36 24 22 18 16 15 14 13 37 49 49 45 46 53 33 59 98 100 87 100 100 98 86 88 90 96 100 100 93 96 96 94 90 88 85 80 80 68 71 71 73
20 28 30 27 32 44 31 32 33 27 22 18 16 13 13 14 39 46 51 49 55 60 36 71 99 100 92 100 100 98 97 99 97 100 99 100 100 98 100 97 94 91 86 79 79 82 79 78 81
23 34 57 58 55 50 29 34 31 27 20 17 16 15 15 13 43 56 56 57 60 57 36 67 99 100 99 97 100 100 98 100 98 98 100 99 100 100 100 96 94 82 70 63 70 73 88 80 74
32 35 65 66 68 48 39 62 46 26 24 21 15 14 23 38 49 50 51 56 56 51 40 53 99 99 100 93 100 97 95 94 100 100 99 99 96 98 98 99 100 96 78 73 80 91 85 69 80
20 34 27 47 45 59 53 42 32 43 42 34 18 14 22 42 48 50 53 53 53 50 38 45 85 100 96 87 100 91 96 90 93 90 93 100 97 98 100 100 97 86 85 82 96 92 75 72 81
19 21 34 46 72 80 50 42 46 48 54 43 28 25 22 30 44 46 46 49 48 48 44 48 72 99 90 83 93 91 97 90 90 97 92 89 94 97 99 94 84 84 90 92 92 82 74 82 71
63 31 26 32 54 71 73 55 43 65 67 61 40 23 23 26 36 42 42 45 48 50 53 41 63 89 83 86 92 93 96 99 98 98 99 98 92 90 91 89 87 84 83 82 84 83 74 70 84
58 67 56 36 44 53 52 49 27 40 40 55 42 33 30 25 32 40 42 46 51 53 56 50 55 72 72 86 99 94 90 93 94 98 96 91 92 93 96 90 82 78 80 79 86 79 67 79 78

GFSSGP_850_rhum_111.txt.gz
RH
8 10 14 27 36 42 38 30 21 17 17 14 14 15 16 14 16 24 21 21 21 20 20 18 24 52 52 46 44 39 42 48 53 60 64 72 74 73 68 64 64 64 52 50 55 60 68 66 63
8 14 26 28 44 44 34 29 22 20 15 13 12 13 16 24 27 31 25 26 22 22 21 20 23 46 55 49 48 38 40 43 49 62 71 78 80 76 72 71 67 60 53 47 54 60 71 74 79
10 15 29 39 52 46 34 24 15 14 13 15 12 12 14 24 24 22 25 27 23 23 21 20 23 30 56 53 50 45 39 44 44 48 60 70 71 72 70 65 54 49 50 43 45 63 77 79 82
12 24 30 35 42 38 30 22 20 16 12 13 12 14 16 14 14 18 22 25 17 18 20 22 25 27 45 60 56 52 47 42 43 47 47 60 68 66 58 48 39 45 45 46 50 59 77 73 74
23 26 35 32 31 25 21 18 15 16 14 12 14 15 16 19 20 18 20 19 16 17 18 20 27 30 37 49 64 60 57 51 49 50 48 48 61 57 61 52 52 42 46 64 44 55 62 58 38
24 24 34 35 29 22 19 15 16 16 15 14 16 17 19 21 23 20 19 19 18 19 21 22 29 33 37 48 54 64 67 62 58 69 62 53 44 62 70 56 65 38 52 46 40 48 37 30 42
33 38 34 29 29 26 18 14 15 17 15 14 13 24 26 18 21 22 21 19 19 23 25 25 30 34 43 51 61 64 70 75 74 82 79 59 63 67 60 73 75 40 90 62 39 30 37 54 69
26 36 37 33 30 26 17 14 13 13 14 11 14 40 38 14 24 25 25 22 24 27 27 27 32 37 41 48 50 68 73 86 88 84 69 57 64 75 65 81 81 43 34 38 38 49 73 70 57
28 41 47 34 28 23 16 18 14 14 13 12 13 14 15 18 24 33 33 30 33 33 31 31 36 39 40 43 46 53 61 91 98 96 80 72 68 72 80 70 72 78 27 31 47 79 86 86 72
32 45 37 28 22 22 19 18 16 15 15 13 12 10 11 14 25 33 33 27 29 32 28 33 42 47 51 47 49 53 55 81 97 100 99 84 71 77 81 70 56 80 31 35 58 86 90 90 70
28 34 27 20 18 18 19 19 16 16 19 14 13 11 12 13 25 29 30 29 26 28 30 37 46 60 63 65 67 67 59 76 95 100 98 93 76 82 75 69 60 89 36 48 79 88 77 73 64
37 27 23 21 21 21 22 18 18 16 15 15 13 13 13 15 22 25 30 30 31 29 32 42 54 68 67 72 72 60 58 69 82 97 98 99 87 87 72 64 56 82 35 59 77 79 69 69 64
34 30 26 25 24 23 21 22 19 18 17 16 14 14 15 20 24 23 25 27 34 30 34 46 58 72 77 75 74 58 64 72 72 83 99 86 99 95 81 71 46 90 35 52 76 71 68 70 72
26 26 26 24 23 22 24 23 21 18 17 15 15 17 20 22 22 25 30 30 34 30 32 47 56 72 79 76 70 66 68 67 71 75 86 99 96 92 89 91 61 89 34 40 69 70 71 74 73
17 21 22 23 22 25 21 26 25 18 17 20 20 18 18 19 20 19 17 18 29 29 33 43 55 74 78 72 69 76 70 72 82 88 100 99 99 94 95 78 63 84 29 28 66 69 71 73 70
18 21 28 26 25 22 22 29 21 17 18 22 20 19 20 18 19 20 17 17 28 30 35 48 62 74 75 72 80 81 76 76 82 95 96 100 100 92 100 81 60 88 29 25 54 65 66 72 67
23 26 29 25 21 22 23 22 20 18 19 25 20 18 19 15 14 17 21 16 20 28 41 53 69 72 72 71 86 93 89 84 94 100 100 100 100 91 100 89 70 90 33 26 34 49 66 68 68
31 29 29 27 19 20 27 25 18 17 22 25 22 18 16 17 15 16 20 20 20 28 46 59 67 74 71 72 88 90 94 91 92 99 100 99 99 92 86 75 77 88 30 25 28 42 66 65 66
22 24 26 20 16 15 16 18 16 16 24 28 20 18 19 20 16 20 20 17 41 41 54 62 66 71 66 69 89 90 92 98 90 100 93 97 98 94 85 82 78 84 27 24 25 35 61 71 74
19 22 21 17 13 18 19 19 17 21 20 21 22 22 21 20 22 24 21 27 23 48 59 64 63 65 60 65 83 86 95 96 98 99 92 86 84 87 85 74 75 82 30 29 27 34 62 70 70
24 23 22 19 17 19 23 26 25 22 25 24 21 19 20 22 27 22 23 40 42 53 57 57 55 59 57 78 88 90 98 98 100 95 100 99 95 87 82 75 75 84 35 38 33 31 52 64 73
42 24 21 21 32 38 26 38 25 24 24 23 22 19 20 20 20 18 27 41 38 56 56 55 55 53 54 85 92 87 98 95 98 98 92 100 99 88 88 90 81 87 42 44 41 35 37 49 74
36 30 34 34 36 36 34 46 28 26 24 24 22 18 19 19 18 18 21 25 42 64 56 57 56 46 59 83 92 92 97 99 94 93 100 100 99 95 94 88 90 90 55 45 50 50 62 72 71
22 24 30 37 42 52 31 41 29 30 26 25 22 21 40 42 35 28 25 40 52 68 68 59 57 43 68 91 93 88 82 87 100 100 97 99 98 99 98 97 96 87 70 50 56 55 71 86 81
24 35 46 48 62 48 31 43 30 28 25 31 51 49 52 53 45 37 29 32 50 65 67 66 55 44 77 100 98 88 85 90 88 97 99 100 100 100 98 98 99 94 91 66 64 62 68 86 90
31 37 52 42 50 40 36 53 40 31 39 56 56 62 59 61 49 56 44 31 44 63 66 66 51 45 89 100 100 100 99 99 92 99 97 96 98 100 100 98 97 100 92 88 92 83 70 83 92
34 37 28 38 40 60 45 41 30 37 58 59 62 71 68 64 63 54 66 74 61 61 64 63 48 47 86 100 99 100 99 98 100 99 98 91 97 100 100 99 100 100 96 92 96 95 92 93 98
44 39 38 54 60 49 47 54 55 45 65 63 69 79 79 60 68 63 81 91 88 76 63 66 49 44 74 97 96 100 99 100 96 100 98 100 100 99 99 100 99 100 99 96 98 97 93 100 100
49 69 70 68 61 65 54 47 56 66 69 76 76 76 82 69 77 71 60 90 97 90 87 63 54 52 73 77 83 96 99 100 100 98 91 100 100 100 100 100 100 100 100 100 100 100 94 98 100
47 75 82 86 88 82 89 72 45 45 74 73 76 68 71 68 74 62 54 80 87 94 100 79 64 56 68 67 76 92 93 96 100 99 92 89 100 100 100 100 100 100 100 97 100 97 98 97 90

GFSSGP_850_rhum_114.txt.gz
RH
18 12 16 27 36 43 38 30 24 20 18 16 16 16 18 15 22 23 22 21 21 19 17 18 19 32 49 50 46 44 50 57 64 70 74 70 64 57 59 61 63 58 54 54 59 61 62 68 63
10 14 27 28 42 42 30 29 24 21 15 15 14 14 15 16 20 21 22 23 22 19 20 21 22 38 52 47 46 41 43 51 60 72 76 73 70 64 63 64 65 63 61 60 62 73 75 81 65
9 17 30 43 56 42 32 28 18 17 14 15 14 14 15 18 18 19 20 24 21 18 20 22 23 35 55 51 48 42 40 47 51 62 74 75 75 74 69 69 66 66 77 77 84 86 77 66 70
11 22 28 40 41 40 32 23 23 19 13 13 13 15 14 16 14 14 20 24 21 17 18 23 25 31 53 56 50 48 42 48 53 67 71 82 82 75 72 74 72 66 61 84 91 83 69 75 76
19 27 38 35 35 30 27 23 16 17 16 14 14 16 16 14 14 15 20 19 18 17 18 23 26 28 41 60 56 53 49 48 52 62 63 65 88 83 79 80 77 70 71 85 90 96 80 76 70
21 25 36 34 30 24 20 16 16 18 17 17 17 17 14 14 15 16 18 18 19 17 20 24 33 37 35 60 62 60 57 54 54 56 62 65 65 68 74 60 63 80 78 85 92 88 79 74 68
29 36 36 30 29 27 22 16 15 16 16 15 13 17 14 12 16 18 20 25 24 19 23 24 30 43 45 44 56 60 66 64 60 58 59 54 56 59 56 60 63 63 77 90 95 74 66 64 49
21 37 40 35 30 27 18 15 14 15 16 13 15 26 25 19 20 18 22 28 29 26 25 28 29 42 47 48 53 61 70 75 72 65 66 67 63 58 58 51 72 66 68 90 83 52 53 37 41
29 45 51 31 31 24 16 21 16 16 15 15 14 14 13 13 15 20 25 30 27 26 30 30 32 38 43 53 49 65 80 85 85 81 79 76 74 58 57 56 64 59 77 90 66 42 36 53 70
34 49 45 31 27 22 20 20 18 17 18 16 16 14 13 13 14 20 24 27 28 25 27 31 30 38 42 47 52 55 70 91 93 97 92 84 72 61 59 67 75 61 78 88 50 47 52 75 79
35 41 33 26 23 20 21 20 19 18 22 17 17 16 16 14 15 20 20 23 22 23 28 30 31 38 43 45 48 48 56 80 90 99 98 90 74 63 70 72 76 63 78 84 66 84 80 86 81
35 32 26 23 21 22 26 24 21 21 20 18 17 18 15 14 15 16 21 19 21 27 29 36 35 40 46 53 60 63 64 78 98 93 100 95 87 84 77 71 73 76 74 52 78 91 93 90 82
38 33 27 25 24 24 26 28 26 22 20 19 18 17 16 16 16 18 24 24 31 32 31 35 38 41 48 58 65 74 74 77 97 99 99 99 100 91 81 81 75 82 64 32 74 98 97 87 78
30 29 27 26 26 26 26 27 25 22 20 19 18 17 19 21 21 22 23 23 26 25 32 37 42 44 53 62 70 76 79 77 84 94 98 99 99 95 93 88 79 77 60 27 60 96 93 74 77
21 23 22 23 24 27 22 31 30 20 20 20 20 20 20 19 21 19 16 18 21 19 28 34 44 46 58 69 78 80 78 75 79 85 90 96 99 100 93 95 81 62 56 36 66 93 80 73 76
19 21 26 23 25 24 25 33 22 17 17 18 14 12 19 16 15 13 13 14 16 19 18 31 44 50 59 72 80 76 71 78 73 75 80 94 99 100 98 97 88 71 73 43 68 86 75 75 72
25 29 29 24 24 24 26 26 18 18 12 16 15 14 15 13 11 11 14 14 13 19 17 22 42 48 56 73 75 74 77 82 83 84 93 96 99 100 100 100 97 80 87 42 60 83 73 74 74
33 31 31 28 19 22 25 26 21 12 14 17 16 14 14 14 13 12 15 14 13 18 19 20 43 48 60 72 74 76 95 94 90 89 98 98 100 100 100 100 90 65 82 46 47 80 74 71 75
24 27 28 23 18 17 18 18 16 14 15 18 16 16 16 15 14 14 15 17 19 19 26 26 42 53 65 69 70 72 95 96 96 100 86 93 100 99 100 94 90 70 88 43 34 77 71 76 77
22 24 25 18 16 18 18 19 18 18 19 16 16 18 16 16 15 17 18 22 19 21 30 32 48 52 64 64 66 65 85 93 96 98 99 100 100 99 100 89 92 70 83 55 28 66 74 77 76
23 23 23 21 18 20 23 30 23 23 21 20 18 17 16 17 19 20 18 21 19 20 32 46 55 54 64 68 68 77 90 97 100 100 100 94 98 98 99 98 99 88 83 56 26 40 60 73 80
37 29 27 30 30 44 26 44 24 24 24 22 19 17 18 33 38 32 26 20 19 25 41 64 65 59 68 74 72 73 85 95 98 97 87 90 96 96 94 91 86 79 81 55 25 31 48 60 75
46 33 33 32 39 40 38 42 32 21 23 22 24 21 42 51 48 46 48 37 32 29 41 62 69 67 73 76 73 74 86 93 92 96 100 84 94 98 95 86 91 88 88 75 28 27 33 60 71
28 30 30 40 44 56 38 37 26 26 24 27 30 48 59 58 56 55 50 54 32 39 42 66 70 74 74 80 80 73 89 95 90 99 99 100 99 96 97 90 82 76 84 84 38 28 28 44 68
26 34 41 34 62 46 35 43 27 25 26 51 63 63 61 60 57 58 58 70 68 61 52 72 75 75 73 80 85 76 97 99 98 90 92 100 100 100 98 91 85 86 93 89 73 36 34 32 62
35 36 50 40 43 34 39 49 38 29 46 56 59 61 69 62 56 53 63 53 84 74 64 76 81 76 76 75 76 77 94 99 100 100 97 92 98 97 94 99 98 94 82 86 92 50 44 38 44
37 40 32 39 38 54 42 38 28 40 57 62 60 62 59 43 44 53 52 66 70 90 84 86 87 80 75 69 76 96 98 99 100 98 100 99 100 100 98 100 99 95 96 85 90 86 52 58 64
39 47 43 55 57 51 44 48 45 68 72 70 71 72 61 45 46 54 52 61 71 86 98 100 97 94 74 68 80 98 98 99 100 100 95 99 98 96 98 100 100 100 94 99 100 98 70 70 81
44 60 68 65 70 75 80 47 57 57 74 77 76 69 65 58 50 65 55 63 79 87 100 100 100 94 86 82 94 97 98 98 100 98 97 100 100 98 99 100 100 100 99 100 100 99 92 83 82
63 75 78 81 92 84 86 80 44 40 45 47 75 69 67 59 75 74 63 86 90 98 100 100 100 91 80 90 99 96 100 99 99 96 92 98 100 99 100 100 100 100 100 100 99 100 100 100 94

GFSSGP_850_rhum_120.txt.gz
RH
24 10 20 23 14 13 10 12 13 12 13 14 14 16 13 12 13 13 17 37 28 31 15 17 18 18 18 34 46 55 54 51 53 68 74 71 65 63 63 66 85 91 88 80 74 74 75 73 72
24 11 24 17 12 10 7 12 13 12 12 14 14 14 13 12 16 22 30 20 21 16 14 16 18 19 19 29 49 54 49 46 53 69 76 73 66 62 64 78 93 89 80 77 78 78 78 71 70
16 17 16 10 9 8 6 12 11 12 12 14 12 12 12 11 20 22 24 18 19 16 15 16 18 20 20 29 45 49 49 50 57 67 77 75 68 66 70 86 89 82 79 74 77 77 77 70 69
21 19 14 11 8 8 8 11 13 12 11 13 12 11 12 13 20 25 20 17 20 18 16 16 19 20 20 26 41 45 48 43 53 64 74 76 72 72 87 92 88 92 79 77 73 73 75 73 69
17 14 10 11 8 7 9 13 15 11 12 12 12 11 11 17 22 13 16 16 22 19 16 17 20 22 23 29 39 46 46 45 48 57 68 75 76 70 44 60 65 73 95 79 75 69 79 73 73
13 13 11 9 7 9 9 10 12 10 14 13 13 13 12 18 22 30 16 19 22 21 17 17 22 24 30 38 44 50 49 46 46 51 68 77 75 72 61 58 52 39 83 66 69 74 71 70 85
14 12 11 9 8 8 9 9 11 9 12 14 14 14 13 17 15 14 18 20 20 22 22 18 20 24 31 40 51 54 55 51 47 53 56 71 75 62 50 61 46 57 75 48 58 72 74 74 90
16 12 13 10 10 8 8 12 13 10 11 13 14 14 14 15 13 12 16 22 22 24 26 22 21 25 27 35 48 58 59 57 54 56 60 70 75 64 60 61 57 54 49 48 52 81 82 87 97
19 16 16 13 11 9 10 12 12 14 13 13 13 14 15 20 19 19 18 23 26 27 28 28 22 26 31 35 41 56 64 64 62 62 67 73 69 69 78 63 59 57 52 46 43 58 80 96 98
18 17 16 11 10 10 10 12 13 13 11 12 13 15 18 18 24 24 28 36 51 36 30 32 27 26 33 36 41 52 66 70 72 74 70 84 91 96 98 95 68 60 56 59 71 58 57 98 97
19 19 14 14 14 11 11 11 12 11 10 10 12 14 16 20 21 24 27 29 37 58 74 43 34 30 36 38 44 52 66 87 91 98 91 84 98 98 95 97 69 68 70 76 81 77 74 99 89
24 18 18 15 16 15 14 14 14 14 13 12 14 17 18 19 19 20 24 30 34 50 65 70 37 35 37 42 49 51 69 78 80 91 92 87 93 99 99 99 73 76 78 80 82 74 68 91 82
24 19 17 20 19 18 17 16 16 16 16 18 16 18 20 20 21 20 26 26 36 34 55 38 38 36 41 42 50 54 60 73 86 69 85 85 91 99 94 76 68 71 75 89 88 91 95 94 97
15 20 19 18 18 19 19 18 18 17 19 20 21 20 21 22 21 24 26 27 29 30 33 43 20 29 38 45 47 52 58 60 77 62 66 85 93 90 84 76 86 78 93 95 90 98 93 93 99
17 19 15 16 18 18 20 21 21 19 19 19 20 21 22 19 17 20 21 21 21 20 21 40 25 16 24 35 50 56 56 58 68 65 69 92 97 99 95 85 90 86 89 99 97 97 92 92 99
17 16 19 13 13 16 18 18 15 17 19 19 17 13 13 14 14 14 15 17 18 19 20 26 38 17 19 37 75 61 60 60 66 68 71 88 98 100 100 100 92 86 87 98 90 97 98 90 99
12 17 14 15 15 15 18 18 14 16 16 13 12 10 10 12 16 15 16 17 20 21 22 27 21 18 19 34 91 99 67 58 68 73 92 88 92 98 96 100 100 99 92 98 88 87 89 94 91
14 14 14 14 12 15 17 17 13 14 14 12 11 10 12 13 14 14 17 23 29 29 21 17 14 16 43 66 95 99 68 62 69 74 81 85 90 94 99 99 100 98 99 98 87 86 87 86 82
12 11 12 10 12 15 14 14 12 11 11 9 10 11 12 14 15 17 28 38 46 44 39 23 24 27 55 71 94 98 70 68 73 82 80 64 75 98 97 99 100 100 100 98 93 81 85 82 85
15 14 12 10 12 18 15 12 9 8 10 9 10 12 14 15 18 28 34 41 48 56 38 40 51 59 78 79 96 92 80 72 74 80 68 61 76 79 94 100 99 100 100 100 100 89 83 83 91
18 17 15 14 11 12 13 12 10 9 10 12 15 15 18 23 32 36 43 47 52 56 69 71 71 82 78 96 95 98 80 75 82 73 59 77 94 90 90 96 100 100 99 99 99 94 83 86 92
26 15 15 15 19 18 11 18 14 13 13 14 13 18 27 36 40 42 44 47 51 67 76 79 80 54 69 98 96 98 82 75 68 52 49 96 98 97 98 98 100 100 100 100 98 95 80 81 91
22 17 24 26 21 18 15 22 12 13 16 14 17 31 39 46 48 40 41 45 48 67 59 88 92 46 91 99 100 100 100 96 83 49 65 98 99 98 98 99 98 99 100 99 99 100 90 88 86
16 22 29 28 24 32 21 20 13 14 13 15 28 40 43 40 40 40 41 45 50 60 76 57 72 88 97 99 100 100 100 100 89 87 97 96 98 84 87 97 100 100 100 100 100 91 89 90 86
22 31 38 43 39 33 12 16 14 12 21 29 37 39 41 42 44 42 46 50 58 68 69 81 72 98 98 99 100 99 99 98 87 98 98 98 95 84 92 98 98 100 100 100 100 97 92 83 86
32 32 33 43 33 24 18 20 22 35 36 37 37 41 44 44 44 44 50 59 64 75 79 77 90 98 98 98 100 98 87 76 90 96 100 90 89 86 87 99 100 100 100 98 100 98 87 67 76
36 49 27 31 27 27 20 35 41 34 28 26 27 31 38 42 46 45 46 58 64 73 88 88 86 100 100 99 100 100 91 96 100 96 97 96 88 98 98 97 100 99 100 100 100 91 88 69 64
36 28 34 33 43 31 17 24 25 35 23 14 11 12 21 31 38 43 46 53 53 63 78 92 99 96 99 96 100 100 94 98 99 95 89 93 93 97 100 99 98 100 96 100 98 89 88 82 51
78 54 51 41 30 33 29 21 23 30 26 19 15 14 14 22 33 43 50 50 50 62 75 80 97 99 99 98 100 100 100 100 98 96 95 91 91 100 100 99 100 100 100 96 92 93 93 93 62
51 93 96 81 50 35 31 29 25 32 28 16 16 14 17 17 34 44 49 54 56 67 76 75 90 98 100 98 98 100 98 100 100 96 98 98 98 95 94 94 99 100 93 99 92 88 88 84 99

GFSSGP_850_rhum_123.txt.gz
RH
15 11 19 16 14 9 7 6 6 9 10 10 10 13 10 11 12 16 18 28 28 34 20 15 17 18 18 28 41 42 49 56 57 60 67 73 70 64 62 65 74 76 80 77 72 72 75 74 69
34 19 16 14 12 8 7 5 9 7 10 11 11 13 10 10 11 14 22 27 30 35 20 16 18 19 19 22 37 42 47 49 50 57 72 74 71 67 67 70 75 87 83 75 71 72 76 79 75
24 16 14 10 9 8 5 6 7 8 11 12 11 11 10 9 12 14 21 27 32 36 28 18 17 19 21 24 35 39 40 41 49 61 74 76 73 68 68 77 87 88 83 76 75 77 76 70 69
21 14 13 11 9 6 5 6 8 10 9 10 10 10 10 11 14 16 22 32 32 35 42 18 17 20 21 26 37 44 42 39 44 60 74 75 74 70 84 79 57 99 83 92 79 74 72 70 68
17 12 11 9 8 5 5 6 10 9 8 10 10 10 9 12 17 22 23 31 32 38 45 16 18 20 20 24 35 44 46 42 41 55 67 76 75 70 68 60 42 50 49 65 89 74 70 70 68
12 10 11 10 7 5 5 6 10 10 10 11 10 10 10 19 19 22 26 31 38 45 53 15 18 21 21 23 30 42 47 46 45 53 62 75 79 73 66 51 46 60 46 49 64 72 71 75 72
14 11 12 10 8 6 6 7 7 8 9 12 12 12 10 15 22 33 32 34 47 57 34 19 18 21 23 24 29 40 48 48 46 50 67 74 77 75 71 64 59 51 61 49 51 73 71 75 73
15 13 14 11 10 8 5 6 7 6 6 10 12 10 10 15 24 35 42 42 55 64 41 31 21 21 24 24 27 38 49 52 50 50 67 74 76 80 76 63 68 56 57 52 66 65 65 77 82
16 18 16 12 10 8 6 8 8 7 6 10 11 10 13 15 20 27 40 49 59 67 42 37 27 23 25 26 26 33 50 55 56 56 60 68 84 89 84 65 70 61 58 61 57 66 70 71 87
16 18 16 10 9 9 8 9 8 10 10 9 11 11 12 15 15 18 21 27 50 61 75 66 48 31 29 30 30 32 42 56 60 61 70 67 86 96 98 92 80 69 67 58 62 72 70 69 75
17 20 13 11 10 10 9 8 10 10 10 9 8 9 11 13 16 18 20 20 23 41 59 76 86 49 40 42 33 37 73 66 78 91 95 81 85 92 94 94 94 79 72 71 74 74 82 86 98
16 15 14 13 12 12 12 12 11 10 10 10 10 10 10 14 16 16 17 19 21 25 45 66 82 90 62 84 43 39 63 92 93 96 89 84 79 88 98 89 91 92 86 77 67 72 70 81 91
14 15 14 15 15 15 14 14 13 13 12 12 13 13 14 15 16 16 17 18 23 28 37 55 78 93 86 90 52 41 78 70 89 93 92 88 95 89 94 88 90 90 96 84 68 70 70 88 72
13 13 14 15 15 14 16 15 14 14 14 15 15 16 16 18 18 18 18 19 21 28 36 50 67 85 71 77 46 44 49 91 76 92 93 89 93 96 98 90 86 93 95 82 78 69 82 88 78
14 16 14 13 15 15 16 17 16 14 13 14 15 18 18 18 18 18 20 20 19 20 25 33 51 68 87 56 47 54 49 70 93 93 91 90 86 89 99 89 88 87 80 82 76 95 80 85 88
16 15 19 14 12 11 13 19 12 11 12 14 15 16 18 18 17 15 16 18 18 18 20 21 22 42 68 84 57 51 54 62 87 95 90 76 83 88 90 94 88 91 89 94 90 94 92 90 80
16 20 16 14 10 10 12 15 11 10 13 14 14 15 13 12 13 13 14 14 15 16 18 20 21 27 42 68 87 80 53 72 78 92 90 61 86 86 94 94 86 97 93 90 96 93 90 76 80
16 14 13 13 10 10 14 13 12 11 13 14 11 11 10 10 10 12 13 15 22 24 25 30 30 30 38 54 78 87 93 86 98 90 97 96 90 89 92 96 97 98 97 100 96 97 89 79 78
12 12 13 11 8 10 11 12 12 10 10 12 11 10 9 8 9 11 14 23 32 36 42 40 42 39 40 48 70 83 98 96 99 99 97 99 100 95 94 99 98 99 98 97 93 98 87 79 79
12 14 14 11 8 9 12 13 10 8 9 10 10 8 8 9 12 14 22 30 37 41 46 53 53 55 57 55 69 79 98 99 99 98 90 87 95 99 88 94 90 92 100 99 100 99 96 84 80
10 14 15 14 10 10 12 14 12 8 6 7 8 8 8 12 14 22 29 32 42 47 65 64 56 57 67 68 78 95 100 96 98 99 85 73 80 87 97 85 89 99 98 100 98 99 94 85 80
20 14 14 15 18 21 13 17 10 8 7 8 8 9 13 18 26 28 28 31 38 50 72 72 69 65 72 83 87 95 98 99 99 99 88 80 84 83 98 93 97 98 98 100 99 99 91 90 88
19 15 17 18 22 20 15 15 12 10 12 11 11 13 18 28 31 28 30 33 36 52 61 81 83 78 86 95 89 95 99 98 96 97 95 82 79 94 99 94 99 98 100 99 100 100 100 86 90
17 22 19 22 27 33 23 18 14 13 13 11 12 21 28 30 32 31 33 36 37 52 64 64 85 92 98 99 96 97 93 93 92 99 100 97 90 96 95 95 94 99 100 99 100 99 100 79 92
18 26 48 44 50 52 20 18 15 12 9 10 17 29 30 32 34 33 34 39 43 54 65 68 62 88 100 97 98 98 96 92 90 100 96 95 90 90 88 90 88 92 99 100 99 100 100 85 94
23 26 44 57 50 35 21 26 18 11 22 25 27 30 33 33 35 34 34 39 43 50 59 78 67 68 98 98 98 100 99 96 97 98 99 98 95 82 83 76 87 81 87 98 100 100 100 97 90
30 46 27 40 35 41 28 22 28 26 28 27 25 26 33 35 34 31 34 38 42 40 49 77 85 72 92 97 95 98 99 97 95 97 95 97 100 92 81 81 86 95 91 100 100 100 100 98 93
63 35 61 65 84 61 29 25 32 32 27 23 19 17 18 20 24 27 32 36 38 42 53 70 87 86 94 99 98 93 100 98 98 97 92 98 100 99 90 96 92 98 98 98 100 100 100 100 95
61 67 38 47 59 46 39 26 19 30 22 17 14 14 14 13 13 21 31 37 41 48 57 70 81 97 99 98 98 96 99 100 99 97 93 98 100 95 96 96 99 97 99 100 100 100 100 99 98
45 57 98 94 50 42 35 34 32 24 18 19 17 15 14 15 12 14 29 35 43 54 62 67 82 89 90 100 98 97 98 100 98 99 96 99 100 93 95 95 100 99 98 98 98 98 100 99 97

GFSSGP_850_rhum_126.txt.gz
RH
8 10 12 21 18 16 11 7 5 7 8 8 8 10 10 10 14 22 24 26 32 21 15 13 16 18 17 19 31 40 47 54 55 57 60 65 68 65 60 63 69 73 75 77 77 73 67 65 66
12 29 19 13 17 14 9 6 5 7 8 9 10 12 11 10 11 18 27 27 33 19 13 15 19 19 19 23 35 42 51 56 52 52 55 63 70 68 65 67 75 81 88 84 75 71 71 70 64
28 28 12 14 13 14 9 5 6 9 11 11 10 10 10 8 11 14 26 25 31 30 14 17 19 19 18 23 33 43 47 47 48 50 57 65 71 71 69 73 77 71 83 92 93 77 78 74 62
23 22 12 14 14 9 7 5 5 9 9 9 9 9 9 11 12 17 25 23 30 35 16 16 18 19 16 20 30 40 42 45 46 56 65 70 72 72 70 64 53 47 52 64 84 93 80 71 62
27 14 14 12 9 7 5 4 7 8 8 8 8 9 9 10 16 19 26 27 30 34 26 17 17 19 18 17 23 34 41 42 42 58 66 75 75 74 70 72 46 43 41 52 59 77 82 69 64
20 14 17 14 10 7 5 5 6 9 8 9 9 9 9 12 17 20 26 29 31 35 30 18 17 20 19 18 20 28 39 43 41 44 63 79 80 76 72 68 56 50 42 45 56 60 71 75 71
18 15 15 12 11 9 6 6 6 6 9 10 10 11 10 16 18 24 25 30 34 41 27 19 16 18 20 21 20 25 30 41 44 45 53 76 82 77 71 75 59 55 45 54 63 47 50 71 75
17 15 17 14 13 11 7 6 6 6 7 7 10 11 12 22 24 25 31 31 40 50 50 17 18 17 19 21 22 24 29 40 46 46 48 64 74 82 79 75 65 55 52 56 53 52 54 64 70
17 19 19 16 14 12 8 7 7 7 6 5 11 10 11 16 21 28 37 40 45 60 63 26 20 20 19 21 22 25 29 37 48 48 48 58 75 83 85 82 74 60 58 58 61 66 66 64 69
16 20 18 13 11 10 8 8 7 8 8 7 9 10 9 13 16 20 28 43 50 64 73 40 22 24 23 23 23 25 28 32 45 51 51 56 69 80 83 85 77 72 60 63 71 68 70 69 68
16 18 14 13 12 10 10 10 8 8 9 9 9 10 10 11 12 15 17 21 39 45 52 43 36 29 38 30 24 25 28 31 39 49 53 56 60 83 89 87 83 76 73 77 73 70 75 69 69
16 14 14 14 14 13 12 11 10 10 9 9 9 9 9 9 12 15 17 19 20 38 40 42 56 41 50 45 38 28 29 31 34 42 53 66 66 79 88 93 92 86 77 78 72 69 73 73 72
15 13 12 12 13 14 13 13 13 12 12 11 10 10 11 12 12 14 16 16 18 20 36 45 56 59 58 76 43 37 37 36 38 39 46 74 74 74 86 95 92 93 91 80 77 72 73 76 69
14 13 12 12 12 13 14 14 14 14 14 13 13 13 13 13 14 14 16 16 17 19 24 47 54 65 71 65 66 41 42 52 64 64 63 74 79 77 78 92 94 95 91 82 78 68 71 77 76
16 18 16 14 13 13 13 16 15 14 13 13 13 14 14 15 16 16 17 17 18 18 23 32 44 60 72 72 84 66 51 74 65 74 84 87 83 88 80 87 90 92 96 85 83 83 83 78 86
17 17 21 15 13 13 13 20 14 13 14 13 13 13 14 16 18 18 17 18 19 20 20 29 34 38 56 55 64 56 42 61 94 88 85 85 83 90 88 91 92 94 92 84 86 86 84 84 88
18 25 22 18 12 12 13 16 12 11 11 11 12 12 13 14 17 17 17 16 17 18 18 20 22 31 42 42 44 40 49 41 58 97 98 86 85 89 91 91 94 93 93 88 90 88 87 92 95
20 18 16 18 13 12 12 14 11 10 11 11 11 13 14 15 14 14 14 14 15 18 19 20 20 20 27 46 58 69 68 67 52 79 98 93 88 90 91 92 98 99 100 96 93 91 86 84 96
14 15 15 12 10 12 20 18 15 11 11 12 12 14 12 12 10 10 11 14 19 24 28 26 21 21 25 31 54 72 82 59 74 73 97 100 98 91 93 94 99 100 100 98 95 90 84 94 92
13 15 16 13 11 13 14 19 15 12 11 10 10 13 12 11 9 8 11 18 28 33 37 39 45 49 46 48 39 54 72 86 80 79 97 93 100 97 95 99 98 97 100 99 94 96 96 97 86
17 16 15 13 11 12 16 20 17 11 9 10 10 8 11 9 8 11 21 28 34 40 51 60 63 60 54 54 57 53 70 88 94 98 99 96 99 99 99 98 100 99 98 98 96 98 98 87 85
17 13 15 15 16 20 14 25 18 13 12 11 10 8 8 9 14 22 27 28 35 43 56 70 76 69 60 60 63 63 67 82 91 96 98 97 100 99 99 98 99 99 100 100 96 95 84 99 85
18 14 15 18 22 22 21 26 22 14 14 12 10 9 9 13 21 26 26 30 33 43 53 63 59 80 74 74 74 85 78 81 90 92 96 94 98 100 100 100 99 94 98 96 100 97 92 97 88
15 17 19 21 27 37 27 26 24 18 13 14 12 10 16 29 30 27 31 34 36 49 60 68 68 62 66 80 86 96 95 91 88 90 92 98 99 99 100 99 94 93 98 100 100 95 99 98 97
19 23 35 62 54 50 26 30 26 17 14 16 12 17 28 30 31 31 32 36 40 47 54 58 68 63 70 68 94 96 99 88 86 95 94 95 97 99 100 98 99 98 98 100 100 100 100 100 99
34 48 45 42 46 39 27 41 26 16 14 18 14 28 29 31 32 32 32 34 38 41 43 56 61 72 74 82 92 96 93 92 87 100 91 98 99 93 98 100 100 100 96 99 98 100 100 100 99
51 51 40 55 38 42 46 30 22 20 17 26 27 30 30 32 34 31 31 33 38 37 45 58 71 69 81 84 96 97 93 100 96 100 97 89 87 92 89 91 97 94 89 86 86 98 98 100 100
36 37 65 68 78 59 38 34 40 33 25 28 30 29 31 30 27 25 28 30 34 39 49 59 70 80 76 86 98 97 95 100 100 98 100 90 92 92 94 87 88 84 92 83 90 99 100 100 100
45 54 45 60 87 55 53 33 28 49 60 36 27 20 16 15 14 14 22 29 34 42 52 61 70 79 85 77 91 99 91 88 100 100 99 88 88 93 94 90 90 90 89 89 94 100 100 100 99
27 92 98 85 88 67 54 47 32 36 53 54 16 16 16 15 14 13 12 22 30 40 50 62 72 82 74 82 76 94 91 90 96 100 99 100 91 87 97 98 90 90 97 92 98 100 100 100 99

GFSSGP_850_rhum_129.txt.gz
RH
7 10 9 23 34 34 32 21 14 11 10 9 10 12 13 14 23 37 34 26 26 20 14 12 12 15 15 16 26 37 47 55 59 60 60 61 64 62 59 64 69 74 75 82 82 79 72 68 62
9 23 26 22 29 32 27 16 14 12 12 9 8 12 12 19 23 37 32 26 17 13 11 10 13 16 15 19 29 37 45 52 55 59 60 63 65 64 62 64 60 64 65 72 82 80 75 70 61
14 34 38 26 29 32 29 14 10 13 11 10 10 10 11 12 21 22 26 21 20 12 11 12 14 14 14 18 30 38 45 47 49 51 56 61 67 66 65 59 60 61 63 69 70 54 72 70 62
20 28 28 22 26 20 16 12 8 12 10 10 10 11 9 10 21 23 24 27 17 12 13 14 15 14 13 16 27 37 40 42 44 50 59 66 69 68 65 61 47 46 49 63 61 56 67 72 58
22 28 24 25 21 15 11 8 6 11 10 9 9 10 10 12 15 22 18 28 14 14 15 16 18 16 14 14 20 32 38 40 43 53 61 71 74 72 70 64 47 45 46 48 60 59 66 61 60
29 22 30 30 21 14 11 9 8 9 10 9 10 10 14 16 20 24 21 28 21 19 17 16 18 19 17 14 16 23 33 40 41 45 56 72 73 75 73 67 53 49 44 49 57 64 62 55 63
39 33 30 25 20 16 12 9 7 10 11 12 9 12 13 19 24 26 26 26 31 30 23 19 17 19 19 18 16 18 25 38 41 42 48 65 73 73 76 71 59 58 51 50 58 57 50 48 65
32 29 30 26 23 20 13 11 10 7 10 9 9 13 13 25 22 28 29 29 33 33 32 24 18 17 19 20 20 18 21 35 40 44 47 56 69 75 74 78 76 61 48 51 56 53 58 60 70
23 30 31 27 23 19 13 13 11 6 7 7 7 10 16 21 25 29 33 34 36 37 31 32 22 17 17 19 21 22 21 28 38 42 45 50 60 72 78 78 78 67 52 54 50 56 66 69 66
25 31 29 21 19 18 14 14 13 9 8 8 10 12 16 18 17 21 34 44 43 44 38 26 29 22 18 18 20 22 23 22 30 36 39 46 53 64 68 81 82 76 60 59 56 62 67 65 65
18 25 20 19 17 16 15 16 14 12 12 9 10 11 12 14 15 19 22 30 38 38 37 22 21 27 23 20 20 21 23 24 25 32 35 42 50 60 67 78 84 84 69 66 71 71 69 62 62
22 17 17 17 16 16 16 15 16 14 14 12 10 9 10 9 12 12 19 29 33 43 38 30 22 21 28 28 23 23 23 24 25 29 32 40 47 51 63 74 78 84 78 70 76 69 66 62 60
20 17 15 15 15 14 14 16 17 15 14 14 13 12 13 11 11 13 14 16 20 35 38 37 34 30 32 32 25 30 29 26 26 31 32 38 42 48 59 74 80 78 80 76 73 71 65 64 63
19 19 18 16 15 14 15 16 15 14 14 14 14 14 14 14 12 12 15 16 16 18 31 39 40 39 44 42 33 30 44 35 35 35 38 38 46 56 68 77 90 89 82 79 83 75 71 71 74
16 19 18 18 17 18 16 19 18 14 14 14 14 14 14 14 14 13 14 15 16 16 18 33 47 46 48 45 54 49 50 53 41 49 51 54 49 65 82 80 83 88 85 87 87 80 78 78 76
19 20 25 18 19 17 17 23 16 14 14 15 14 14 13 13 13 14 15 16 16 16 18 18 40 47 46 45 54 49 40 56 54 95 76 70 78 76 88 90 88 90 94 86 88 85 83 81 87
23 31 26 21 16 18 19 20 15 14 14 14 14 14 15 14 13 14 15 16 18 18 18 20 37 41 43 48 44 34 35 39 47 88 98 92 86 88 87 91 96 99 96 90 90 94 86 84 83
26 29 22 23 18 18 19 18 18 15 15 15 13 12 12 14 14 14 17 18 18 18 20 31 54 57 56 50 53 59 54 50 52 56 92 100 93 88 89 90 94 99 97 97 93 97 93 88 84
17 20 21 17 14 16 15 23 23 19 17 16 14 12 11 15 16 17 16 17 16 19 20 22 22 23 27 47 63 62 58 57 56 62 82 93 93 92 90 91 94 98 99 95 99 92 96 81 88
20 20 20 17 15 16 16 15 20 16 14 13 12 10 10 10 13 12 11 15 18 20 19 29 29 32 43 49 42 47 61 61 50 56 62 83 88 88 96 97 100 98 99 98 96 97 95 90 86
19 23 25 23 18 15 14 16 20 17 14 13 13 10 10 11 10 11 19 27 29 30 29 27 28 33 32 44 56 51 51 75 73 81 91 89 89 86 90 92 94 96 98 96 91 90 90 82 92
21 18 21 22 21 27 17 30 19 18 19 16 13 11 10 12 12 16 23 30 35 36 34 35 41 38 55 66 58 56 58 55 65 70 73 87 90 93 88 92 90 92 98 97 96 89 91 92 86
16 14 19 24 29 31 27 33 26 19 20 17 14 12 11 13 22 28 33 38 42 43 41 39 35 53 70 76 72 64 64 67 60 69 84 87 86 88 90 100 95 100 98 99 97 87 98 93 95
14 15 20 26 30 40 31 36 32 26 22 18 14 12 11 12 21 26 32 42 49 48 48 42 63 70 70 64 66 80 81 83 87 84 88 83 89 91 89 97 96 98 98 99 94 98 99 98 100
27 51 60 53 48 48 31 40 34 24 21 19 18 29 16 25 30 32 34 39 41 43 44 46 44 61 71 80 77 71 88 100 89 84 85 81 88 93 91 94 97 98 100 98 99 95 94 98 100
32 64 94 89 69 50 37 47 34 22 19 17 17 35 31 29 30 35 36 37 40 40 42 52 50 52 87 98 98 89 88 96 92 86 87 86 84 91 95 98 97 97 100 100 100 94 96 99 100
28 47 67 93 78 91 54 37 27 23 25 23 18 34 36 35 34 33 33 33 39 38 46 55 54 46 49 69 80 89 95 88 92 89 93 98 93 90 96 97 99 98 92 93 96 99 98 100 99
37 48 79 84 96 89 60 45 48 34 58 63 51 44 40 38 33 30 32 34 37 39 44 50 50 49 42 51 61 71 88 92 91 90 99 97 98 94 92 96 100 99 98 100 100 100 99 100 100
38 54 67 85 80 75 91 60 86 92 76 73 65 54 31 26 22 21 26 28 35 38 45 53 57 54 49 46 48 62 70 86 91 93 100 99 100 92 91 94 93 93 99 100 96 89 87 100 99
39 69 99 97 93 85 86 85 73 87 77 65 71 42 45 15 15 14 12 24 30 47 54 62 66 63 58 51 47 49 68 76 89 90 92 100 100 97 93 94 96 89 85 84 88 90 91 93 97

GFSSGP_850_rhum_132.txt.gz
RH
14 10 14 24 30 40 41 27 18 16 14 10 12 12 15 17 24 35 31 26 18 17 14 12 13 13 13 16 22 32 42 53 60 62 62 62 61 56 53 58 55 59 64 67 72 72 73 73 64
8 15 22 26 33 33 27 24 18 16 14 10 12 13 15 29 30 31 32 26 18 11 10 11 14 15 14 16 23 31 42 52 58 59 61 63 64 59 52 53 56 59 60 63 68 64 62 61 65
11 29 36 29 37 35 29 18 12 11 11 11 10 11 15 26 32 25 28 20 12 10 9 11 12 13 13 16 24 30 40 48 51 55 59 63 65 62 56 52 58 64 66 68 60 59 64 66 57
16 34 37 26 29 26 22 17 14 12 8 10 10 11 12 13 19 24 27 16 11 10 10 10 11 12 13 16 25 30 38 42 46 50 59 67 68 66 58 54 46 50 50 69 59 56 61 64 55
26 32 37 28 25 20 15 13 12 10 10 10 10 11 16 24 16 20 17 15 11 11 10 11 12 12 12 16 24 32 36 38 40 48 60 66 68 68 62 48 45 47 58 54 63 54 63 58 52
25 31 37 37 25 18 16 13 12 11 10 10 10 12 16 22 22 22 19 19 12 12 11 12 13 13 13 14 19 29 36 38 41 49 59 64 66 69 66 52 49 46 45 49 55 62 62 50 56
42 45 38 30 28 23 17 14 14 13 11 12 9 13 27 26 24 24 25 20 14 11 12 14 16 17 15 14 15 20 28 38 42 46 53 60 63 68 69 63 55 54 46 48 52 65 54 54 66
36 44 42 38 34 32 19 16 15 12 11 10 9 14 26 23 24 24 25 22 20 16 13 14 16 18 18 17 16 18 24 30 39 43 46 54 63 68 74 70 59 60 49 49 62 64 50 46 63
29 41 50 43 33 27 18 18 16 14 14 12 10 10 16 25 25 28 32 31 24 25 23 18 17 17 18 19 19 19 22 29 35 40 46 46 57 64 71 75 73 67 49 51 58 56 50 51 62
30 45 39 28 24 24 20 19 18 16 14 13 12 11 17 24 28 28 31 32 33 30 31 32 27 20 18 19 21 21 21 22 28 33 40 41 48 56 65 74 77 72 57 54 54 51 50 52 49
23 31 27 24 21 20 20 20 18 16 16 14 14 19 24 30 31 31 32 31 32 33 32 34 33 30 20 19 20 22 23 23 25 28 30 38 47 58 63 78 79 81 67 58 54 52 53 56 56
25 20 21 19 18 19 20 18 18 17 16 15 14 14 15 22 18 25 31 34 35 36 35 35 35 34 31 21 21 22 23 24 25 26 29 32 39 52 54 67 73 81 78 63 61 60 59 57 53
25 22 20 18 17 17 17 19 19 16 16 14 14 14 14 14 15 20 16 20 28 33 30 30 32 34 34 28 24 24 24 24 25 28 31 31 36 43 51 59 66 77 83 73 67 67 65 60 61
21 21 21 19 19 18 20 19 17 16 15 15 14 13 14 14 14 14 15 15 29 30 33 33 34 36 34 32 27 28 30 28 30 32 33 36 40 43 51 60 69 75 79 81 78 73 70 68 68
13 20 19 18 18 21 18 23 22 17 15 15 15 14 14 14 14 13 13 15 19 26 29 33 32 34 38 40 40 42 39 38 38 39 41 44 46 48 56 60 65 72 78 82 83 84 77 78 80
14 18 28 19 19 17 20 26 20 15 15 15 14 14 14 14 14 14 13 14 14 16 17 18 29 34 38 42 42 45 54 56 50 51 48 52 56 59 66 75 72 74 84 83 88 92 82 81 81
20 24 24 20 17 19 20 23 19 16 14 16 15 15 14 12 12 14 14 14 15 15 16 16 18 27 33 41 44 60 58 64 64 52 52 67 75 75 75 82 87 87 91 84 88 93 91 82 86
24 29 28 27 19 17 21 21 17 16 15 16 16 15 14 13 11 10 13 13 14 16 16 18 19 28 39 47 54 56 52 52 68 60 59 66 95 92 92 86 87 89 96 92 91 97 92 85 79
18 20 22 18 16 19 19 18 16 14 18 16 15 14 13 12 12 10 12 16 16 17 18 19 27 42 50 55 56 57 53 53 55 66 61 57 79 84 90 96 84 89 88 91 72 98 96 91 88
22 21 22 18 17 21 21 20 15 14 20 14 12 14 13 13 12 10 10 21 18 19 23 32 37 39 46 57 58 60 56 50 49 62 69 64 65 71 83 92 85 88 90 90 96 97 99 100 94
16 25 27 27 22 22 21 23 19 15 17 15 13 12 13 13 12 12 18 28 25 24 26 26 28 36 44 50 53 53 51 52 56 69 75 76 70 80 80 84 85 89 97 93 90 97 95 90 92
16 15 17 19 22 28 19 35 23 22 21 19 16 13 13 13 12 19 23 42 38 40 41 44 43 40 43 51 54 62 61 59 55 54 50 62 76 76 83 82 91 90 96 100 91 93 91 88 81
22 26 25 25 24 32 26 43 28 22 26 23 20 14 13 13 22 24 31 24 36 41 39 38 34 28 26 40 75 78 72 66 60 60 61 60 71 69 78 86 89 90 90 93 90 90 99 94 76
23 35 38 35 32 44 31 33 38 25 26 23 18 16 16 14 22 21 26 49 49 47 40 34 24 19 21 58 71 71 66 77 77 76 75 73 77 79 75 77 84 90 89 87 90 92 95 94 92
22 52 82 70 52 41 25 33 30 26 26 24 24 19 18 16 22 32 46 48 46 42 37 28 19 23 60 62 74 83 75 76 83 92 87 85 82 86 85 84 84 89 91 91 97 96 95 98 79
30 55 83 97 73 83 60 58 34 36 59 64 62 25 18 22 31 34 44 45 45 41 36 31 32 33 60 67 72 77 78 85 95 93 99 91 78 79 78 84 90 87 91 95 97 98 99 88 89
36 42 42 72 62 77 60 52 35 71 79 74 60 45 29 43 41 45 46 44 40 35 41 41 38 35 32 39 45 59 67 71 85 86 96 94 92 83 85 85 88 88 88 96 96 98 97 92 91
32 34 67 80 86 80 84 86 94 78 92 88 81 78 64 49 44 45 43 41 40 44 47 46 45 41 44 40 41 41 43 59 71 81 85 89 94 95 91 96 92 93 92 94 97 96 94 92 91
58 56 62 70 88 80 74 80 82 89 90 95 89 79 77 58 58 47 52 44 44 46 57 64 55 55 50 49 45 40 39 42 63 74 83 92 93 100 94 95 89 94 94 97 95 93 92 92 98
50 63 93 98 92 96 92 85 67 78 77 82 98 99 82 73 55 75 52 62 66 74 71 67 66 64 64 56 48 44 41 42 51 68 80 88 95 99 98 97 89 90 92 95 96 98 98 99 100